[[{"header":{"parameterUnit":"m.s-1","parameterCategory":1,"la1":30.6,"la2":28.766,"lo1":-90.7593,"lo2":-88.6598,"dy":0.0162,"dx":0.0183,"nx":116,"ny":114,"refTime":"2024-04-19T12:00:00:Z","depth":0,"parameterNumber":2,"parameterNumberName":"U-component_of_WINDS"},"data":[0.0,0.0,0.0,0.0,0.0,0.0,0.0,0.0,0.0,0.0,0.0,0.0,0.0,0.0,0.0,0.0,0.0,0.0,0.0,0.0,0.0,0.0,0.0,0.0,0.0,0.0,0.0,0.0,0.0,0.0,0.0,0.0,0.0,0.0,0.0,0.0,0.0,0.0,0.0,0.0,0.0,0.0,0.0,0.0,0.0,0.0,0.0,0.0,0.0,0.0,0.0,0.0,0.0,0.0,0.0,0.0,0.0,0.0,0.0,0.0,0.0,0.0,0.0,0.0,0.0,0.0,0.0,0.0,0.0,0.0,0.0,0.0,0.0,0.0,0.0,0.0,0.0,0.0,0.0,0.0,0.0,0.0,0.0,0.0,0.0,0.0,0.0,0.0,0.0,0.0,0.0,0.0,0.0,0.0,0.0,0.0,0.0,0.0,0.0,0.0,0.0,0.0,0.0,0.0,0.0,0.0,0.0,0.0,0.0,0.0,0.0,0.0,0.0,0.0,0.0,0.0,0.0,0.0,0.0,0.0,0.0,0.0,0.0,0.0,0.0,0.0,0.0,0.0,0.0,0.0,0.0,0.0,0.0,0.0,0.0,0.0,0.0,0.0,0.0,0.0,0.0,0.0,0.0,0.0,0.0,0.0,0.0,0.0,0.0,0.0,0.0,0.0,0.0,0.0,0.0,0.0,0.0,0.0,0.0,0.0,0.0,0.0,0.0,0.0,0.0,0.0,0.0,0.0,0.0,0.0,0.0,0.0,0.0,0.0,0.0,0.0,0.0,0.0,0.0,0.0,0.0,0.0,0.0,0.0,0.0,0.0,0.0,0.0,0.0,0.0,0.0,0.0,0.0,0.0,0.0,0.0,0.0,0.0,0.0,0.0,0.0,0.0,0.0,0.0,0.0,0.0,0.0,0.0,0.0,0.0,0.0,0.0,0.0,0.0,0.0,0.0,0.0,0.0,0.0,0.0,0.0,0.0,0.0,0.0,0.0,0.0,0.0,0.0,0.0,0.0,0.0,0.0,0.0,0.0,0.0,0.0,0.0,0.0,0.0,0.0,0.0,0.0,0.0,0.0,0.0,0.0,0.0,0.0,0.0,0.0,0.0,0.0,0.0,0.0,0.0,0.0,0.0,0.0,0.0,0.0,0.0,0.0,0.0,0.0,0.0,0.0,0.0,0.0,0.0,0.0,0.0,0.0,0.0,0.0,0.0,0.0,0.0,0.0,0.0,0.0,0.0,0.0,0.0,0.0,0.0,0.0,0.0,0.0,0.0,0.0,0.0,0.0,0.0,0.0,0.0,0.0,0.0,0.0,0.0,0.0,0.0,0.0,0.0,0.0,0.0,0.0,0.0,0.0,0.0,0.0,0.0,0.0,0.0,0.0,0.0,0.0,0.0,0.0,0.0,0.0,0.0,0.0,0.0,0.0,0.0,0.0,0.0,0.0,0.0,0.0,0.0,0.0,0.0,0.0,0.0,0.0,0.0,0.0,0.0,0.0,0.0,0.0,0.0,0.0,0.0,0.0,0.0,0.0,0.0,0.0,0.0,0.0,0.0,0.0,0.0,0.0,0.0,0.0,0.0,0.0,0.0,0.0,0.0,0.0,0.0,0.0,0.0,0.0,0.0,0.0,0.0,0.0,0.0,0.0,0.0,0.0,0.0,0.0,0.0,0.0,0.0,0.0,0.0,0.0,0.0,0.0,0.0,0.0,0.0,0.0,0.0,0.0,0.0,0.0,0.0,0.0,0.0,0.0,0.0,0.0,0.0,0.0,0.0,0.0,0.0,0.0,0.0,0.0,0.0,0.0,0.0,0.0,0.0,0.0,0.0,0.0,0.0,0.0,0.0,0.0,0.0,0.0,0.0,0.0,0.0,0.0,0.0,0.0,0.0,0.0,0.0,0.0,0.0,0.0,0.0,0.0,0.0,0.0,0.0,0.0,0.0,0.0,0.0,0.0,0.0,0.0,0.0,0.0,0.0,0.0,0.0,0.0,0.0,0.0,0.0,0.0,0.0,0.0,0.0,0.0,0.0,0.0,0.0,0.0,0.0,0.0,0.0,0.0,0.0,0.0,0.0,0.0,0.0,0.0,0.0,0.0,0.0,0.0,0.0,0.0,0.0,0.0,0.0,0.0,0.0,0.0,0.0,0.0,0.0,0.0,0.0,0.0,0.0,0.0,0.0,0.0,0.0,0.0,0.0,0.0,0.0,0.0,0.0,0.0,0.0,0.0,0.0,0.0,0.0,0.0,0.0,0.0,0.0,0.0,0.0,0.0,0.0,0.0,0.0,0.0,0.0,0.0,0.0,0.0,0.0,0.0,0.0,0.0,0.0,0.0,0.0,0.0,0.0,0.0,0.0,0.0,0.0,0.0,0.0,0.0,0.0,0.0,0.0,0.0,0.0,0.0,0.0,0.0,0.0,0.0,0.0,0.0,0.0,0.0,0.0,0.0,0.0,0.0,0.0,0.0,0.0,0.0,0.0,0.0,0.0,0.0,0.0,0.0,0.0,0.0,0.0,0.0,0.0,0.0,0.0,0.0,0.0,0.0,0.0,0.0,0.0,0.0,0.0,0.0,0.0,0.0,0.0,0.0,0.0,0.0,0.0,0.0,0.0,0.0,0.0,0.0,0.0,0.0,0.0,0.0,0.0,0.0,0.0,0.0,0.0,0.0,0.0,0.0,0.0,0.0,0.0,0.0,0.0,0.0,0.0,0.0,0.0,0.0,0.0,0.0,0.0,0.0,0.0,0.0,0.0,0.0,0.0,0.0,0.0,0.0,0.0,0.0,0.0,0.0,0.0,0.0,0.0,0.0,0.0,0.0,0.0,0.0,0.0,0.0,0.0,0.0,0.0,0.0,0.0,0.0,0.0,0.0,0.0,0.0,0.0,0.0,0.0,0.0,0.0,0.0,0.0,0.0,0.0,0.0,0.0,0.0,0.0,0.0,0.0,0.0,0.0,0.0,0.0,0.0,0.0,0.0,0.0,0.0,0.0,0.0,0.0,0.0,0.0,0.0,0.0,0.0,0.0,0.0,0.0,0.0,0.0,0.0,0.0,0.0,0.0,0.0,0.0,0.0,0.0,0.0,0.0,0.0,0.0,0.0,0.0,0.0,0.0,0.0,0.0,0.0,0.0,0.0,0.0,0.0,0.0,0.0,0.0,0.0,0.0,0.0,0.0,0.0,0.0,0.0,0.0,0.0,0.0,0.0,0.0,0.0,0.0,0.0,0.0,0.0,0.0,0.0,0.0,0.0,0.0,0.0,0.0,0.0,0.0,0.0,0.0,0.0,0.0,0.0,0.0,0.0,0.0,0.0,0.0,0.0,0.0,0.0,0.0,0.0,0.0,0.0,0.0,0.0,0.0,0.0,0.0,0.0,0.0,0.0,0.0,0.0,0.0,0.0,0.0,0.0,0.0,0.0,0.0,0.0,0.0,0.0,0.0,0.0,0.0,0.0,0.0,0.0,0.0,0.0,0.0,0.0,0.0,0.0,0.0,0.0,0.0,0.0,0.0,0.0,0.0,0.0,0.0,0.0,0.0,0.0,0.0,0.0,0.0,0.0,0.0,0.0,0.0,0.0,0.0,0.0,0.0,0.0,0.0,0.0,0.0,0.0,0.0,0.0,0.0,0.0,0.0,0.0,0.0,0.0,0.0,0.0,0.0,0.0,0.0,0.0,0.0,0.0,0.0,0.0,0.0,0.0,0.0,0.0,0.0,0.0,0.0,0.0,0.0,0.0,0.0,0.0,0.0,0.0,0.0,0.0,0.0,0.0,0.0,0.0,0.0,0.0,0.0,0.0,0.0,0.0,0.0,0.0,0.0,0.0,0.0,0.0,0.0,0.0,0.0,0.0,0.0,0.0,0.0,0.0,0.0,0.0,0.0,0.0,0.0,0.0,0.0,0.0,0.0,0.0,0.0,0.0,0.0,0.0,0.0,0.0,0.0,0.0,0.0,0.0,0.0,0.0,0.0,0.0,0.0,0.0,0.0,0.0,0.0,0.0,0.0,0.0,0.0,0.0,0.0,0.0,0.0,0.0,0.0,0.0,0.0,0.0,0.0,0.0,0.0,0.0,0.0,0.0,0.0,0.0,0.0,0.0,0.0,0.0,0.0,0.0,0.0,0.0,0.0,0.0,0.0,0.0,0.0,0.0,0.0,0.0,0.0,0.0,0.0,0.0,0.0,0.0,0.0,0.0,0.0,0.0,0.0,0.0,0.0,0.0,0.0,0.0,0.0,0.0,0.0,0.0,0.0,0.0,0.0,0.0,0.0,0.0,0.0,0.0,0.0,0.0,0.0,0.0,0.0,0.0,0.0,0.0,0.0,0.0,0.0,0.0,0.0,0.0,0.0,0.0,0.0,0.0,0.0,0.0,0.0,0.0,0.0,0.0,0.0,0.0,0.0,0.0,0.0,0.0,0.0,0.0,0.0,0.0,0.0,0.0,0.0,0.0,0.0,0.0,0.0,0.0,0.0,0.0,0.0,0.0,0.0,0.0,0.0,0.0,0.0,0.0,0.0,0.0,0.0,0.0,0.0,0.0,0.0,0.0,0.0,0.0,0.0,0.0,0.0,0.0,0.0,0.0,0.0,0.0,0.0,0.0,0.0,0.0,0.0,0.0,0.0,0.0,0.0,0.0,0.0,0.0,0.0,0.0,0.0,0.0,0.0,0.0,0.0,0.0,0.0,0.0,0.0,0.0,0.0,0.0,0.0,0.0,0.0,0.0,0.0,0.0,0.0,0.0,0.0,0.0,0.0,0.0,0.0,0.0,0.0,0.0,0.0,0.0,0.0,0.0,0.0,0.0,0.0,0.0,0.0,0.0,0.0,0.0,0.0,0.0,0.0,0.0,0.0,0.0,0.0,0.0,0.0,0.0,0.0,0.0,0.0,0.0,0.0,0.0,0.0,0.0,0.0,0.0,0.0,0.0,0.0,0.0,0.0,0.0,0.0,0.0,0.0,0.0,0.0,0.0,0.0,0.0,0.0,0.0,0.0,0.0,0.0,0.0,0.0,0.0,0.0,0.0,0.0,0.0,0.0,0.0,0.0,0.0,0.0,0.0,0.0,0.0,0.0,0.0,0.0,0.0,0.0,0.0,0.0,0.0,0.0,0.0,0.0,0.0,0.0,0.0,0.0,0.0,0.0,0.0,0.0,0.0,0.0,0.0,0.0,0.0,0.0,0.0,0.0,0.0,0.0,0.0,0.0,0.0,0.0,0.0,0.0,0.0,0.0,0.0,0.0,0.0,0.0,0.0,0.0,0.0,0.0,0.0,0.0,0.0,0.0,0.0,0.0,0.0,0.0,0.0,0.0,0.0,0.0,0.0,0.0,0.0,0.0,0.0,0.0,0.0,0.0,0.0,0.0,0.0,0.0,0.0,0.0,0.0,0.0,0.0,0.0,0.0,0.0,0.0,0.0,0.0,0.0,0.0,0.0,0.0,0.0,0.0,0.0,0.0,0.0,0.0,0.0,0.0,0.0,0.0,0.0,0.0,0.0,0.0,0.0,0.0,0.0,0.0,0.0,0.0,0.0,0.0,0.0,0.0,0.0,0.0,0.0,0.0,0.0,0.0,0.0,0.0,0.0,0.0,0.0,0.0,0.0,0.0,0.0,0.0,0.0,0.0,0.0,0.0,0.0,0.0,0.0,0.0,0.0,0.0,0.0,0.0,0.0,0.0,0.0,0.0,0.0,0.0,0.0,0.0,0.0,0.0,0.0,0.0,0.0,0.0,0.0,0.0,0.0,0.0,0.0,0.0,0.0,0.0,0.0,0.0,0.0,0.0,0.0,0.0,0.0,0.0,0.0,0.0,0.0,0.0,0.0,0.0,0.0,0.0,0.0,0.0,0.0,0.0,0.0,0.0,0.0,0.0,0.0,0.0,0.0,0.0,0.0,0.0,0.0,0.0,0.0,0.0,0.0,0.0,0.0,0.0,0.0,0.0,0.0,0.0,0.0,0.0,0.0,0.0,0.0,0.0,0.0,0.0,0.0,0.0,0.0,0.0,0.0,0.0,0.0,0.0,0.0,0.0,0.0,0.0,0.0,0.0,0.0,0.0,0.0,0.0,0.0,0.0,0.0,0.0,-2.8308,-2.7676,0.0,0.0,0.0,0.0,0.0,0.0,0.0,0.0,0.0,0.0,0.0,0.0,0.0,0.0,0.0,0.0,0.0,0.0,0.0,0.0,0.0,0.0,0.0,-1.4658,-1.4769,-1.4624,-1.4545,-1.4473,-1.4364,0.0,0.0,0.0,0.0,0.0,-1.4097,-1.4928,-1.5691,-1.6359,-1.7399,-1.7794,-1.7609,-1.8234,-1.9039,-2.0011,0.0,0.0,0.0,0.0,0.0,0.0,0.0,0.0,0.0,0.0,0.0,0.0,0.0,0.0,0.0,0.0,0.0,0.0,0.0,0.0,0.0,0.0,0.0,0.0,0.0,0.0,0.0,0.0,0.0,0.0,0.0,0.0,0.0,0.0,0.0,0.0,0.0,0.0,0.0,0.0,0.0,0.0,0.0,0.0,0.0,0.0,0.0,0.0,0.0,0.0,0.0,0.0,0.0,0.0,0.0,0.0,0.0,0.0,0.0,0.0,0.0,0.0,0.0,0.0,0.0,0.0,0.0,0.0,0.0,0.0,-3.0791,-3.0119,0.0,0.0,0.0,0.0,0.0,0.0,0.0,0.0,0.0,0.0,0.0,0.0,0.0,0.0,0.0,0.0,0.0,0.0,0.0,0.0,0.0,-1.5006,-1.5061,-1.553,-1.5735,-1.5505,-1.5502,-1.5412,-1.5192,-1.4634,0.0,0.0,-1.359,-1.3557,-1.4116,-1.4896,-1.5522,-1.602,-1.7114,-1.7616,-1.7556,-1.7823,-1.8332,-1.9076,-2.0477,0.0,0.0,0.0,0.0,0.0,0.0,0.0,0.0,0.0,0.0,0.0,0.0,0.0,0.0,0.0,0.0,0.0,0.0,0.0,0.0,0.0,0.0,0.0,0.0,0.0,0.0,0.0,0.0,0.0,0.0,0.0,0.0,0.0,0.0,0.0,0.0,0.0,0.0,0.0,0.0,0.0,0.0,0.0,0.0,0.0,0.0,0.0,0.0,0.0,0.0,0.0,0.0,0.0,0.0,0.0,0.0,0.0,0.0,0.0,0.0,0.0,0.0,0.0,-3.5184,-3.5173,-3.5185,-3.5185,-3.4812,-3.4183,-3.3998,-3.3229,-3.2034,-3.1874,0.0,0.0,0.0,0.0,0.0,0.0,0.0,0.0,0.0,0.0,0.0,0.0,0.0,0.0,0.0,0.0,0.0,0.0,0.0,-1.5132,-1.5711,-1.5644,-1.5422,-1.5112,-1.508,-1.4968,-1.471,-1.4711,-1.469,-1.4607,-1.4511,-1.4776,-1.5432,-1.5563,-1.5922,-1.6507,-1.6632,-1.692,-1.7341,-1.7326,-1.7522,-1.8007,-2.0097,-2.1754,-2.3001,0.0,0.0,0.0,0.0,0.0,0.0,0.0,0.0,0.0,0.0,0.0,0.0,0.0,0.0,0.0,0.0,0.0,0.0,0.0,0.0,0.0,0.0,0.0,0.0,0.0,0.0,0.0,0.0,0.0,0.0,0.0,0.0,0.0,0.0,0.0,0.0,0.0,0.0,0.0,0.0,0.0,-2.6733,-2.697,0.0,0.0,0.0,0.0,0.0,0.0,0.0,0.0,0.0,0.0,0.0,0.0,0.0,-3.5281,-3.5376,-3.6823,-3.7669,-3.7895,-3.7895,-3.7887,-3.7887,-3.7887,-3.784,-3.7726,-3.7694,0.0,-3.2954,-3.2149,0.0,0.0,0.0,0.0,0.0,0.0,0.0,0.0,0.0,0.0,0.0,0.0,0.0,0.0,0.0,0.0,0.0,0.0,0.0,0.0,0.0,-1.6614,-1.6906,-1.6186,-1.639,-1.6278,-1.5593,-1.5334,-1.5101,-1.4928,-1.4664,-1.4802,-1.5408,-1.5421,-1.5895,-1.6878,-1.651,-1.6706,-1.7412,-1.6715,-1.6756,-1.7438,-1.8936,-2.0439,-2.1862,-2.2051,0.0,0.0,0.0,0.0,0.0,0.0,0.0,0.0,0.0,0.0,0.0,0.0,0.0,0.0,0.0,0.0,0.0,0.0,0.0,0.0,0.0,0.0,0.0,0.0,0.0,0.0,0.0,0.0,0.0,0.0,0.0,0.0,0.0,0.0,0.0,0.0,0.0,0.0,0.0,-2.6691,-2.8253,-2.969,-2.9715,-2.9666,0.0,0.0,0.0,0.0,0.0,0.0,0.0,0.0,0.0,-3.4233,-3.6264,-3.7368,-3.7368,-3.8082,-3.8442,-3.8392,-3.8392,-3.8408,-3.8397,-3.8405,-3.8392,-3.8404,-3.8391,-3.7523,-3.6054,-3.5145,-3.4681,-3.439,0.0,0.0,0.0,0.0,-2.9794,-3.007,0.0,0.0,0.0,0.0,0.0,0.0,0.0,0.0,0.0,0.0,0.0,0.0,-1.5957,-1.7191,-1.7829,-1.7145,-1.7271,-1.7143,-1.6439,-1.5847,-1.5435,-1.5261,-1.4906,-1.4904,-1.5333,-1.5291,-1.5816,-1.6996,-1.6508,-1.6653,-1.7385,-1.674,-1.6823,-1.7577,-1.8423,-1.9682,-2.1161,-2.12,-2.1914,-2.2905,0.0,0.0,0.0,0.0,0.0,0.0,0.0,0.0,0.0,0.0,0.0,0.0,0.0,0.0,0.0,0.0,0.0,0.0,0.0,0.0,0.0,0.0,0.0,0.0,0.0,0.0,0.0,0.0,0.0,0.0,0.0,0.0,0.0,0.0,0.0,0.0,0.0,-2.8509,-3.0144,-3.1617,-3.1659,-3.1809,0.0,0.0,0.0,0.0,0.0,0.0,-3.3709,-3.5727,-3.6887,-3.6902,-3.8371,-3.9166,-3.9166,-3.9166,-3.914,-3.9087,-3.9087,-3.9084,-3.9073,-3.9074,-3.9058,-3.9049,-3.9032,-3.9047,-3.8946,-3.7855,-3.7007,-3.6231,-3.4946,-3.3778,-3.282,-3.2302,-3.2278,-3.2491,0.0,0.0,0.0,0.0,0.0,0.0,0.0,0.0,0.0,0.0,0.0,-1.6559,-1.6381,-1.6726,-1.7064,-1.7257,-1.6732,-1.6455,-1.6668,-1.5995,-1.5622,-1.5665,-1.5592,-1.5606,-1.5768,-1.5521,-1.5833,-1.6722,-1.6564,-1.6692,-1.7131,-1.7832,-1.8368,-1.8741,-1.9361,-2.0555,-2.2086,-2.1531,-2.2677,-2.4694,-2.2687,0.0,0.0,0.0,0.0,0.0,0.0,0.0,0.0,0.0,0.0,0.0,0.0,0.0,0.0,0.0,0.0,0.0,0.0,0.0,0.0,0.0,0.0,0.0,0.0,0.0,0.0,0.0,0.0,0.0,0.0,0.0,0.0,0.0,0.0,0.0,0.0,0.0,0.0,-3.113,-3.4484,0.0,0.0,0.0,0.0,-3.5663,-3.5721,-3.644,-3.8095,-3.9023,-3.9536,-3.9607,-4.0484,-4.0971,-4.0971,-4.0971,-4.0971,-4.0951,-4.0951,-4.0932,-4.0879,-4.0875,-4.0835,-4.0771,-4.0771,-4.0771,-4.0635,-3.8942,-3.8214,-3.8171,-3.8077,-3.7346,-3.643,-3.7086,-3.6736,-3.5951,0.0,0.0,0.0,0.0,0.0,-1.6596,-1.8021,-1.7965,-1.7459,-1.6667,-1.7082,-1.6962,-1.5697,-1.6624,-1.7153,-1.6648,-1.6616,-1.6412,-1.5906,-1.5699,-1.5551,-1.5448,-1.5536,-1.5743,-1.6063,-1.6626,-1.6968,-1.7024,-1.7143,-1.7409,-1.7832,-1.8227,-1.8572,-1.8836,-1.9746,-2.1152,-2.2754,-2.1563,-2.2,-2.3442,-2.247,-2.237,0.0,0.0,0.0,0.0,0.0,0.0,0.0,0.0,0.0,0.0,0.0,0.0,0.0,0.0,0.0,0.0,0.0,0.0,0.0,0.0,0.0,0.0,0.0,0.0,0.0,0.0,0.0,0.0,0.0,0.0,0.0,0.0,0.0,0.0,0.0,0.0,0.0,-3.4112,-3.553,0.0,-3.6677,-3.6484,-3.6718,-3.755,-3.8118,-3.8674,-3.9309,-4.0138,-4.0608,-4.0632,-4.0944,-4.1107,-4.1107,-4.1107,-4.1107,-4.1107,-4.1107,-4.1059,-4.0995,-4.1,-4.0999,-4.0954,-4.0917,-4.0907,-4.0849,-4.0238,-3.9646,-3.9083,-3.8524,-3.7956,-3.7454,-3.7682,-3.7467,-3.6967,0.0,0.0,0.0,0.0,0.0,-1.7262,-1.8419,-1.8551,-1.7978,-1.6593,-1.7386,-1.7472,-1.5883,-1.6804,-1.7332,-1.6813,-1.6533,-1.6203,-1.577,-1.5521,-1.5329,-1.5193,-1.5472,-1.5946,-1.6596,-1.7121,-1.7337,-1.7268,-1.752,-1.7861,-1.8341,-1.8779,-1.9212,-1.9657,-2.048,-2.1718,-2.3139,-2.2261,-2.2545,-2.3554,-2.2936,-2.2917,-2.3269,0.0,0.0,0.0,0.0,0.0,0.0,0.0,0.0,0.0,0.0,0.0,0.0,0.0,0.0,0.0,0.0,0.0,0.0,0.0,0.0,0.0,0.0,0.0,0.0,0.0,0.0,0.0,0.0,0.0,0.0,0.0,0.0,0.0,0.0,-3.3237,-3.5015,-3.5886,-3.7027,-3.8043,-3.8881,-3.8748,-3.8808,-3.9334,-3.9911,-4.0236,-4.024,-4.0789,-4.1103,-4.1093,-4.1095,-4.11,-4.1107,-4.1107,-4.1107,-4.1107,-4.1107,-4.1062,-4.1006,-4.1307,-4.1284,-4.1006,-4.1241,-4.1169,-4.0907,-4.0907,-4.0568,-3.9947,-3.9048,-3.84,-3.7954,-3.7863,-3.7519,-3.7062,0.0,0.0,0.0,0.0,0.0,-1.779,-1.8498,-1.8398,-1.7965,-1.711,-1.7793,-1.7991,-1.7003,-1.717,-1.7499,-1.7847,-1.6487,-1.5831,-1.6341,-1.5524,-1.5041,-1.5041,-1.5493,-1.6257,-1.739,-1.6942,-1.6942,-1.7455,-1.7688,-1.8087,-1.8685,-1.9577,-2.0422,-2.1243,-2.1605,-2.2315,-2.3243,-2.3674,-2.4474,-2.5332,-2.4117,-2.3918,-2.4305,0.0,0.0,0.0,0.0,0.0,0.0,0.0,0.0,0.0,0.0,0.0,0.0,0.0,0.0,0.0,0.0,0.0,0.0,0.0,0.0,0.0,0.0,0.0,0.0,0.0,0.0,0.0,0.0,0.0,0.0,0.0,0.0,0.0,-3.2218,-3.5123,-3.6964,-3.6202,-3.9097,-4.0828,-4.0045,-4.0717,-4.1171,-4.1133,-4.1147,-4.1139,-4.1139,-4.1133,-4.114,-4.1135,-4.1152,-4.1178,-4.1149,-4.1169,-4.1185,-4.1185,-4.1146,-4.1101,-4.1068,-4.1902,-4.1844,-4.1084,-4.1881,-4.1751,-4.0946,-4.0946,-4.0927,-4.0806,-3.9896,-3.8978,-3.8164,-3.8027,-3.7346,-3.6495,0.0,0.0,0.0,-1.9089,-1.7902,-1.7268,-1.8416,-1.8027,-1.7408,-1.6968,-1.7367,-1.7466,-1.6895,-1.6608,-1.6646,-1.7121,-1.6481,-1.5942,-1.5681,-1.565,-1.5665,-1.5713,-1.6143,-1.6747,-1.7603,-1.8389,-1.8801,-1.8863,-1.9535,-2.001,-2.0292,-2.1257,-2.1609,-2.148,-2.2673,-2.3402,-2.376,-2.4653,-2.5535,-2.622,-2.482,-2.4714,-2.5339,0.0,0.0,0.0,0.0,0.0,0.0,0.0,0.0,0.0,0.0,0.0,0.0,0.0,0.0,0.0,0.0,0.0,0.0,0.0,0.0,0.0,0.0,0.0,0.0,0.0,0.0,0.0,0.0,0.0,0.0,0.0,-3.3529,-3.4934,-3.4931,-3.6776,-3.828,-3.871,-4.0698,-4.1965,-4.1735,-4.2485,-4.2724,-4.2082,-4.2048,-4.203,-4.203,-4.2049,-4.2043,-4.2036,-4.2618,-4.2629,-4.2045,-4.2614,-4.2919,-4.2919,-4.2272,-4.1953,-4.1941,-4.2148,-4.2103,-4.1915,-4.2771,-4.2641,-4.1845,-4.1845,-4.1471,-4.0864,-4.0551,-4.0252,-3.9966,-3.9832,-3.9219,-3.8337,0.0,0.0,0.0,-1.9334,-1.8111,-1.7481,-1.861,-1.7646,-1.6912,-1.7226,-1.7589,-1.7751,-1.7568,-1.724,-1.7089,-1.7302,-1.6735,-1.6091,-1.5477,-1.5555,-1.5811,-1.6272,-1.6487,-1.706,-1.8059,-1.8853,-1.9262,-1.9267,-2.0137,-2.0767,-2.1167,-2.2117,-2.2598,-2.2707,-2.3879,-2.4673,-2.5232,-2.6184,-2.7111,-2.7872,-2.6808,-2.6477,-2.6534,-2.6054,-2.5689,-2.5463,-2.5782,-2.5426,-2.4717,-2.4164,0.0,0.0,0.0,0.0,0.0,0.0,0.0,0.0,0.0,0.0,0.0,0.0,0.0,0.0,0.0,0.0,0.0,0.0,0.0,0.0,0.0,0.0,0.0,0.0,-3.5009,-3.6378,-3.7432,-3.8434,-3.9369,-4.0247,-4.1553,-4.2549,-4.2903,-4.3396,-4.3497,-4.2972,-4.2937,-4.2939,-4.2942,-4.2948,-4.2772,-4.2416,-4.3201,-4.3234,-4.2401,-4.3192,-4.3591,-4.3582,-4.3093,-4.2836,-4.2866,-4.3179,-4.3125,-4.284,-4.3715,-4.3586,-4.2786,-4.2757,-4.2228,0.0,0.0,0.0,0.0,0.0,-3.9157,-3.8654,0.0,0.0,0.0,-1.9638,-1.8625,-1.8063,-1.8765,-1.7399,-1.6609,-1.7582,-1.8055,-1.8355,-1.8502,-1.8252,-1.7992,-1.7817,-1.7056,-1.6321,-1.5654,-1.5357,-1.5647,-1.6601,-1.6662,-1.7273,-1.8541,-1.8812,-1.9051,-1.9255,-2.0181,-2.0986,-2.1675,-2.255,-2.3452,-2.4354,-2.4977,-2.5861,-2.6881,-2.7775,-2.8722,-2.9609,-2.9311,-2.8669,-2.7802,-2.7261,-2.712,-2.7125,-2.6512,-2.5819,-2.523,-2.5598,0.0,0.0,0.0,0.0,0.0,0.0,0.0,0.0,0.0,0.0,0.0,0.0,0.0,0.0,0.0,0.0,0.0,0.0,0.0,0.0,0.0,0.0,0.0,0.0,-3.6224,-3.723,-3.9484,-3.9979,-4.0385,-4.1145,-4.2098,-4.2994,-4.3762,-4.3938,-4.3941,-4.3849,-4.3851,-4.3854,-4.3841,0.0,0.0,0.0,0.0,-4.3564,-4.2699,-4.3496,-4.3896,-4.3897,-4.3792,-4.3734,-4.3776,-4.4536,-4.4467,-4.379,-4.4666,-4.4534,-4.3731,-4.367,-4.3136,-4.2164,-4.0422,-3.9691,-3.9536,-3.8645,-3.8346,-3.8367,0.0,0.0,0.0,-1.9713,-1.8779,-1.8057,-1.8107,-1.7707,-1.7338,-1.7179,-1.7451,-1.7778,-1.8008,-1.7127,-1.6707,-1.7137,-1.6818,-1.6499,-1.6242,-1.5681,-1.5633,-1.6272,-1.6845,-1.7516,-1.8263,-1.9352,-2.0006,-2.0156,-2.1454,-2.2256,-2.256,-2.3534,-2.4174,-2.4508,-2.5316,-2.5926,-2.6432,-2.7944,-2.8832,-2.9288,-3.0067,-2.9762,-2.8825,-2.869,-2.8341,-2.7958,-2.8474,-2.8165,-2.7479,-2.7087,-2.653,-2.5999,-2.6,0.0,0.0,0.0,0.0,0.0,0.0,0.0,0.0,0.0,0.0,0.0,0.0,0.0,0.0,0.0,0.0,0.0,0.0,0.0,0.0,-3.5759,-3.7648,-3.9236,-3.9726,-4.1014,-4.1952,-4.2121,-4.3546,-4.4561,-4.4738,-4.5382,-4.55,-4.4798,-4.4751,-4.4759,-4.4743,-4.4746,-4.4665,-4.4499,-4.533,-4.5379,-4.4502,-4.5301,-4.5696,-4.5693,0.0,0.0,-4.4656,-4.4764,-4.4724,-4.4623,-4.5499,-4.538,-4.4574,-4.455,-4.402,-4.3063,-4.126,-4.0558,-4.0523,-4.0333,-4.0204,-4.0021,0.0,0.0,0.0,-1.9915,-1.9007,-1.8375,-1.861,-1.7791,-1.7229,-1.7465,-1.7561,-1.7652,-1.7786,-1.7251,-1.698,-1.7176,-1.668,-1.6443,-1.6636,-1.598,-1.5934,-1.6712,-1.721,-1.7876,-1.8786,-1.9523,-1.9918,-2.0008,-2.1108,-2.1949,-2.2519,-2.3491,-2.4342,-2.5045,-2.6334,-2.7078,-2.7424,-2.8704,-2.9343,-2.952,-2.9677,-2.9716,-2.9652,-2.9753,-2.9435,-2.8956,-2.9213,-2.8616,-2.7651,-2.7417,-2.6893,-2.6347,-2.6313,-2.5665,-2.4986,0.0,0.0,0.0,0.0,0.0,0.0,0.0,0.0,0.0,0.0,0.0,0.0,0.0,0.0,-3.3564,-3.3641,0.0,-3.6609,-3.7599,-3.8517,-3.9427,-4.0318,-4.1948,-4.3047,-4.3051,-4.4204,-4.5178,-4.5609,-4.6044,-4.5947,-4.5065,-4.5392,-4.5459,-4.5013,-4.541,-4.5447,-4.5009,-4.5842,-4.587,-4.5013,-4.5824,-4.624,-4.6183,-4.5709,-4.5526,-4.5556,-4.5515,-4.5508,-4.5523,-4.5963,-4.5907,-4.5453,-4.4982,-4.453,-4.401,-4.2637,-4.1829,-4.1457,-4.1409,-4.1061,-4.0556,0.0,0.0,0.0,-2.0106,-1.9359,-1.8869,-1.9178,-1.8027,-1.7301,-1.788,-1.7834,-1.7738,-1.77,-1.7622,-1.7488,-1.7293,-1.6612,-1.6353,-1.6787,-1.623,-1.6278,-1.7186,-1.7526,-1.8201,-1.9319,-1.9555,-1.9702,-1.9756,-2.0551,-2.1328,-2.2139,-2.3146,-2.426,-2.547,-2.7076,-2.8018,-2.85,-2.9351,-2.9764,-2.9802,-2.9351,-2.9666,-3.0387,-3.0676,-3.0389,-2.9772,-2.951,-2.8585,-2.7499,-2.7592,-2.7129,-2.6529,-2.6529,-2.615,-2.5713,-2.588,-2.5626,0.0,0.0,0.0,0.0,0.0,0.0,0.0,0.0,0.0,-3.2357,-3.1965,-3.3761,-3.5439,-3.5682,-3.649,-3.7696,-3.9391,-3.9217,-3.9393,-4.0866,-4.2442,-4.3504,-4.3684,-4.4625,-4.5525,-4.623,-4.63,-4.601,-4.5301,-4.5903,-4.5989,-4.5287,-4.5918,-4.5974,-4.5264,-4.5922,-4.595,-4.5252,-4.5933,-4.6253,-4.6215,-4.6209,-4.6196,-4.6203,-4.6199,-4.6196,-4.6192,-4.6185,-4.6173,-4.6106,-4.5351,-4.5026,-4.4937,-4.4009,-4.3114,-4.2327,-4.2099,-4.151,-4.0846,0.0,0.0,0.0,0.0,0.0,-1.9498,-1.8711,-1.8772,-1.8624,-1.7839,-1.7869,-1.7905,-1.7719,-1.733,-1.7017,-1.6891,-1.6615,-1.6468,-1.6466,-1.6267,-1.639,-1.6924,-1.7652,-1.8386,-1.9119,-1.9671,-2.0078,-2.0308,-2.106,-2.1537,-2.1768,-2.3084,-2.4178,-2.5109,-2.637,-2.742,-2.8288,-2.911,-2.9523,-2.9679,-3.0318,-3.0716,-3.0976,-3.1601,-3.112,-3.0114,-2.9924,-2.9233,-2.8452,-2.8452,-2.795,-2.7296,-2.735,-2.6919,-2.6337,-2.6062,0.0,-2.5754,-2.5799,-2.7022,-2.8342,-2.8727,-3.0088,-3.1406,0.0,0.0,-3.3477,-3.3604,-3.4526,-3.5576,-3.6418,-3.7332,-3.8311,-3.9345,-4.0141,-4.0719,-4.0968,-4.1857,-4.2766,-4.3592,-4.5156,-4.6181,-4.6298,-4.6294,-4.6261,-4.6163,-4.623,-4.6266,-4.6168,-4.6256,-4.6266,-4.6167,-4.6255,-4.6253,-4.6161,-4.6182,-4.6233,-4.6282,-4.6237,-4.6203,-4.62,-4.6206,-4.6208,-4.6209,-4.6147,-4.6076,-4.6012,-4.591,-4.5869,-4.5784,-4.489,-4.4026,-4.3143,-4.2312,-4.1898,-4.1641,0.0,0.0,0.0,0.0,0.0,-1.9892,-1.9393,-1.9356,-1.9136,-1.8484,-1.8336,-1.8177,-1.7854,-1.7474,-1.7179,-1.7043,-1.6914,-1.6747,-1.653,-1.6503,-1.6692,-1.7162,-1.8049,-1.8826,-1.9499,-2.022,-2.0647,-2.0747,-2.1114,-2.158,-2.218,-2.3456,-2.4607,-2.5638,-2.725,-2.82,-2.8679,-2.9559,-2.9874,-2.9826,-3.0321,-3.0508,-3.0562,-3.1402,-3.0812,-2.9553,-2.9466,-2.8691,0.0,0.0,-2.7137,-2.6975,-2.6991,-2.6893,-2.6774,-2.6724,-2.673,0.0,-2.7264,-2.8325,-2.9501,0.0,-3.1384,-3.2482,-3.3179,-3.3802,-3.4281,-3.4452,-3.5658,-3.6843,-3.7306,-3.8173,-3.9108,0.0,-4.0162,-4.0335,-4.0879,-4.1724,-4.2454,-4.2838,-4.4014,-4.5184,-4.6209,-4.5848,-4.5541,-4.5543,-4.6015,-4.607,-4.5562,-4.6022,-4.6306,-4.63,-4.629,-4.629,-4.63,-4.6221,-4.6211,-4.6236,-4.6203,-4.6209,-4.6209,-4.6193,-4.6199,-4.6205,-4.6137,-4.6085,-4.6061,-4.6026,-4.5719,-4.5257,-4.4857,-4.3864,-4.2644,-4.2725,-4.2388,-4.1854,0.0,0.0,0.0,0.0,0.0,-2.0213,-2.0017,-1.9718,-1.9381,-1.9073,-1.8771,-1.8438,-1.8041,-1.7749,-1.7424,-1.7068,-1.6964,-1.6812,-1.6514,-1.6552,-1.6859,-1.7534,-1.8252,-1.8972,-1.9692,-2.0296,-2.0727,-2.0998,-2.1088,-2.1698,-2.2822,-2.3873,-2.5025,-2.6312,-2.7968,-2.8721,-2.8815,-2.9892,-3.0008,-2.9484,-3.0138,-3.0219,-3.0052,-3.096,-3.0412,-2.9147,-2.9229,-2.8322,0.0,0.0,-2.6469,-2.659,-2.6623,-2.6809,-2.7039,-2.723,-2.7478,-2.7859,-2.8613,0.0,0.0,-3.1642,-3.2551,-3.3321,-3.4103,-3.4484,-3.4708,-3.484,-3.6169,-3.7349,-3.7496,-3.8301,-3.9252,-4.0198,-3.9904,-3.9878,-4.077,-4.1482,-4.201,-4.2275,-4.2693,-4.3753,-4.5745,-4.5363,-4.5095,-4.5332,-4.5936,-4.6011,-4.5385,-4.5967,-4.6293,-4.6305,-4.6294,-4.6292,-4.6296,-4.6238,-4.6206,-4.6206,-4.6203,-4.6209,-4.6206,-4.6193,-4.6199,-4.6205,-4.6154,-4.6128,-4.6076,-4.5784,-4.5302,-4.4718,-4.4184,-4.3346,-4.2501,-4.3092,-4.2858,-4.2235,0.0,0.0,0.0,0.0,0.0,-2.042,-2.0219,-1.9801,-1.9465,-1.9392,-1.9031,-1.8658,-1.832,-1.8089,-1.76,-1.67,-1.6546,-1.6426,-1.6229,-1.6202,-1.6746,-1.7926,-1.8126,-1.8617,-1.949,-1.9527,-2.002,-2.1002,-2.1132,-2.2013,-2.3579,-2.4206,-2.5333,-2.6912,-2.8021,-2.8437,-2.8398,-2.9865,-2.9637,-2.8401,-3.0027,-3.0259,-2.9709,-3.0499,-3.0137,-2.9249,-2.9577,0.0,0.0,0.0,-2.6469,-2.6365,-2.6607,-2.6842,0.0,-2.7386,-2.7824,-2.8397,-2.939,0.0,-3.1344,-3.2483,-3.337,-3.3999,-3.4173,-3.4416,-3.4645,-3.4778,-3.5628,-3.6375,-3.652,-3.7356,-3.8351,-3.929,-3.9481,-3.9827,-4.0762,-4.0915,-4.1288,-4.2182,-4.1646,-4.2204,0.0,-4.5015,-4.5351,-4.6205,-4.6297,-4.6294,-4.6255,-4.6299,-4.6299,-4.6293,-4.6305,-4.6296,-4.6306,-4.6233,-4.6206,-4.6206,-4.6192,-4.6206,-4.6203,-4.6206,-4.6208,-4.6209,-4.6209,-4.616,-4.6022,-4.5182,-4.4783,-4.4536,-4.284,-4.2617,-4.3279,-4.3299,-4.3239,-4.3043,0.0,0.0,0.0,0.0,0.0,0.0,-2.0263,-2.0054,-1.9577,-1.8827,-1.8381,0.0,0.0,0.0,0.0,0.0,-1.6864,-1.6516,-1.5783,-1.6244,-1.6691,-1.7057,-1.8231,-1.9038,-1.9428,-2.0524,-2.1253,-2.1593,-2.2215,-2.3161,-2.4357,-2.5266,-2.6324,-2.7465,-2.8379,-2.8682,-2.8629,-2.962,-2.9724,-2.9314,-3.0487,-3.045,-2.9751,-3.0502,-2.9868,-2.8571,0.0,0.0,0.0,-2.6572,-2.6434,-2.6521,-2.6708,-2.6907,-2.7182,-2.7719,-2.8548,-2.9349,-2.9725,0.0,-3.2254,-3.2687,-3.3444,-3.4099,-3.4233,-3.4363,-3.4517,-3.4706,-3.5501,-3.6236,-3.6462,-3.7294,-3.8254,-3.9237,-3.9451,-3.9813,-4.0712,-4.1374,-4.1676,-4.1462,-4.2214,0.0,0.0,0.0,0.0,-4.5331,-4.5446,-4.5443,-4.5438,-4.5984,-4.6295,-4.6293,-4.63,-4.6296,-4.6305,-4.6223,-4.6206,-4.6206,-4.62,-4.6193,-4.6203,-4.6206,-4.6196,-4.6208,-4.6193,-4.5823,-4.5205,-4.4919,-4.4443,-4.3781,-4.2615,-4.2297,-4.2495,-4.2498,-4.246,-4.2447,0.0,0.0,0.0,0.0,0.0,0.0,0.0,0.0,0.0,0.0,0.0,0.0,0.0,0.0,0.0,0.0,0.0,-1.6313,-1.6216,-1.6433,-1.6767,-1.725,-1.8388,-1.9168,-1.9612,-2.0739,-2.1626,-2.2207,-2.284,-2.3789,-2.4994,-2.5732,-2.673,-2.7901,-2.8368,-2.8686,-2.8959,-2.9611,-2.9944,-3.0038,-3.0483,-3.034,-2.9842,-2.9909,-2.9164,0.0,0.0,0.0,0.0,-2.659,-2.6486,-2.664,-2.6841,-2.7165,-2.7554,-2.8039,-2.8945,-2.9873,-3.0259,-3.1492,-3.2766,-3.3186,-3.3722,-3.4173,-3.4305,-3.4416,-3.4506,-3.4645,-3.545,-3.6112,-3.6018,-3.7015,-3.8101,-3.8812,-3.9232,-3.9771,-4.0668,-4.1339,-4.1664,-4.1446,-4.2434,-4.3395,0.0,0.0,0.0,-4.5332,-4.5175,-4.5134,-4.5444,-4.6008,-4.6299,-4.6296,-4.6306,-4.6303,-4.6308,-4.6267,-4.6228,-4.6201,-4.62,-4.619,-4.6196,-4.6203,-4.6199,-4.6196,-4.6204,-4.5854,-4.5269,-4.4932,-4.4287,-4.3404,-4.2533,-4.2177,-4.2122,-4.211,-4.2079,-4.2112,0.0,0.0,0.0,0.0,0.0,0.0,0.0,0.0,0.0,0.0,0.0,0.0,0.0,0.0,0.0,0.0,0.0,0.0,-1.7301,-1.6717,-1.6958,-1.8407,-1.8569,-1.9072,-2.0019,-2.0263,-2.1177,-2.2823,-2.3054,-2.3992,-2.5532,-2.5669,-2.6589,-2.8166,-2.8021,-2.8427,-2.9219,-2.9761,-3.015,-3.0341,-2.9984,-2.9916,-2.9899,-2.882,0.0,0.0,0.0,0.0,0.0,-2.6759,-2.6623,-2.6725,-2.7088,-2.7652,-2.8208,-2.838,-2.9165,-3.0135,-3.1029,-3.1963,-3.2937,-3.3963,-3.4197,-3.4233,-3.4381,-3.4458,-3.4526,-3.4537,-3.5318,-3.579,0.0,0.0,-3.7702,-3.799,-3.8769,-3.9683,-4.0678,-4.089,-4.1277,0.0,0.0,0.0,0.0,0.0,0.0,-4.6171,0.0,-4.535,-4.6171,-4.6268,-4.6306,-4.6303,-4.6302,-4.6297,-4.6303,-4.6292,-4.6275,-4.6206,-4.6206,-4.6196,-4.6199,-4.6199,-4.6199,-4.6199,-4.6199,-4.6169,-4.6049,-4.5114,-4.4256,-4.3408,-4.2505,-4.2193,-4.226,-4.2135,-4.213,-4.2157,0.0,0.0,0.0,0.0,0.0,0.0,0.0,0.0,0.0,0.0,0.0,0.0,0.0,0.0,0.0,0.0,0.0,0.0,-1.6016,-1.6325,-1.698,-1.8017,-1.87,-1.9499,-2.0423,-2.1136,-2.2046,-2.3176,-2.3918,-2.4826,-2.5882,-2.6012,-2.665,-2.7661,-2.7541,-2.758,-2.7772,-2.8356,-2.8616,-2.8669,0.0,-2.915,-2.9004,0.0,0.0,0.0,0.0,0.0,0.0,0.0,0.0,-2.7548,-2.8335,-2.8887,-2.9354,-3.0044,-3.098,-3.1892,-3.2223,-3.3031,-3.3864,-3.4129,-3.4197,-3.4221,-3.4305,-3.393,-3.3591,-3.3756,-3.3564,-3.3367,0.0,0.0,0.0,-3.6967,-3.7944,0.0,-4.0657,-4.1461,0.0,-4.2168,0.0,-4.4403,-4.4857,-4.4707,0.0,0.0,-4.5485,-4.5079,-4.5241,-4.587,-4.6245,-4.6307,-4.6308,-4.6308,-4.6307,-4.6291,-4.629,-4.6275,-4.6226,-4.6195,-4.6196,-4.6196,-4.619,-4.6199,-4.6193,-4.5829,-4.5157,-4.4272,-4.3755,-4.3354,-4.1883,-4.2034,-4.3003,-4.2358,-4.2503,-4.2963,0.0,0.0,0.0,0.0,0.0,0.0,0.0,0.0,0.0,0.0,0.0,0.0,0.0,0.0,0.0,0.0,0.0,0.0,0.0,-1.7081,-1.7683,-1.8518,-1.9389,-2.0302,-2.1246,-2.2159,-2.3259,-2.4538,-2.4788,-2.5346,-2.6172,-2.5895,-2.6231,-2.7046,-2.689,-2.7218,-2.7908,-2.8119,0.0,0.0,0.0,0.0,0.0,0.0,0.0,0.0,0.0,0.0,0.0,0.0,0.0,-2.79,-2.8585,-2.9228,-2.9822,-3.0314,0.0,-3.259,-3.2641,-3.3408,-3.4123,-3.3751,-3.3658,-3.3608,-3.3324,-3.2944,-3.2705,-3.286,-3.2656,-3.2482,-3.2619,-3.3765,-3.5152,0.0,0.0,0.0,-4.0662,-4.13,-4.1913,0.0,-4.3685,0.0,-4.54,-4.5121,-4.5273,0.0,-4.546,-4.51,-4.5453,-4.5935,-4.6216,-4.6255,-4.6263,-4.6268,-4.6308,-4.63,-4.6303,-4.6303,-4.6258,-4.6228,-4.6195,-4.6209,-4.62,-4.619,-4.6193,-4.593,-4.5402,-4.4529,-4.3927,-4.3404,-4.2041,-4.2072,-4.2801,-4.2313,-4.2441,-4.2792,0.0,0.0,0.0,0.0,0.0,0.0,0.0,0.0,0.0,0.0,-1.8639,-1.842,0.0,0.0,0.0,0.0,0.0,0.0,0.0,0.0,0.0,-1.9408,-2.0288,-2.1179,-2.2121,-2.3121,-2.4374,-2.5953,-2.5455,-2.5562,-2.6244,-2.5543,-2.5627,-2.6343,-2.6168,-2.6927,0.0,0.0,0.0,0.0,0.0,0.0,0.0,0.0,0.0,0.0,0.0,0.0,0.0,0.0,-2.7968,-2.8027,-2.847,-2.921,-2.9963,-3.0206,-3.1426,-3.271,-3.2796,-3.3512,-3.4023,-3.3217,-3.3013,-3.282,-3.2057,-3.1872,-3.1882,-3.1955,-3.2098,-3.2222,-3.2283,-3.3803,-3.5378,-3.6311,0.0,-3.956,-4.051,-4.0795,-4.1543,-4.3287,-4.356,-4.4277,-4.6037,-4.5404,-4.5258,-4.6125,-4.5389,-4.5271,-4.614,-4.6199,-4.6204,-4.6199,-4.6209,-4.6244,-4.6308,-4.6306,-4.6297,-4.6292,-4.631,-4.6262,-4.6209,-4.6195,-4.6206,-4.6203,-4.619,-4.6125,-4.5962,-4.509,-4.4207,-4.3342,-4.2408,-4.2114,-4.2198,-4.2194,-4.2271,-4.2338,0.0,0.0,0.0,0.0,0.0,0.0,0.0,0.0,0.0,0.0,-1.8622,-1.7657,0.0,0.0,0.0,0.0,0.0,0.0,0.0,0.0,0.0,0.0,-2.0513,-2.1384,-2.2323,-2.322,-2.4182,-2.5183,-2.5197,-2.5339,-2.5563,-2.5432,-2.5441,-2.5596,-2.5499,-2.5584,0.0,0.0,0.0,0.0,0.0,0.0,0.0,0.0,0.0,0.0,0.0,0.0,0.0,0.0,-2.8097,-2.8403,-2.9412,-2.9873,-3.0356,-3.1788,-3.2439,-3.2883,-3.371,-3.4098,-3.4095,-3.3275,-3.3071,-3.2877,-3.2087,-3.1485,0.0,0.0,-3.0912,-3.0631,-3.0688,-3.2135,-3.3634,-3.4571,-3.6791,-3.8746,-3.9684,-4.0437,-4.1553,0.0,-4.3551,-4.4285,-4.6033,-4.5406,0.0,0.0,-4.5397,-4.528,-4.6154,-4.6196,-4.6192,-4.6194,-4.6255,-4.6293,-4.6305,-4.6305,-4.6308,-4.6297,-4.6293,-4.628,-4.6282,-4.6228,-4.6198,-4.6206,-4.6195,0.0,-4.5069,-4.4186,-4.3315,-4.2447,-4.1544,-4.1618,-4.2198,-4.2209,-4.263,-4.3089,0.0,0.0,0.0,0.0,0.0,0.0,0.0,-2.0223,-2.0209,-2.0196,-1.9444,-1.8873,-1.8759,-1.8715,-1.8548,0.0,0.0,0.0,0.0,0.0,0.0,0.0,0.0,0.0,0.0,-2.3746,-2.4854,-2.5723,0.0,-2.5518,-2.6025,-2.5631,-2.544,-2.5459,-2.5379,-2.5793,-2.6588,-2.7193,-2.7563,-2.7801,-2.8767,0.0,0.0,0.0,0.0,0.0,0.0,0.0,0.0,0.0,-2.8295,-2.8564,-2.9223,-2.9741,-3.0277,-3.1225,-3.209,-3.2773,-3.2834,-3.3226,-3.3315,-3.2054,-3.1745,-3.1533,-3.073,0.0,0.0,0.0,-3.0293,-3.0173,-3.028,-3.1725,0.0,-3.4106,-3.6097,-3.8005,-3.9402,-3.9961,-4.0874,-4.2612,-4.2854,-4.3558,-4.5291,-4.4686,-4.4744,-4.6098,-4.54,-4.5283,-4.616,-4.6199,-4.6206,-4.6203,-4.6233,-4.6255,-4.6254,-4.6279,-4.6307,-4.6307,-4.6301,-4.6295,-4.6306,-4.6223,-4.6203,-4.6198,-4.6195,-4.5715,-4.4835,-4.3958,-4.3091,-4.2208,-4.1344,-4.1521,-4.2252,-4.2218,-4.2447,-4.2723,0.0,0.0,0.0,0.0,0.0,0.0,-2.0192,-2.0196,-2.0201,-2.0201,-2.0209,-2.0187,-2.006,-1.9478,-1.9088,0.0,0.0,0.0,0.0,0.0,0.0,0.0,0.0,0.0,0.0,0.0,0.0,-2.6111,-2.556,0.0,0.0,0.0,0.0,0.0,-2.5416,-2.6077,-2.7238,-2.7221,-2.7803,0.0,0.0,-2.8705,0.0,0.0,0.0,0.0,0.0,0.0,0.0,0.0,-2.8445,-2.8625,-2.8834,-2.935,-2.9971,-3.0319,-3.1325,-3.2212,-3.1774,-3.2177,-3.2372,-3.0891,-3.0517,-3.0287,-2.9498,-2.9472,0.0,-2.9794,-2.9958,-3.0138,-3.0273,-3.1565,-3.2916,0.0,-3.5443,-3.7247,-3.9057,-3.9465,-4.0237,0.0,-4.2184,0.0,-4.4637,-4.4015,0.0,-4.5768,-4.5262,-4.5273,-4.6157,-4.6203,-4.6203,-4.6203,-4.6192,-4.6219,-4.6218,-4.6272,-4.6302,-4.6308,-4.6307,-4.6305,-4.6304,-4.6241,-4.6223,-4.6219,-4.6203,-4.5598,-4.4569,-4.3877,-4.2977,-4.1971,-4.1296,-4.1422,-4.2015,-4.1964,-4.1944,-4.1945,0.0,0.0,0.0,0.0,0.0,0.0,-2.0187,-2.0195,-2.0208,-2.0208,-2.026,-2.0256,-2.0192,-2.006,-1.9979,0.0,0.0,0.0,0.0,0.0,0.0,0.0,0.0,0.0,0.0,0.0,0.0,-2.5221,-2.5272,0.0,0.0,0.0,0.0,0.0,0.0,-2.5369,-2.5474,-2.6065,0.0,0.0,0.0,0.0,0.0,0.0,0.0,0.0,0.0,0.0,0.0,0.0,0.0,-2.8543,-2.8822,-2.9023,-2.937,-3.0316,0.0,0.0,-3.1656,-3.1845,-3.1621,-3.0805,-3.055,-3.0305,-2.9558,0.0,-2.9653,-2.9855,-2.9992,-3.0138,-3.0273,-3.1085,-3.2026,-3.2967,0.0,-3.6272,-3.8155,-3.9041,-4.017,-4.1989,0.0,0.0,-4.4612,-4.402,-4.3909,-4.4868,-4.4857,-4.5223,-4.6157,-4.6193,-4.6203,-4.6203,-4.6198,-4.6233,-4.6286,-4.6308,-4.6303,-4.6303,-4.6306,-4.6308,-4.6308,-4.6284,-4.6296,-4.6288,-4.6232,-4.5255,0.0,-4.363,-4.2659,-4.119,-4.1112,-4.11,-4.1124,-4.1101,-4.1108,-4.1099,0.0,0.0,0.0,0.0,0.0,0.0,-2.0187,-2.0201,-2.0199,-2.019,-2.0218,-2.0256,-2.0252,-2.0195,-2.0135,-2.0093,0.0,0.0,0.0,0.0,0.0,0.0,0.0,0.0,0.0,0.0,-2.455,-2.5107,-2.5198,0.0,0.0,0.0,0.0,0.0,0.0,-2.548,-2.5922,0.0,0.0,0.0,0.0,0.0,0.0,0.0,0.0,0.0,0.0,0.0,-2.6884,0.0,0.0,0.0,-2.8747,-2.9071,0.0,0.0,-3.0174,-3.0472,-3.0413,-3.0708,-3.085,-3.0065,-2.9837,-2.9726,-2.9558,0.0,-2.9725,-2.9969,-3.0094,-3.0192,-3.0273,-3.141,-3.2466,-3.2872,0.0,0.0,-3.7995,-3.8902,-3.9901,-4.1144,-4.1738,0.0,0.0,0.0,-4.4488,-4.5444,-4.5527,-4.5706,-4.6119,-4.6181,-4.6196,-4.6209,-4.6206,-4.6217,-4.6242,-4.6231,-4.6243,-4.6236,-4.5747,-4.5793,-4.6264,-4.5214,-4.5306,-4.6278,-4.5677,-4.4742,0.0,-4.3613,-4.261,-4.1095,-4.1103,-4.1075,-4.1068,-4.1,-4.0995,-4.0999,0.0,0.0,0.0,0.0,0.0,-2.0098,-2.0164,-2.0192,-2.0199,-2.0195,-2.0214,-2.0237,-2.0261,-2.0222,-2.0188,-2.0121,-2.0084,0.0,0.0,0.0,0.0,0.0,0.0,0.0,0.0,0.0,-2.4201,-2.5107,-2.5168,-2.5233,0.0,0.0,-2.5379,-2.5364,0.0,0.0,0.0,0.0,0.0,0.0,0.0,0.0,0.0,0.0,0.0,0.0,0.0,0.0,0.0,0.0,0.0,0.0,0.0,0.0,0.0,0.0,-2.982,-3.0124,-2.9622,-2.9871,-3.0137,-2.9599,-2.9429,-2.9423,0.0,0.0,-2.9544,-3.0,-2.9959,-2.9912,-3.0215,-3.1453,-3.252,0.0,0.0,-3.6643,-3.7604,-3.8704,-3.9625,0.0,0.0,-4.2193,0.0,-4.3619,-4.4518,-4.5506,-4.559,-4.5622,-4.5701,-4.6,-4.6185,-4.6196,-4.619,-4.6203,-4.6192,-4.6203,-4.6206,-4.6189,-4.5627,-4.5542,-4.5877,-4.4645,-4.4609,-4.5485,-4.4831,-4.4076,0.0,-4.3268,-4.2403,-4.1098,-4.1108,-4.11,-4.1095,-4.1058,-4.1029,-4.0992,0.0,0.0,0.0,0.0,0.0,-2.0011,-2.0088,-2.0164,-2.0193,-2.0193,-2.0264,-2.0265,-2.0211,-2.0192,-2.0199,-2.0197,-2.0209,0.0,0.0,0.0,0.0,0.0,0.0,0.0,0.0,0.0,-2.4157,-2.5107,-2.5168,-2.5228,-2.5292,-2.537,-2.5361,-2.5303,0.0,0.0,0.0,0.0,0.0,0.0,0.0,0.0,0.0,0.0,0.0,0.0,0.0,0.0,0.0,0.0,0.0,0.0,0.0,-2.7357,-2.8301,0.0,-2.954,-2.9617,-2.9672,-2.9617,-2.9521,-2.9588,-2.9598,-2.9617,0.0,0.0,-2.897,-2.9916,-2.946,-2.9185,-3.0032,-3.0911,-3.1814,-3.2743,0.0,0.0,-3.6761,-3.835,-3.9398,0.0,0.0,-4.1933,-4.2001,-4.2748,-4.3606,-4.4531,-4.4615,0.0,-4.4806,-4.5638,-4.6132,-4.6196,-4.6199,-4.6196,-4.6206,-4.6206,-4.6206,-4.6206,-4.6189,-4.5785,-4.5016,-4.4987,-4.4535,-4.3729,-4.371,-4.3214,0.0,-4.2414,-4.1892,-4.1098,-4.1098,-4.1094,-4.1106,-4.1103,-4.1058,-4.0992,0.0,0.0,0.0,0.0,0.0,0.0,-2.0144,-2.0182,-2.0223,-2.0264,-2.0253,-2.0238,-2.0261,-2.0261,-2.0249,-2.0197,-2.0153,0.0,0.0,0.0,0.0,0.0,0.0,0.0,0.0,-2.329,-2.36,-2.5025,-2.5145,-2.5206,-2.5239,-2.5257,-2.5248,-2.5233,-2.516,-2.507,0.0,0.0,0.0,0.0,0.0,0.0,0.0,0.0,0.0,0.0,0.0,0.0,0.0,0.0,0.0,0.0,0.0,0.0,0.0,-2.8603,-2.926,-2.9673,-2.969,-2.9672,-2.9504,-2.8978,-2.8818,-2.8674,-2.8288,-2.7994,-2.8093,-2.9091,-2.9069,-2.9166,-3.0032,-3.0911,-3.1793,-3.2694,-3.4275,0.0,0.0,0.0,0.0,-4.0087,-4.1671,-4.2722,0.0,0.0,-4.4694,-4.448,-4.5012,-4.5392,-4.548,-4.583,-4.6061,-4.6134,-4.5605,-4.5308,-4.5299,-4.5313,-4.5004,-4.4419,-4.4409,-4.4284,-4.3997,-4.2865,-4.2824,-4.3678,-4.3065,-4.2656,-4.2395,-4.2406,-4.1896,-4.1098,-4.1094,-4.1094,-4.1095,-4.1104,-4.1057,-4.0994,0.0,0.0,0.0,0.0,0.0,0.0,-2.0159,-2.0173,-2.0214,-2.026,-2.023,-2.0234,-2.0288,-2.0308,-2.0281,-2.0237,-2.0171,0.0,0.0,0.0,0.0,0.0,0.0,0.0,-2.3651,-2.3208,-2.3651,-2.5031,-2.5141,-2.5193,-2.5195,-2.5195,-2.5206,-2.5195,-2.5125,-2.5031,0.0,0.0,0.0,0.0,0.0,0.0,-2.3594,0.0,0.0,0.0,0.0,0.0,0.0,0.0,0.0,0.0,0.0,0.0,0.0,0.0,-2.82,-2.8946,-2.9592,-2.9779,-2.959,-2.8781,-2.8569,-2.8406,-2.7675,0.0,-2.7364,-2.8608,-2.8602,-2.8743,-2.994,-3.0826,-3.1585,-3.2204,-3.3745,0.0,0.0,0.0,0.0,-4.0781,0.0,0.0,0.0,-4.4104,-4.4564,-4.4795,-4.5335,-4.5696,-4.5798,-4.5906,-4.5983,-4.6017,-4.5267,-4.4865,-4.4904,-4.4565,-4.4143,-4.3601,-4.3591,-4.3448,-4.3106,-4.2073,-4.1993,-4.269,-4.2159,-4.1913,0.0,-4.1911,-4.1597,-4.111,-4.1108,-4.1106,-4.1104,-4.1099,-4.1062,-4.103,0.0,0.0,0.0,0.0,0.0,0.0,0.0,-2.0164,-2.0209,-2.0212,-2.0203,-2.0223,-2.0288,-2.0292,-2.0308,-2.0288,-2.0233,0.0,0.0,0.0,0.0,0.0,0.0,0.0,-2.3575,-2.367,-2.4157,-2.5095,-2.515,-2.5185,-2.5185,-2.5198,-2.519,-2.5201,-2.5112,-2.5012,-2.4884,-2.4704,-2.4543,-2.4407,-2.4273,-2.4061,0.0,0.0,0.0,0.0,0.0,0.0,0.0,0.0,0.0,0.0,0.0,0.0,0.0,0.0,0.0,0.0,0.0,-2.9783,-2.9556,-2.8806,-2.8669,-2.8481,-2.7544,-2.681,0.0,-2.8313,-2.8032,-2.8039,-2.9703,-3.0611,-3.1217,-3.1532,-3.2897,0.0,0.0,-3.7018,0.0,0.0,-4.0962,0.0,-4.3713,-4.3302,-4.3589,-4.5274,-4.5518,-4.564,-4.5765,-4.5841,-4.586,-4.5802,-4.5093,-4.4733,-4.4799,-4.3946,-4.349,-4.3426,-4.3481,-4.3082,-4.2298,-4.2295,-4.1866,0.0,-4.1034,-4.1044,-4.1091,-4.1033,-4.1052,-4.1092,-4.1092,-4.1093,-4.1092,-4.111,-4.1099,-4.1095,0.0,0.0,0.0,0.0,0.0,0.0,0.0,0.0,0.0,0.0,-2.0273,-2.0272,-2.0296,-2.0296,-2.0285,0.0,0.0,0.0,0.0,0.0,0.0,0.0,0.0,0.0,-2.276,-2.3385,-2.413,-2.503,-2.5101,-2.5132,-2.5126,-2.5125,-2.5125,-2.5114,-2.5057,-2.4973,-2.4884,-2.4783,-2.4684,-2.4551,-2.4449,-2.4329,0.0,0.0,0.0,0.0,-2.3894,-2.3915,0.0,0.0,0.0,0.0,0.0,0.0,0.0,0.0,-2.6223,-2.6759,-2.8445,0.0,-2.8024,-2.7894,-2.7419,-2.6772,0.0,-2.5613,-2.5753,0.0,0.0,0.0,0.0,-2.9827,-3.0818,-3.2183,0.0,-3.389,-3.6665,0.0,0.0,-3.9714,-4.072,-4.1383,-4.1288,-4.2814,-4.3972,-4.4394,-4.5055,-4.5485,-4.5566,-4.5723,-4.5548,-4.4911,-4.4141,-4.3756,-4.3826,-4.3027,-4.2275,-4.1617,-4.2298,-4.2158,-4.133,-4.1333,-4.1224,-4.0981,-4.0376,-4.0489,-4.1058,-4.0439,-4.054,-4.1108,-4.1108,-4.1108,-4.1107,-4.1093,-4.1093,-4.1105,0.0,0.0,0.0,0.0,0.0,0.0,0.0,0.0,0.0,0.0,-2.0258,-2.0277,-2.0308,-2.0308,-2.03,0.0,0.0,0.0,0.0,0.0,0.0,0.0,0.0,-2.1362,-2.1852,-2.3076,-2.3928,-2.4369,-2.4828,-2.5051,-2.5056,-2.5082,-2.5095,-2.5095,-2.4999,-2.4912,-2.4856,-2.4853,-2.4795,-2.47,-2.4681,0.0,0.0,0.0,0.0,0.0,-2.4049,-2.4019,0.0,-2.418,-2.4219,-2.4275,0.0,0.0,0.0,0.0,-2.548,-2.5744,-2.7091,-2.7775,-2.8099,-2.8108,-2.7812,-2.7224,-2.6021,-2.5741,0.0,0.0,0.0,0.0,0.0,-2.973,-3.0405,0.0,-3.1955,0.0,0.0,0.0,-3.9603,-3.9602,-4.045,-4.1167,0.0,-4.2699,-4.3818,-4.4562,-4.5093,-4.5429,-4.5495,-4.5635,-4.5503,-4.5063,-4.3923,-4.3149,-4.2853,-4.2024,-4.1386,-4.0909,-4.1395,-4.1375,-4.0948,-4.0956,-4.0945,-4.0906,-4.0104,-4.0259,-4.0983,-4.019,-4.0356,-4.11,-4.1102,-4.1103,-4.1103,-4.1106,-4.1092,-4.1094,0.0,0.0,0.0,0.0,0.0,0.0,0.0,0.0,0.0,0.0,0.0,0.0,0.0,0.0,0.0,0.0,0.0,0.0,0.0,0.0,0.0,0.0,-2.0763,-2.1177,-2.1116,-2.2672,-2.3536,-2.3622,-2.4416,-2.4885,-2.5003,-2.5063,-2.507,-2.5082,-2.4952,-2.487,-2.4834,-2.4891,-2.4889,-2.4843,-2.4896,0.0,0.0,0.0,0.0,0.0,0.0,0.0,0.0,-2.4228,-2.4284,-2.433,-2.4469,0.0,0.0,0.0,0.0,0.0,-2.5827,-2.7312,-2.8567,-2.8521,-2.8581,-2.8299,-2.6879,0.0,0.0,0.0,0.0,0.0,0.0,-2.9851,0.0,0.0,0.0,0.0,-3.6055,-3.7947,-3.9281,-3.9919,-4.0157,0.0,-4.2189,-4.2611,-4.3366,-4.4726,-4.5167,-4.5343,-4.5266,-4.5462,-4.5456,-4.5214,-4.3886,-4.2741,-4.1858,-4.1139,-4.0846,-4.0983,-4.0867,-4.0824,-4.0864,-4.0869,-4.0863,-4.0829,0.0,0.0,-4.0932,-4.0134,-4.0306,-4.1108,-4.1094,-4.11,-4.1104,-4.11,-4.1026,-4.0915,0.0,0.0,0.0,0.0,0.0,0.0,0.0,0.0,0.0,0.0,0.0,0.0,0.0,0.0,0.0,0.0,0.0,0.0,0.0,0.0,0.0,-2.0001,-2.077,-2.119,-2.117,-2.2111,-2.2968,-2.3676,-2.3891,-2.4334,-2.5003,-2.5005,-2.5024,-2.5017,-2.4931,-2.4924,-2.4971,-2.4985,-2.4973,-2.496,-2.4973,0.0,0.0,0.0,0.0,0.0,0.0,0.0,0.0,-2.4438,-2.443,-2.4421,-2.4549,0.0,0.0,0.0,0.0,0.0,-2.5783,-2.6797,-2.7608,-2.7604,-2.7616,-2.7558,-2.7304,-2.7247,-2.7285,0.0,0.0,0.0,0.0,-2.9455,-3.0404,0.0,0.0,-3.6501,0.0,0.0,-3.9496,-3.9079,0.0,-4.033,-4.0635,-4.1963,-4.2888,-4.3077,-4.4465,-4.4963,-4.4187,-4.4959,-4.4804,-4.3438,-4.3154,-4.229,-4.0769,-4.0733,-4.1092,-4.1813,-4.1135,-4.0781,-4.0724,-4.073,-4.0736,-4.0684,0.0,-4.0147,-4.0933,-4.0123,-4.0307,-4.1095,-4.1097,-4.1104,-4.1094,-4.1097,-4.0671,-4.0089,0.0,0.0,0.0,0.0,0.0,0.0,0.0,0.0,0.0,0.0,0.0,0.0,0.0,0.0,0.0,0.0,0.0,0.0,0.0,0.0,-2.0107,-2.0006,-2.0345,-2.0763,-2.1196,-2.2016,-2.2842,-2.3655,-2.422,-2.4645,-2.4957,-2.4952,-2.4952,-2.4938,-2.4898,-2.4924,-2.4957,-2.4972,-2.4999,-2.4993,0.0,0.0,0.0,0.0,0.0,0.0,0.0,0.0,0.0,0.0,-2.4482,-2.4474,-2.4574,0.0,0.0,0.0,0.0,0.0,-2.5196,-2.6258,-2.7285,-2.7296,-2.8037,-2.863,-2.8153,-2.8074,-2.8097,0.0,0.0,0.0,0.0,0.0,-3.1111,-3.3151,0.0,-3.6831,-3.7747,-3.8658,-3.9267,0.0,0.0,-4.0558,-4.1453,-4.2265,-4.3075,-4.3885,-4.4753,-4.5063,-4.4673,-4.509,-4.5016,-4.4317,-4.3378,-4.2754,-4.2455,-4.1173,-4.0757,-4.1181,-4.0821,-4.0635,-4.0642,-4.0642,-4.0668,-4.0655,0.0,-4.0073,-4.0889,-4.0081,-4.0276,-4.1057,-4.0574,-4.0697,-4.1094,-4.1109,-4.0862,-4.0555,0.0,0.0,0.0,0.0,0.0,0.0,0.0,0.0,0.0,0.0,0.0,0.0,0.0,0.0,0.0,0.0,0.0,0.0,0.0,-2.0208,-2.0158,-2.0035,-2.0016,-2.0394,-2.119,-2.1856,-2.2659,-2.3609,-2.441,-2.4841,-2.4919,-2.4891,-2.4771,-2.464,-2.4809,-2.4771,-2.464,-2.4889,-2.5018,-2.5025,0.0,0.0,0.0,0.0,0.0,0.0,0.0,0.0,0.0,0.0,0.0,0.0,0.0,0.0,0.0,-2.4692,-2.47,-2.47,-2.47,-2.5928,-2.7148,-2.6977,-2.8236,-2.9425,-2.8967,-2.8747,-2.8685,0.0,0.0,0.0,0.0,-3.0847,0.0,-3.3825,-3.5282,-3.6622,-3.7861,-3.8565,-3.921,-3.9878,-4.0077,-4.0632,-4.1865,-4.2402,-4.3088,-4.4072,-4.4771,-4.5105,-4.4936,-4.515,-4.5201,-4.5041,-4.3587,-4.3024,-4.3493,-4.1426,-4.0501,-4.0773,-4.0585,-4.0519,-4.0571,-4.0586,-4.0633,-4.0641,-4.0062,-4.022,-4.084,-4.0252,-4.0439,-4.1014,-4.0365,-4.0508,-4.1081,-4.0865,-4.0915,-4.1041,0.0,0.0,0.0,0.0,0.0,0.0,0.0,0.0,0.0,0.0,0.0,0.0,0.0,0.0,0.0,0.0,0.0,0.0,0.0,-2.0195,-2.0165,-2.0093,-2.0093,-2.044,-2.1181,-2.1253,-2.2085,-2.3682,-2.3822,-2.4271,-2.4986,-2.4877,-2.4448,-2.3815,-2.4497,-2.4429,-2.384,-2.4651,-2.505,-2.5101,-2.5088,0.0,0.0,0.0,0.0,0.0,0.0,0.0,0.0,0.0,0.0,0.0,0.0,0.0,-2.469,-2.4692,-2.47,-2.47,-2.47,-2.5928,-2.7025,-2.6258,-2.7313,-2.8697,-2.9457,-2.8997,-2.864,-2.9466,0.0,0.0,0.0,-3.2,-3.3097,-3.3254,-3.5379,-3.7054,-3.7167,0.0,-3.9739,-3.9815,-3.9943,-4.0064,-4.0178,-4.1656,-4.2313,-4.1621,-4.3767,-4.4726,-4.3869,-4.4695,-4.4808,-4.3942,-4.3191,-4.245,-4.1695,-4.0769,-4.0748,-4.1594,-4.0861,-4.0492,-4.0499,-4.0577,-4.0595,-4.0603,-4.0681,-4.074,-4.0804,-4.0885,-4.0944,-4.1016,-4.1011,-4.1035,-4.0994,-4.0194,-4.0418,-4.0878,0.0,0.0,0.0,0.0,0.0,0.0,0.0,0.0,0.0,0.0,0.0,0.0,0.0,0.0,0.0,0.0,0.0,0.0,0.0,-2.0208,-2.0173,-2.0093,-2.0098,-2.0444,-2.1187,-2.1724,-2.2836,-2.4518,-2.4531,-2.4708,-2.4993,-2.4355,-2.4228,-2.4504,-2.4183,-2.4228,-2.4529,-2.4865,-2.5031,-2.5101,-2.5095,-2.5126,0.0,0.0,0.0,0.0,0.0,0.0,0.0,0.0,-2.4564,-2.4564,-2.4564,-2.4639,-2.4703,-2.47,-2.47,-2.4707,-2.4749,-2.5963,-2.7006,-2.621,-2.7211,0.0,0.0,-2.9081,-2.9307,-2.9626,-2.9701,0.0,0.0,0.0,-3.3016,-3.4517,-3.5683,-3.6768,-3.7777,-3.858,-3.9236,-3.9747,-3.9848,-4.0089,-4.0691,-4.135,-4.2014,-4.2731,-4.3719,-4.4368,-4.45,-4.4874,-4.4711,-4.3885,-4.3058,-4.2233,-4.1455,-4.0645,-4.0435,-4.0825,-4.0532,-4.043,-4.0502,-4.0534,-4.0562,-4.0607,-4.0646,-4.0701,-4.0742,-4.0839,-4.0897,-4.0886,-4.0409,-3.9917,-3.9514,-3.9713,-4.0348,-4.1005,0.0,0.0,0.0,0.0,0.0,0.0,0.0,0.0,0.0,0.0,0.0,0.0,0.0,0.0,0.0,0.0,0.0,0.0,-2.0205,-2.0199,-2.0187,-2.0136,-2.0117,-2.0463,-2.1216,-2.2051,-2.3063,-2.4214,-2.4487,-2.4746,-2.4999,-2.4319,-2.4217,-2.4567,-2.4461,-2.4468,-2.4612,-2.5155,-2.5264,-2.507,-2.5095,-2.5139,0.0,0.0,0.0,0.0,0.0,0.0,0.0,0.0,-2.4613,-2.4639,-2.4615,-2.4645,-2.47,-2.47,-2.47,-2.4707,-2.4757,-2.5764,-2.6695,-2.6134,0.0,0.0,-2.8514,-2.9146,-2.9701,-2.9701,-3.0105,-3.0799,-3.1902,0.0,0.0,0.0,-3.5634,-3.6324,-3.7427,-3.7905,-3.8361,-3.8916,-3.9199,-3.9619,-4.0239,-4.0833,-4.1639,-4.2787,-4.3433,-4.4018,-4.4569,-4.4846,-4.4756,-4.4228,-4.3125,-4.2273,-4.1736,-4.071,-4.0215,-4.0263,-3.9995,-4.0067,-4.0441,-4.0458,-4.0499,-4.0569,-4.0565,-4.0612,-4.0668,-4.0736,-4.0823,-4.0854,-4.0315,-3.9773,-3.9357,-3.9977,-4.0595,-4.1017,0.0,0.0,0.0,0.0,0.0,0.0,0.0,0.0,-2.2231,-2.1492,-2.2154,0.0,0.0,0.0,0.0,0.0,0.0,0.0,-2.0192,-2.0205,-2.0199,-2.0196,-2.0141,-2.0459,-2.1263,-2.2076,-2.2494,-2.2505,-2.3397,-2.4214,-2.4984,-2.4927,-2.4479,-2.3784,-2.5376,-2.5194,-2.3828,-2.5484,-2.5725,-2.5018,-2.507,-2.5101,-2.5113,0.0,0.0,0.0,0.0,0.0,0.0,0.0,-2.465,-2.4692,-2.4613,-2.4645,-2.47,-2.47,-2.47,-2.47,-2.47,-2.5354,-2.6008,-2.6003,0.0,0.0,-2.8567,-2.9163,-2.9711,-2.9711,-3.0977,-3.2079,-3.2098,-3.3291,0.0,-3.4305,-3.5149,-3.5791,-3.5791,-3.66,-3.7194,-3.719,-3.7917,-3.8406,-3.8406,-4.0019,-4.1089,-4.1101,-4.27,-4.3682,-4.3682,-4.45,-4.4936,-4.4876,-4.338,-4.255,-4.2484,-4.0955,-4.0196,-4.0196,-3.9319,-3.9394,-4.0307,-4.037,-4.0432,-4.0502,-4.0492,-4.0542,-4.0595,-4.0668,-4.0771,-4.0873,-4.0956,-4.0979,-4.0974,-4.1044,-4.1061,-4.0842,0.0,0.0,0.0,0.0,0.0,0.0,0.0,0.0,-2.1564,-2.1298,-2.1564,0.0,0.0,0.0,0.0,0.0,0.0,0.0,-2.0211,-2.0152,-2.014,-2.0192,-2.0141,-2.0188,-2.0375,-2.0619,-2.1595,-2.3341,-2.4252,-2.4493,-2.4093,-2.408,-2.4251,-2.4605,-2.4466,-2.4499,-2.465,-2.5136,-2.5245,-2.507,-2.5095,-2.5139,-2.5174,0.0,0.0,0.0,0.0,0.0,0.0,0.0,0.0,0.0,-2.4676,-2.5105,-2.5485,-2.4876,-2.512,-2.5606,-2.5611,-2.6215,0.0,-2.6897,0.0,0.0,0.0,-2.9135,0.0,0.0,-3.0575,-3.1486,-3.1991,-3.2454,0.0,-3.4319,-3.4764,-3.5154,-3.5724,-3.604,-3.6427,-3.6981,-3.7722,-3.8209,-3.8245,-3.9306,-4.0275,-4.0981,-4.1562,-4.2139,-4.2742,-4.3031,-4.2898,-4.2318,-4.1859,-4.1342,-4.0756,-4.0233,-4.0036,-4.0137,-3.9811,-3.989,-4.0288,-3.9686,-3.9789,-4.0432,-4.0482,-4.0523,-4.0535,-4.06,-4.001,-3.9126,-3.9723,-3.9256,-3.8331,-3.8979,-3.9202,-3.9132,0.0,0.0,0.0,0.0,0.0,0.0,0.0,0.0,-2.2078,-2.173,-2.1488,-2.1646,0.0,0.0,0.0,0.0,0.0,0.0,0.0,-2.0139,-2.0126,-2.0192,-2.0141,-2.024,-2.0511,-2.0527,-2.1252,-2.2703,-2.3625,-2.396,-2.3746,-2.4062,-2.4499,-2.4992,-2.4819,-2.4833,-2.5018,-2.5378,-2.536,-2.5139,-2.5444,-2.5418,-2.5206,0.0,0.0,0.0,0.0,0.0,0.0,0.0,0.0,0.0,-2.4783,-2.5111,-2.5391,-2.4892,-2.5343,-2.6,-2.6005,-2.6347,0.0,-2.7568,-2.8498,-2.937,-2.9922,0.0,0.0,0.0,-3.1167,-3.2014,-3.2096,-3.2606,0.0,-3.4422,-3.455,-3.4697,-3.5248,-3.527,-3.5555,-3.6379,-3.7162,-3.7767,-3.8165,-3.8952,-3.9708,-4.0327,-4.0764,-4.125,-4.1765,-4.2177,-4.2185,-4.1681,-4.1359,-4.0964,-4.0477,-4.0114,-3.9975,-4.0057,-3.9713,-3.9784,-4.0252,-3.9709,-3.9794,-4.0335,-4.0424,-4.0485,-4.0491,-4.0546,-3.9843,-3.8783,-3.9301,-3.8704,-3.7646,-3.819,-3.8397,-3.8364,0.0,0.0,-2.4173,-2.4446,0.0,0.0,0.0,0.0,-2.3337,-2.2596,-2.1871,-2.2013,0.0,0.0,0.0,0.0,0.0,-2.0195,-2.0203,-2.0134,-2.0126,-2.0196,-2.0141,-2.0449,-2.1162,-2.117,-2.116,-2.1098,-2.2129,-2.2989,-2.3706,-2.4594,-2.5044,-2.5145,-2.5856,-2.578,-2.5165,-2.59,-2.576,-2.5158,-2.5901,-2.5768,-2.5189,-2.5989,0.0,0.0,0.0,0.0,0.0,0.0,0.0,0.0,-2.4917,-2.4869,-2.4828,-2.481,-2.5366,-2.6,-2.6,-2.6057,-2.648,-2.8022,-2.8563,0.0,-3.1748,-3.1787,-3.1298,-3.1148,0.0,-3.3236,-3.2378,-3.3353,-3.4368,-3.4561,-3.4495,-3.4461,-3.4561,-3.4484,-3.4689,-3.5483,-3.629,-3.7106,-3.7947,-3.8783,-3.9288,-3.9363,-4.0221,-4.0741,-4.0754,-4.164,-4.215,-4.2131,-4.1442,-4.1037,-4.095,-4.0314,-3.9948,-3.9861,-3.9207,-3.9344,-4.0176,-4.011,-4.012,-4.0205,-4.0239,-4.0309,-4.0367,-4.0292,-3.9822,-3.9167,-3.9314,-3.8831,-3.8059,-3.8207,-3.8218,-3.8051,0.0,0.0,-2.4172,-2.4456,0.0,0.0,0.0,0.0,0.0,-2.3295,0.0,0.0,0.0,0.0,0.0,0.0,-2.0775,-2.0196,-2.0209,-2.0135,-2.0135,-2.0203,-2.0131,-2.0154,-2.0282,-2.0287,-2.0262,-2.0252,-2.2492,-2.3324,-2.2821,-2.4296,-2.5378,-2.5994,-2.5507,-2.5558,-2.5988,-2.5546,-2.526,-2.5114,-2.5285,-2.5291,-2.5199,-2.5396,-2.5344,0.0,0.0,0.0,0.0,0.0,0.0,0.0,-2.4971,-2.5328,-2.5607,-2.4987,-2.5366,-2.6,-2.6,-2.6462,0.0,-2.8172,-2.9483,-3.0685,-3.1257,-3.2259,-3.2855,-3.2157,-3.2806,-3.3424,-3.3166,-3.3398,-3.3808,-3.4423,-3.4539,-3.4539,-3.4517,-3.445,-3.4472,-3.467,-3.5341,-3.6067,-3.6724,-3.7652,-3.8468,-3.9045,-3.9373,-3.9591,-3.9625,-3.9946,-4.0157,-4.0205,-4.0129,-3.9766,-3.9101,-3.9632,-3.9548,-3.8828,-3.9397,-3.9762,-3.9935,-3.9371,-3.9499,-4.0167,-3.9564,-3.934,-3.9358,-3.8722,-3.7989,-3.7343,-3.8038,-3.7456,-3.6263,-3.6967,-3.6816,-3.6256,0.0,0.0,0.0,0.0,0.0,0.0,0.0,0.0,0.0,0.0,0.0,0.0,0.0,0.0,0.0,0.0,-2.0642,-2.0178,-2.0192,-2.0145,-2.0126,-2.0153,-2.0093,-2.0035,-2.0006,-2.0006,-2.0181,-2.0568,-2.2367,-2.2976,-2.2547,-2.4645,-2.5651,-2.5722,-2.5698,-2.571,-2.5742,-2.5335,-2.5156,-2.5175,-2.5576,-2.55,-2.52,-2.5619,-2.5518,-2.5162,-2.5185,0.0,0.0,0.0,0.0,0.0,0.0,0.0,-2.5337,-2.4922,-2.5393,-2.6045,-2.6016,0.0,0.0,-2.9276,0.0,-3.0842,-3.2059,-3.2693,-3.2997,-3.2902,-3.3513,-3.3943,-3.3535,-3.374,-3.4135,-3.4601,-3.4645,-3.4602,-3.4602,-3.4484,-3.4531,-3.4882,-3.5169,-3.5808,-3.6911,-3.7368,-3.7973,-3.8832,-3.8942,-3.9027,-3.9151,-3.9285,-3.9414,-3.9551,-3.9647,-3.9528,-3.9127,-3.9607,-3.9607,-3.9127,-3.9607,-3.9878,-3.9862,-3.9142,-3.9089,-3.9528,-3.8735,-3.8425,-3.8446,-3.8033,-3.7375,-3.6699,-3.7182,-3.6629,-3.5605,-3.6105,-3.6018,-3.5657,0.0,0.0,0.0,0.0,0.0,0.0,0.0,0.0,0.0,0.0,0.0,0.0,0.0,0.0,-2.1472,0.0,0.0,0.0,-2.0183,-2.015,-2.0112,-2.0103,-2.005,-2.0006,-2.0006,-2.0006,-2.0399,-2.1218,-2.2085,-2.2635,-2.296,-2.5056,-2.591,-2.5716,-2.616,-2.6073,-2.5601,-2.5619,-2.5554,-2.5484,-2.63,-2.6186,-2.5608,-2.618,-2.5958,-2.5304,-2.5219,-2.5174,-2.518,-2.518,0.0,0.0,0.0,0.0,-2.4846,-2.4978,-2.5434,-2.5876,-2.5814,0.0,-2.7867,-3.0279,-3.0493,0.0,-3.2795,-3.292,-3.2807,-3.3402,-3.4154,-3.4499,-3.3821,-3.4223,-3.4676,-3.4848,-3.4737,-3.4645,-3.4676,-3.4495,-3.4577,-3.5206,-3.5079,-3.5546,-3.7044,-3.7129,-3.7491,-3.8456,-3.8603,-3.8733,-3.8931,-3.9059,-3.9237,-3.9452,-3.9526,-3.9566,-3.9562,-3.9705,-3.9705,-3.9562,-3.9705,-3.9815,-3.9851,-3.9123,-3.8899,-3.9052,-3.824,-3.7846,-3.7774,-3.763,-3.7108,-3.6381,-3.6439,-3.6053,-3.5481,-3.556,-3.559,-3.5606,0.0,0.0,0.0,0.0,0.0,0.0,0.0,0.0,0.0,0.0,-2.4575,-2.4306,0.0,-2.2855,-2.2068,-2.1366,-2.058,-2.0093,-2.0117,0.0,0.0,-2.0098,-2.0088,-2.0059,-2.0006,-2.0059,-2.0473,-2.1284,-2.2097,-2.3208,-2.4589,-2.4875,-2.6122,-2.8061,-2.6748,-2.6527,-2.721,-2.7312,-2.6956,-2.6406,-2.7197,-2.7465,-2.728,-2.6638,-2.6327,-2.613,-2.5374,-2.5114,-2.5113,-2.5113,-2.5107,0.0,0.0,0.0,-2.501,-2.5721,-2.552,-2.5047,-2.499,0.0,-2.7733,0.0,-3.0455,-3.1028,0.0,0.0,-3.3553,0.0,-3.4223,-3.4678,-3.4555,-3.4672,-3.4768,-3.4737,-3.4758,-3.4737,-3.4634,-3.4386,-3.4258,-3.4358,-3.4138,-3.4293,-3.5119,-3.5828,-3.6592,-3.7353,-3.8047,-3.8528,-3.8719,-3.8807,-3.8979,-3.9237,-3.935,-3.9152,-3.8599,-3.9331,-3.9331,-3.8599,-3.935,-3.9747,-3.9796,-3.9037,-3.9119,-3.9808,-3.9003,-3.829,-3.7659,-3.695,-3.6198,-3.5473,-3.548,-3.5469,-3.5427,-3.5489,-3.5554,-3.5616,0.0,0.0,0.0,0.0,0.0,0.0,0.0,0.0,0.0,0.0,0.0,-2.435,0.0,-2.3287,-2.2615,-2.1354,-2.0912,-2.0544,-2.0122,-2.058,-2.0633,-2.0131,-2.0535,-2.0525,-2.0006,-2.0034,-2.0671,-2.1977,-2.229,-2.3524,-2.5578,-2.5472,-2.6282,-2.7854,-2.756,-2.7468,-2.7495,-2.7481,-2.7361,-2.7198,-2.742,-2.7579,-2.7599,-2.7223,-2.6765,-2.6333,-2.6332,-2.6088,-2.5755,-2.5683,-2.5709,-2.5755,-2.5698,0.0,0.0,0.0,-2.5271,-2.5088,-2.5529,-2.6178,-2.7138,0.0,-2.9501,-3.0062,-3.1032,-3.2199,-3.3206,-3.3662,-3.4367,-3.4898,-3.484,-3.4849,-3.4849,-3.4809,-3.4817,-3.4737,-3.4517,-3.4316,-3.4148,-3.3998,-3.382,-3.3972,-3.4681,-3.5063,-3.5791,-3.7062,-3.748,-3.7942,-3.8556,-3.8686,-3.8851,-3.9078,-3.9245,-3.9246,-3.9024,-3.9406,-3.9369,-3.8896,-3.8413,-3.8703,-3.9644,-3.8499,-3.8186,-3.8553,-3.7747,-3.6967,-3.6213,-3.5895,-3.5567,-3.5239,-3.5245,-3.5281,-3.5345,-3.5422,-3.5483,-3.5547,0.0,0.0,0.0,0.0,0.0,0.0,0.0,0.0,0.0,0.0,0.0,0.0,0.0,0.0,0.0,0.0,-2.1592,-2.1189,-2.0459,-2.0818,-2.0761,-2.0092,-2.0653,-2.0672,-2.0006,-2.0,-2.0826,-2.2492,-2.2456,-2.3694,-2.6099,-2.5976,-2.6532,-2.7625,-2.8202,-2.8191,-2.7763,-2.7872,-2.7956,-2.8019,-2.8207,-2.8259,-2.8245,-2.8351,-2.7774,-2.6982,-2.7417,-2.7119,-2.6548,-2.6453,-2.6349,-2.621,-2.5907,-2.5475,0.0,0.0,0.0,-2.5546,0.0,0.0,-2.6686,-2.8313,-2.8784,-2.9266,0.0,0.0,-3.2792,0.0,-3.4393,-3.5043,-3.4717,-3.4784,-3.4889,-3.4878,-3.4809,-3.4666,-3.442,-3.4245,-3.4049,-3.3842,-3.3671,-3.38,-3.4375,-3.4525,-3.5232,-3.6721,-3.698,-3.7499,-3.8439,-3.859,-3.8747,-3.8979,-3.917,-3.9337,-3.9502,-3.9276,-3.9108,-3.8949,-3.7586,-3.7604,-3.8857,-3.777,-3.719,-3.7019,-3.6739,-3.6159,-3.5398,-3.547,-3.5354,-3.5191,-3.5196,-3.5234,-3.5285,-3.5364,-3.5301,-3.5181,0.0,0.0,0.0,0.0,0.0,0.0,0.0,0.0,0.0,0.0,0.0,0.0,-2.4456,-2.3824,-2.3378,-2.3285,-2.2695,-2.2014,-2.1295,-2.0579,-2.013,-2.0003,-2.0048,0.0,-2.0006,-2.0001,-2.0814,-2.2509,-2.2499,-2.3739,-2.6099,-2.6023,-2.6876,-2.8438,-2.8342,-2.8358,-2.8506,-2.9317,-2.9347,-2.8951,-3.0206,-3.0419,-3.0007,-3.0396,-2.9755,-2.8628,-2.835,-2.7815,-2.7269,-2.7301,-2.679,-2.6272,-2.7189,-2.6371,-2.5406,0.0,0.0,0.0,0.0,-2.6295,0.0,-2.8387,-2.8858,-2.9339,0.0,0.0,-3.2714,-3.2745,-3.4114,-3.5023,-3.4121,-3.4469,-3.487,-3.4821,-3.4699,-3.455,-3.4427,-3.4124,-3.3908,-3.3895,-3.3657,-3.3538,-3.3646,-3.4225,-3.5012,-3.5979,-3.6656,-3.7435,-3.8457,-3.851,-3.8664,-3.8979,-3.9059,-3.9232,-3.9502,-3.8677,-3.8203,-3.8063,-3.7154,-3.6795,-3.6951,-3.692,-3.6506,-3.5856,-3.6952,-3.6986,-3.6245,-3.6235,-3.5797,-3.5101,-3.5183,-3.5196,-3.5226,-3.5342,-3.4915,-3.4276,0.0,0.0,0.0,0.0,0.0,0.0,0.0,0.0,0.0,0.0,0.0,0.0,0.0,-2.4234,-2.39,-2.3369,-2.2217,-2.1199,-2.0445,-2.0695,-2.0617,-2.0029,-2.0532,-2.0577,-2.0006,-2.0006,-2.0814,-2.2509,-2.2505,-2.3468,-2.5338,-2.5797,-2.6314,-2.6927,-2.7829,-2.8624,-2.9313,-2.9961,-3.0312,-3.0446,-3.1318,-3.1619,-3.1488,-3.1146,-3.0352,-2.942,-2.9258,-2.8703,-2.8075,-2.8088,-2.7834,0.0,0.0,-2.7165,-2.6628,-2.6823,0.0,0.0,0.0,0.0,0.0,-2.7757,-2.8068,-2.856,-3.0256,-3.1343,-3.213,-3.267,-3.37,-3.4236,-3.331,-3.4087,-3.469,-3.4074,-3.4258,-3.4229,-3.3527,-3.3703,-3.3855,-3.3793,-3.3643,-3.3534,-3.3481,-3.372,-3.3981,-3.4196,-3.5504,-3.642,-3.6757,-3.7865,-3.8588,-3.881,-3.8862,-3.8734,-3.8361,-3.7517,-3.706,-3.6952,-3.561,-3.5569,-3.6649,-3.5708,-3.5441,-3.5698,-3.5657,-3.5517,-3.5342,-3.5382,-3.5286,-3.512,-3.5164,-3.5223,-3.5192,-3.4684,-3.4345,-3.4068,0.0,0.0,0.0,-2.3696,0.0,-2.3792,-2.3884,-2.4034,-2.4133,-2.4125,0.0,0.0,0.0,0.0,-2.4204,-2.3733,-2.2518,-2.1459,-2.0715,-2.1027,-2.0829,-1.9968,-2.0516,-2.0579,-2.001,-2.001,-2.0695,-2.2097,-2.208,-2.2892,-2.4508,-2.4956,-2.5465,-2.6083,-2.7321,-2.8408,-2.9369,-2.9979,-3.0442,-3.0846,-3.1674,-3.1927,-3.1845,-3.2012,-3.142,-3.05,-3.0346,-2.9803,-2.9092,-2.8885,0.0,0.0,0.0,-2.797,-2.7812,0.0,0.0,0.0,-2.6552,0.0,0.0,0.0,-2.7262,-2.7733,-2.9442,0.0,-3.0874,-3.1409,-3.2424,-3.2946,-3.1992,-3.3033,-3.3819,-3.3195,-3.3607,-3.3657,-3.2653,-3.2828,-3.3038,-3.2947,-3.3063,-3.3148,-3.311,-3.3317,-3.3516,-3.3671,-3.4769,0.0,-3.5768,-3.7223,-3.8269,-3.8735,-3.8549,-3.8184,-3.7663,-3.656,-3.5952,-3.5887,-3.4531,-3.451,-3.5591,-3.4649,-3.4536,-3.508,-3.4652,-3.458,-3.4747,-3.484,-3.4917,-3.5002,-3.5103,-3.5001,-3.4735,-3.4209,-3.3666,-3.3128,-2.3372,-2.3383,-2.3407,-2.3482,-2.3589,-2.3689,-2.3689,-2.3852,-2.3986,-2.3986,0.0,0.0,0.0,0.0,0.0,-2.4441,-2.3737,-2.2981,-2.2246,-2.1525,-2.0747,-1.9869,-1.9903,-1.9947,-1.9993,-1.9998,-2.0432,-2.1295,-2.1263,-2.2089,-2.3682,-2.3582,-2.4436,-2.6099,-2.686,-2.7719,-2.8611,-2.9406,-2.9835,-3.0063,-3.1337,-3.1512,-3.1193,-3.3069,-3.3007,-3.189,-3.1597,-3.1038,0.0,-2.9669,0.0,0.0,0.0,-2.882,-2.8875,0.0,0.0,0.0,0.0,0.0,0.0,0.0,0.0,0.0,-2.8679,0.0,-2.8996,-2.8996,-3.0341,-3.1224,-3.0245,-3.1282,-3.2269,-3.2202,-3.2726,-3.2818,-3.1788,-3.1507,-3.1403,-3.1403,-3.19,-3.2311,-3.2469,-3.3019,-3.3701,-3.4464,-3.4555,-3.4901,-3.5598,-3.6617,-3.7634,-3.8685,-3.8032,-3.7608,-3.7507,-3.585,-3.4954,-3.4847,-3.4064,-3.3698,-3.3698,-3.3847,-3.3895,-3.3908,-3.4111,-3.434,-3.4602,-3.4718,-3.4788,-3.4809,-3.4936,-3.4508,-3.3804,-3.392,-3.2879,-3.1415,-2.318,-2.3193,-2.3205,-2.3265,-2.3348,-2.343,-2.3476,-2.3638,-2.3768,0.0,0.0,0.0,-2.3986,-2.4036,-2.3886,-2.3454,-2.3266,-2.2844,-2.2095,-2.1964,-2.1514,-2.0626,-2.0709,-2.0493,-1.9945,-1.9984,-2.0402,-2.1233,-2.1849,-2.2647,-2.3639,-2.4181,-2.4696,-2.5223,-2.6631,-2.7459,-2.793,-2.9825,-3.096,-3.1563,-3.2464,-3.2956,-3.314,-3.319,-3.2931,0.0,0.0,-3.1604,-3.1229,0.0,-3.0001,-2.9573,0.0,-2.9577,-2.9539,0.0,0.0,0.0,-2.6668,0.0,0.0,0.0,0.0,0.0,-2.7841,-2.8556,-2.8996,-2.8944,-3.0753,-3.1699,-2.955,-3.0913,-3.172,-2.9729,-3.0928,-3.1793,-3.0893,-3.1084,-3.1327,-3.1327,-3.1381,-3.167,-3.2242,-3.2426,-3.2571,0.0,-3.3894,-3.4413,-3.399,-3.5454,-3.6416,-3.6609,-3.657,-3.6212,-3.5516,-3.5067,-3.4552,-3.3962,-3.3724,-3.3643,-3.3698,-3.3793,-3.3842,-3.3908,-3.4061,-3.4173,-3.4257,-3.4484,-3.4645,-3.4747,-3.4831,-3.4387,-3.3674,-3.3176,-3.2317,-3.1328,-2.302,-2.302,-2.3033,-2.3082,-2.3139,-2.3229,-2.3265,-2.3441,-2.3578,0.0,0.0,0.0,-2.4762,-2.4634,-2.4336,-2.394,-2.3704,-2.3252,-2.2514,-2.2564,-2.2242,-2.1442,-2.1482,-2.1154,-2.0381,-2.0426,-2.0513,-2.0662,-2.1524,-2.2351,-2.3121,-2.3895,-2.4644,-2.5386,-2.6359,-2.7256,-2.8125,-2.9527,-3.0689,-3.1666,-3.2381,-3.3007,-3.3525,-3.3315,-3.3247,0.0,0.0,0.0,-3.1875,-3.1154,-3.083,0.0,0.0,0.0,0.0,0.0,0.0,0.0,0.0,0.0,0.0,-2.651,0.0,0.0,-2.656,-2.7045,-2.7497,-2.7752,-2.8991,-2.9668,-2.8483,-2.9355,-2.9748,-2.8106,-2.8921,-2.9779,-2.9873,-3.0123,-3.0308,-3.0338,-3.0436,-3.073,-3.127,-3.1832,-3.2126,-3.2083,-3.3349,-3.4045,-3.39,-3.4857,-3.556,-3.5859,-3.5636,-3.525,-3.4709,-3.4378,-3.3989,-3.3563,-3.3591,-3.3647,-3.3698,-3.378,-3.3815,-3.3855,-3.3998,-3.4061,-3.4074,-3.4281,-3.4461,-3.4583,-3.467,-3.4241,-3.345,-3.2736,-3.1979,-3.1167,0.0,-2.2868,-2.2881,-2.2881,-2.2982,-2.307,-2.3082,-2.3241,-2.3419,0.0,-2.4373,-2.5219,-2.5997,-2.5538,-2.5168,-2.5186,-2.4569,-2.3897,-2.3252,-2.3283,-2.2998,-2.2255,-2.2219,-2.1875,-2.1135,-2.1199,-2.0866,-2.0136,-2.1016,-2.1815,-2.2518,-2.3272,-2.4471,-2.5944,-2.6053,-2.7032,-2.866,-2.8826,-2.9661,-3.0951,-3.1611,-3.2281,0.0,0.0,-3.3698,-3.3737,-3.2858,-3.2534,-3.2406,-3.1604,-3.1407,0.0,0.0,0.0,0.0,0.0,-2.8867,0.0,0.0,0.0,0.0,-2.5337,-2.5312,0.0,-2.5208,-2.5249,-2.5506,-2.6168,-2.6432,-2.6726,-2.7233,-2.7392,-2.7331,-2.6967,-2.696,-2.7483,-2.8859,-2.8801,-2.8716,-2.8964,-2.9245,-2.9595,-3.0032,-3.1148,-3.1974,-3.2208,-3.2969,-3.3745,-3.4516,-3.4504,-3.4861,-3.569,-3.4972,-3.456,-3.456,-3.38,-3.3437,-3.3509,-3.3563,-3.3633,-3.3698,-3.3766,-3.3775,-3.382,-3.3934,-3.3985,-3.3998,-3.4124,-3.4257,-3.4386,-3.4528,-3.3998,-3.3089,-3.2496,-3.1721,-3.086,-2.2672,-2.2659,-2.2672,-2.2725,-2.2764,-2.2816,-2.2914,-2.3052,-2.3422,-2.4131,-2.5086,-2.5756,-2.5912,-2.5349,-2.4982,-2.5027,-2.4429,-2.402,-2.3988,-2.3989,-2.3703,-2.3013,-2.298,-2.2635,-2.1905,-2.1943,-2.1875,-2.1665,-2.2534,-2.3041,-2.3221,-2.4072,-2.4647,-2.4994,-2.5717,-2.6643,-2.7725,-2.8491,-2.961,-3.0951,-3.1574,-3.2165,-3.2722,-3.3291,-3.3534,-3.3559,-3.3409,-3.3368,-3.324,-3.2443,-3.1832,-3.1341,0.0,0.0,0.0,-2.9501,0.0,0.0,0.0,0.0,0.0,0.0,-2.6072,0.0,-2.5254,-2.5622,-2.6128,-2.6267,-2.7341,-2.7831,-2.6529,-2.7409,-2.7633,-2.5452,-2.617,-2.7288,-2.8117,-2.7464,-2.7374,-2.8688,-2.8215,-2.8327,-2.9715,-3.0197,-3.0946,-3.2265,-3.3108,-3.3578,-3.3658,-3.3702,-3.3771,-3.389,-3.3789,-3.3717,-3.3658,-3.3465,-3.3437,-3.3509,-3.3506,-3.3591,-3.3698,-3.3712,-3.3753,-3.3788,-3.3881,-3.3921,-3.3921,-3.4011,-3.4124,-3.4257,-3.4393,-3.3541,-3.2254,-3.223,-3.1299,-3.0033,-2.2,-2.2268,-2.2528,-2.2579,-2.2592,-2.2646,-2.2777,-2.3206,-2.3706,-2.4277,-2.5554,-2.6542,-2.6908,-2.6389,-2.5841,-2.5469,-2.5199,-2.495,-2.4724,-2.4699,-2.4575,-2.4312,-2.3915,-2.3348,-2.2614,-2.2651,-2.2488,-2.2051,-2.2925,-2.3344,-2.3372,-2.4241,-2.488,-2.5324,-2.5726,-2.6631,-2.789,-2.842,-2.9415,-3.0679,-3.1613,0.0,-3.2997,-3.3622,-3.3823,-3.3775,-3.3716,-3.3611,-3.3422,-3.2904,-3.2657,0.0,-3.1444,-3.1436,-3.1435,0.0,-2.9239,-2.9005,0.0,0.0,0.0,-2.6975,0.0,0.0,0.0,-2.5683,-2.5811,-2.6176,-2.6517,-2.6609,-2.6098,-2.6341,-2.6022,-2.4297,-2.4659,-2.5401,-2.6114,-2.6751,-2.7596,-2.8849,-2.805,-2.7931,-2.9271,-2.9368,-3.0068,-3.1821,-3.2602,-3.299,-3.2952,-3.2896,-3.3034,-3.3452,-3.3452,-3.3437,-3.3393,-3.3393,-3.3437,-3.3509,-3.3534,-3.3372,-3.3054,-3.3108,-3.2928,-3.2575,-3.307,-3.3066,-3.2747,-3.3216,-3.3198,-3.2993,-3.3905,-3.3501,-3.2482,-3.2639,-3.1662,-3.0274,-2.1348,-2.1789,-2.2221,-2.2398,-2.2474,-2.2515,-2.2636,-2.335,-2.4101,-2.4669,-2.6091,-2.7341,-2.8124,-2.7642,-2.6999,-2.6356,-2.6295,-2.6008,-2.5372,-2.5216,-2.5199,-2.5344,-2.4604,-2.3925,-2.3314,-2.3358,-2.3066,-2.2412,-2.314,-2.3483,-2.3523,-2.4259,-2.4954,-2.5641,-2.5755,-2.6643,-2.8026,-2.8354,0.0,-3.0391,0.0,-3.2524,-3.3206,-3.395,-3.411,-3.3947,-3.3778,-3.355,-3.3349,-3.3165,-3.3357,-3.3464,-3.2279,-3.1908,0.0,0.0,0.0,0.0,0.0,0.0,0.0,0.0,0.0,-2.6423,0.0,0.0,0.0,-2.5842,0.0,0.0,0.0,0.0,0.0,0.0,0.0,0.0,0.0,-2.5727,0.0,-2.8564,-2.772,-2.7407,-2.8375,-2.8481,-2.9205,-3.0919,-3.1594,-3.1954,-3.2012,-3.2128,-3.2516,-3.3241,-3.335,-3.3393,-3.3393,-3.3393,-3.3437,-3.3509,-3.3549,-3.3172,-3.2397,-3.2504,-3.2078,-3.1325,-3.2082,-3.204,-3.1501,-3.2195,-3.2109,-3.1703,-3.3247,-3.3284,-3.2474,-3.281,-3.1888,-3.0463,-2.1097,-2.1231,-2.1529,-2.2116,-2.2335,-2.2422,-2.2432,-2.3213,-2.4427,-2.6114,-2.7083,-2.7965,-2.8891,-2.8287,-2.7802,-2.7769,-2.7228,-2.6588,-2.5864,-2.5265,-2.4993,-2.5132,-2.4533,-2.4163,-2.409,-2.4072,-2.4045,-2.3953,-2.4054,-2.4155,-2.4291,-2.4445,-2.4552,-2.4706,-2.5521,-2.63,0.0,0.0,-2.9166,0.0,-3.1406,-3.2096,0.0,-3.3898,-3.4002,-3.3466,-3.3378,-3.3337,-3.3292,0.0,-3.3327,-3.3478,0.0,-3.2679,-3.2493,-3.1174,0.0,0.0,0.0,0.0,0.0,0.0,-2.8035,0.0,0.0,0.0,-2.5789,-2.5091,0.0,0.0,0.0,0.0,0.0,0.0,0.0,0.0,-2.2606,-2.3273,-2.4577,-2.6646,-2.5998,-2.5684,-2.6449,-2.7252,-2.8182,-2.9287,-2.9923,-3.0287,-3.0274,-3.1488,-3.2262,-3.2428,-3.306,-3.3393,-3.3393,-3.3393,-3.3437,-3.3509,-3.3509,-3.313,-3.2397,-3.2411,-3.1986,-3.1219,-3.1323,-3.1318,-3.1245,-3.1336,-3.1356,-3.1457,-3.2588,-3.2117,-3.0869,-3.1671,-3.0945,-2.9543,-2.0887,-2.132,-2.1706,-2.2037,-2.2104,-2.2312,-2.2897,-2.4198,-2.5555,-2.6749,-2.7272,-2.7836,-2.865,0.0,0.0,0.0,0.0,-2.7743,0.0,0.0,-2.6157,-2.6261,-2.5649,-2.5096,-2.4673,-2.4658,-2.4521,-2.42,-2.4153,-2.4448,-2.505,-2.506,-2.5366,-2.5931,-2.674,0.0,-2.7963,0.0,-3.0092,0.0,0.0,-3.2916,0.0,-3.4115,-3.4081,-3.363,-3.3253,-3.3122,-3.3106,0.0,-3.3147,0.0,0.0,0.0,0.0,-3.1429,0.0,0.0,0.0,0.0,0.0,0.0,0.0,0.0,-2.7382,0.0,-2.5986,0.0,0.0,0.0,0.0,0.0,0.0,0.0,-2.1912,0.0,0.0,0.0,-2.2693,0.0,0.0,0.0,-2.4972,-2.6698,-2.7783,-2.7772,-2.8401,-2.8935,-2.929,-2.9882,-3.0643,-3.1515,-3.2303,-3.2488,-3.1999,-3.2469,-3.2719,-3.2762,-3.2787,-3.2383,-3.1583,-3.1669,-3.0985,-2.9793,-3.0287,-3.0245,-2.9885,-3.0797,-3.0664,-2.999,-3.1415,-3.1323,-3.0489,-3.1353,-3.0687,-2.9413,-2.0994,-2.138,-2.1663,-2.1907,-2.1926,-2.2319,-2.35,-2.4965,-2.6299,-2.7274,-2.754,0.0,-2.9052,-2.9271,0.0,0.0,-2.9062,-2.8779,0.0,0.0,-2.7046,-2.7255,-2.646,-2.5841,-2.5494,-2.5324,-2.507,-2.4691,-2.4701,-2.5053,-2.5721,-2.5784,-2.6047,-2.6541,0.0,-2.8032,-2.8188,0.0,-3.0625,-3.1411,-3.2325,-3.324,-3.4065,-3.4228,-3.4089,-3.3693,-3.3175,-3.3011,-3.2995,-3.2854,-3.2993,0.0,-3.2513,-3.237,-3.2316,0.0,0.0,0.0,-3.1071,0.0,0.0,0.0,0.0,0.0,0.0,0.0,0.0,0.0,0.0,0.0,0.0,0.0,0.0,0.0,0.0,-2.0945,0.0,-2.0463,0.0,0.0,0.0,0.0,0.0,-2.5811,-2.6743,-2.6484,-2.694,-2.7526,-2.8215,-2.859,-2.9392,-3.0716,-3.1465,-3.1691,-3.1329,-3.1691,-3.1981,-3.2198,-3.2018,-3.1492,-3.0672,-3.0765,-3.0155,-2.9014,-2.9446,-2.9404,-2.9149,-3.0095,-2.9944,-2.9192,-3.0202,-3.0461,-3.0324,-3.1008,-3.0401,-2.9365,-2.1615,-2.1275,-2.104,-2.1694,-2.1897,-2.2528,-2.413,-2.5023,-2.6166,0.0,0.0,0.0,0.0,0.0,0.0,0.0,0.0,-2.9506,-2.8608,0.0,-2.7074,0.0,0.0,-2.6098,0.0,-2.618,-2.5882,-2.5931,-2.6138,-2.6229,-2.6277,-2.6472,-2.6172,-2.5511,-2.7239,-2.7464,-2.6724,-2.9175,-3.0381,-3.0692,-3.144,-3.2495,-3.3665,0.0,-3.3924,-3.3378,-3.3088,0.0,0.0,-3.287,-3.293,0.0,0.0,0.0,0.0,0.0,0.0,0.0,0.0,0.0,0.0,-2.9868,0.0,0.0,0.0,0.0,-2.7623,0.0,0.0,0.0,0.0,0.0,0.0,0.0,0.0,0.0,0.0,0.0,0.0,0.0,0.0,0.0,0.0,-2.4188,-2.4554,0.0,-2.5538,-2.5887,-2.6809,-2.8099,-2.9217,-3.0106,-3.0711,-3.1401,-3.2144,-3.1415,-3.1419,-3.218,-3.1415,-3.0618,-2.9839,-2.9839,-2.9834,-2.9712,-2.8974,-2.9065,-2.9712,-2.8974,-2.9158,-2.9802,-2.907,-2.9326,-3.0125,-3.0287,-2.9864,-2.9218,-2.1491,-2.142,-2.1413,-2.169,-2.2102,-2.2943,-2.4613,-2.5681,0.0,0.0,-2.8066,0.0,0.0,-3.0662,-3.0733,0.0,0.0,-3.0001,-2.8681,-2.8264,0.0,0.0,0.0,-2.7465,0.0,0.0,-2.6685,-2.5737,-2.5942,-2.6345,-2.6971,-2.7113,-2.7385,-2.7738,0.0,-2.8624,0.0,0.0,0.0,0.0,0.0,-3.3978,-3.419,0.0,-3.4446,-3.3508,-3.3235,-3.2945,0.0,-3.2558,-3.2574,-3.2623,-3.2487,-3.2341,-3.2227,-3.2129,-3.1903,-3.1676,0.0,0.0,-3.1451,-3.0845,0.0,0.0,0.0,0.0,0.0,0.0,0.0,0.0,0.0,0.0,0.0,0.0,0.0,0.0,0.0,0.0,0.0,0.0,0.0,0.0,0.0,0.0,0.0,0.0,-2.4774,0.0,-2.5852,-2.6767,-2.7643,-2.8424,-2.9584,-3.0066,-2.9741,-3.0012,-3.0283,-3.0536,-3.0265,-3.0021,-2.9802,-2.9802,-2.946,-2.885,-2.8598,-2.8922,-2.9688,-2.9945,-2.9958,-2.9865,-3.0119,-2.979,-2.9186,-2.9331,-2.9272,-2.9163,-2.1663,-2.1761,-2.1743,-2.1683,0.0,0.0,0.0,0.0,0.0,0.0,-2.8744,0.0,-3.0646,0.0,-3.0967,0.0,-3.0836,-3.0352,-2.9331,-2.9151,0.0,-2.8204,-2.88,-2.8654,0.0,0.0,0.0,0.0,0.0,-2.6933,0.0,0.0,0.0,0.0,0.0,-2.8907,-2.9049,-3.0196,-3.0903,0.0,0.0,-3.4781,0.0,0.0,-3.4868,-3.3522,0.0,-3.305,-3.2539,-3.244,-3.2371,-3.2284,-3.209,-3.2073,-3.2055,-3.1965,-3.1929,-3.1929,-3.1929,-3.1929,0.0,-3.1234,-3.1173,0.0,-2.9882,0.0,-2.8481,0.0,0.0,0.0,0.0,0.0,0.0,0.0,0.0,0.0,0.0,-2.0017,0.0,0.0,0.0,0.0,0.0,0.0,0.0,0.0,0.0,0.0,0.0,-2.6219,-2.6935,-2.7688,-2.8816,-2.929,-2.9003,-2.9199,-2.9557,-3.0057,-2.9499,-2.9372,-2.9607,-2.935,-2.9062,-2.8739,-2.8452,-2.8788,-2.9574,-3.0132,-3.026,-3.0148,-3.0464,-3.0142,-2.9468,-2.9041,-2.8964,-2.91,-2.2069,-2.2244,-2.205,0.0,-2.2851,0.0,0.0,0.0,-2.8005,0.0,-3.0099,-3.0462,-3.1393,-3.1498,-3.1498,-3.1498,-3.0964,-3.059,-3.05,-3.0076,0.0,0.0,-2.9541,-2.9592,-2.9472,0.0,0.0,0.0,0.0,0.0,0.0,0.0,0.0,0.0,-2.836,0.0,-2.7683,-2.9778,-3.0585,-3.0744,-3.3406,-3.4818,-3.537,-3.6129,-3.5186,-3.3487,-3.3728,-3.333,-3.269,-3.2457,-3.2284,-3.2144,-3.1948,-3.1876,-3.184,-3.1654,-3.1598,-3.1598,-3.1598,-3.1579,-3.1484,-3.1046,-3.0906,0.0,0.0,0.0,-2.8877,0.0,0.0,0.0,0.0,0.0,0.0,0.0,0.0,0.0,0.0,0.0,-1.977,0.0,0.0,0.0,0.0,0.0,0.0,0.0,0.0,0.0,0.0,-2.6349,-2.7054,-2.7753,-2.8298,-2.8966,-2.9759,-2.8951,-2.9214,-3.0539,-2.9098,-2.8676,-2.9216,-2.8513,-2.8612,-2.929,-2.8526,-2.8633,-2.9397,-2.952,-3.0,-3.0568,-3.0017,-3.0229,-3.0699,-2.9331,-2.8929,-2.9078,-2.1933,-2.2472,-2.2883,0.0,-2.3856,-2.4801,0.0,0.0,0.0,0.0,-2.936,-2.9551,-3.1159,-3.1351,-3.1351,-3.1351,-3.1202,0.0,0.0,0.0,0.0,-2.9065,-2.9774,-2.9879,-2.9227,-2.9179,-2.9128,-2.9059,0.0,0.0,-2.8404,0.0,0.0,0.0,0.0,-2.8389,-2.8395,-2.9436,-3.0719,-3.2181,-3.3827,-3.4764,-3.5258,0.0,-3.5791,-3.4472,-3.4031,-3.3528,-3.2966,-3.2265,-3.1983,-3.1892,-3.1728,-3.1653,-3.1595,-3.1538,-3.1519,-3.1519,-3.1519,-3.1464,-3.1357,-3.123,-3.1197,-3.0992,0.0,0.0,0.0,0.0,0.0,0.0,0.0,0.0,0.0,0.0,0.0,0.0,0.0,0.0,0.0,-1.9706,0.0,0.0,0.0,0.0,0.0,0.0,0.0,0.0,0.0,0.0,-2.5907,-2.605,-2.671,-2.7331,-2.789,-2.7722,-2.8016,-2.8752,-2.8419,-2.8316,-2.8393,-2.8267,-2.8257,-2.8355,-2.8142,-2.8454,-2.9119,-2.9254,-2.9465,-2.9726,-2.9609,-2.9427,-2.9192,-2.8956,-2.8917,-2.8964,-2.2573,-2.2959,0.0,-2.4041,0.0,0.0,-2.7023,-2.7316,0.0,-3.0093,-2.9788,0.0,-3.0993,-3.1117,-3.1098,-3.1058,-3.1117,0.0,-3.049,0.0,0.0,-2.9372,-3.0251,-3.034,-2.9484,-2.9559,0.0,-2.9157,0.0,0.0,-2.8058,0.0,0.0,0.0,0.0,-2.83,-2.8438,-2.9419,-3.0831,-3.251,-3.3488,-3.4437,0.0,-3.5952,-3.5723,-3.493,-3.416,-3.3612,-3.3061,-3.2153,-3.1838,-3.1746,-3.1542,-3.1426,-3.1363,-3.1308,-3.1249,-3.123,-3.123,-3.1173,-3.1117,-3.1117,-3.1117,-3.0996,-3.0496,-3.0237,-2.9792,0.0,-2.7879,-2.7043,0.0,0.0,0.0,0.0,0.0,0.0,0.0,0.0,0.0,0.0,-1.9892,0.0,0.0,0.0,0.0,0.0,0.0,0.0,0.0,0.0,-2.5162,-2.5474,-2.6499,-2.7111,-2.7295,-2.7617,-2.8031,-2.8521,-2.8184,-2.8159,-2.8376,-2.8038,-2.785,-2.778,-2.778,-2.7997,-2.8388,-2.8876,-2.9107,-2.9151,-2.9283,-2.8971,-2.8458,-2.8625,-2.898,-2.9381,-2.3456,-2.3643,0.0,0.0,0.0,0.0,0.0,-2.8519,0.0,-3.0694,0.0,-3.0489,-3.0855,-3.0871,-3.081,-3.0712,0.0,-3.0858,-3.0744,-3.0958,-3.0769,-2.9995,-3.0718,-3.0771,-2.9998,-2.988,-2.9654,0.0,0.0,0.0,0.0,0.0,0.0,0.0,0.0,0.0,0.0,-2.9512,-3.0811,-3.2074,-3.2781,-3.3888,-3.5144,-3.5186,-3.512,-3.4877,-3.402,-3.347,-3.2987,-3.2077,-3.1744,-3.167,-3.1389,-3.1232,-3.1112,-3.0995,-3.0912,-3.0851,-3.0851,-3.0851,-3.0851,-3.0831,-3.0851,-3.0851,-3.0794,-3.0162,-2.9409,-2.8831,-2.8114,-2.7361,0.0,0.0,0.0,0.0,0.0,0.0,0.0,0.0,0.0,0.0,0.0,0.0,0.0,0.0,0.0,0.0,0.0,0.0,0.0,0.0,-2.4652,-2.5541,-2.677,-2.7383,-2.7356,-2.7941,-2.8465,-2.8897,-2.8135,-2.8085,-2.8596,-2.7855,-2.7496,-2.7496,-2.7496,-2.7496,-2.7548,-2.8378,-2.8706,-2.866,-2.884,-2.8663,-2.8338,-2.8569,-2.9317,-3.021,-2.3456,0.0,0.0,0.0,0.0,-2.7768,-2.7433,-2.7715,-2.8617,-3.0344,-2.9955,-2.9884,-3.0804,-3.0692,-3.0609,-3.0692,-3.0568,0.0,0.0,0.0,0.0,-3.0323,-3.0625,-3.0645,-3.041,-2.9812,-2.9789,0.0,0.0,0.0,0.0,0.0,0.0,0.0,0.0,0.0,-2.879,-2.947,0.0,-3.115,-3.2353,-3.3018,-3.3345,-3.3948,-3.4051,-3.3782,-3.3028,-3.273,-3.2588,-3.1814,-3.1443,-3.1288,-3.1249,-3.1015,-3.0773,-3.0753,-3.0671,-3.0568,-3.0568,-3.0568,-3.0568,-3.0485,-3.0526,-3.0526,-3.0359,-2.9914,-2.9287,-2.8464,-2.7852,-2.7013,-2.5628,0.0,0.0,0.0,0.0,0.0,0.0,0.0,0.0,0.0,0.0,-2.0656,0.0,0.0,0.0,0.0,0.0,0.0,0.0,0.0,-2.4015,0.0,-2.5648,-2.6197,0.0,0.0,-2.7603,-2.7939,-2.7783,-2.7712,-2.7718,-2.7581,-2.7496,-2.7496,-2.7496,-2.7483,-2.7423,-2.7635,-2.7764,-2.7809,-2.7912,-2.8317,-2.8953,-2.9766,-3.0615,-3.1252,-2.4385,0.0,0.0,0.0,0.0,0.0,0.0,-2.8217,-2.9108,-3.0197,-2.9899,-2.98,-3.0472,-3.0422,-3.0338,-3.0338,-3.0316,-3.0269,-3.0189,-3.0295,-3.0338,-3.0295,-3.038,-3.0401,-3.0338,-2.9992,-2.9877,-3.0041,0.0,0.0,0.0,0.0,0.0,0.0,0.0,-2.8408,0.0,0.0,0.0,-3.0731,-3.172,-3.2327,-3.2681,-3.2946,-3.2999,-3.2818,-3.2384,-3.2013,-3.1664,-3.1348,-3.123,-3.1171,-3.0992,-3.0773,-3.0589,-3.0547,-3.0443,-3.0338,-3.0338,-3.0338,-3.0338,-3.0295,-3.002,-2.9741,-2.9653,-2.9137,-2.8471,-2.7728,-2.7323,-2.6652,-2.5202,-2.4547,0.0,0.0,0.0,0.0,0.0,0.0,-2.208,0.0,0.0,0.0,0.0,0.0,0.0,0.0,0.0,-2.0646,-2.1482,0.0,-2.3051,0.0,0.0,0.0,-2.5906,0.0,-2.7072,-2.713,-2.7407,-2.7496,-2.7436,-2.7405,-2.7359,-2.7293,-2.7374,-2.7343,-2.7247,-2.7359,-2.7405,-2.7487,-2.7946,-2.839,-2.8887,-2.9818,-3.0735,-3.1491,0.0,-2.4852,0.0,0.0,-2.6181,-2.7124,-2.7739,-2.8815,-2.9704,-3.0081,-2.9957,-2.9919,-3.0167,-3.0146,-3.0081,-2.9973,-3.0038,-3.0033,-2.9886,-3.0017,-3.0103,-3.0124,-3.0103,-3.0103,-3.0124,-3.0103,-2.9889,0.0,0.0,0.0,0.0,0.0,0.0,0.0,0.0,0.0,0.0,0.0,-3.0405,-3.0626,-3.1147,-3.1684,-3.215,-3.2053,-3.1952,-3.1862,-3.1742,-3.1353,-3.0871,-3.0875,-3.0955,-3.0995,-3.0712,-3.0526,-3.038,-3.0316,-3.0248,-3.0141,-3.0141,-3.0124,-3.0103,-3.0098,-2.9543,-2.8988,-2.8983,-2.8237,-2.7416,-2.6941,-2.6678,-2.6135,-2.4938,-2.4906,0.0,0.0,0.0,0.0,0.0,0.0,0.0,0.0,0.0,0.0,-2.0842,0.0,0.0,0.0,0.0,-2.0021,-2.0942,-2.1596,-2.2407,0.0,0.0,-2.5219,-2.5225,0.0,-2.6772,-2.6616,-2.7148,-2.7392,-2.7409,-2.7297,-2.7201,-2.7119,-2.7217,-2.7217,-2.7152,-2.7233,-2.7336,-2.7559,-2.8194,-2.8674,-2.9102,-2.9843,-3.0724,-3.1603,0.0,0.0,0.0,0.0,0.0,0.0,-2.7955,-2.8595,-2.9328,-2.9788,-2.9913,-3.0038,-3.0189,-2.9979,-2.9832,-2.9832,-2.9776,-2.9697,-2.9563,-2.9675,-2.9776,-2.9832,-2.9776,-2.9792,-2.9832,-2.9776,-2.9744,0.0,0.0,-2.9185,0.0,0.0,0.0,0.0,0.0,0.0,0.0,-2.9924,-3.0289,-3.0871,-3.0918,-3.0986,-3.1053,-3.1033,-3.0951,-3.0849,-3.0829,-3.0779,-3.0692,-3.0522,-3.0506,-3.0547,-3.0459,-3.0253,-3.0038,-3.0038,-2.9989,-2.9924,-2.9924,-2.987,-2.981,-2.977,-2.9199,-2.863,-2.8571,-2.7453,-2.6427,-2.6379,-2.5924,-2.5306,-2.4565,-2.4515,-2.4189,0.0,0.0,0.0,0.0,0.0,-2.3522,-2.2329,0.0,0.0,-2.1633,-2.167,0.0,0.0,-1.9793,-2.0053,-2.0879,-2.1493,-2.2667,-2.4496,-2.4804,-2.5356,-2.6255,-2.6556,-2.6676,-2.6613,-2.715,-2.7392,-2.7392,-2.72,-2.7119,-2.7103,-2.7119,-2.7184,-2.7266,-2.7168,-2.7514,-2.8133,-2.8269,-2.9128,-3.0366,-3.0682,-3.1342,-3.2074,0.0,0.0,0.0,0.0,0.0,0.0,0.0,-2.8513,-2.892,-2.9113,-2.9464,-2.9726,-2.977,-2.9665,-2.9598,-2.9515,-2.9547,-2.9518,-2.9389,-2.9518,-2.9592,-2.9621,-2.9592,-2.9592,-2.9621,-2.9592,-2.9592,0.0,0.0,0.0,0.0,0.0,0.0,0.0,0.0,-2.9638,-3.0259,-3.0339,-3.0583,-3.0892,-3.0892,-3.0851,-3.0773,-3.0773,-3.0692,-3.0589,-3.0589,-3.0547,-3.0501,-3.0338,-3.038,-3.0464,-3.0231,-3.0038,-2.987,-2.982,-2.9748,-2.9653,-2.9653,-2.9637,-2.9598,-2.9586,-2.866,-2.7769,-2.7822,-2.6636,-2.554,-2.5675,-2.5435,-2.5144,-2.4872,-2.4808,-2.4459,-2.339,0.0,0.0,0.0,0.0,0.0,-2.2998,0.0,-2.3011,-2.2483,-2.1709,0.0,0.0,0.0,-2.0192,-2.0117,-2.1145,-2.22,-2.3236,0.0,-2.4893,-2.5493,-2.6011,-2.6256,-2.6184,-2.6855,-2.7185,-2.7215,-2.7087,-2.7054,-2.7103,-2.7023,-2.7072,-2.7168,-2.7071,-2.7467,-2.8186,-2.8665,-2.9503,-3.0513,-3.107,-3.1561,-3.1984,-2.7128,0.0,-2.6081,0.0,-2.6814,-2.71,-2.7707,-2.8227,-2.8581,-2.8653,-2.8998,-2.9291,-2.9428,-2.9405,-2.9321,-2.9175,-2.9305,-2.9298,-2.9098,-2.9206,-2.9314,-2.9382,-2.9344,0.0,-2.9434,-2.9405,-2.9405,-2.9434,-2.9525,0.0,0.0,0.0,0.0,0.0,-2.9551,-2.9968,-3.0422,-3.0506,-3.0609,-3.0692,-3.0692,-3.0651,-3.0609,-3.0568,-3.0526,-3.0464,-3.0422,-3.038,-3.0316,-3.0146,-3.0172,-3.0258,-2.9995,-2.982,-2.9694,-2.9675,-2.9541,-2.9434,-2.9434,-2.9389,-2.9321,-2.9321,-2.8348,-2.7332,-2.7227,-2.6156,-2.5178,-2.5112,-2.5009,-2.497,-2.5009,-2.4946,-2.461,-2.372,0.0,0.0,0.0,-2.2884,0.0,-2.3333,-2.326,-2.3083,-2.2761,-2.1918,0.0,0.0,0.0,-2.0604,-1.9856,-2.1102,0.0,0.0,0.0,0.0,-2.5052,-2.5554,-2.5844,-2.5877,-2.6583,-2.6974,-2.707,-2.7007,-2.7007,-2.7039,-2.6942,-2.6975,-2.7071,-2.7229,-2.7725,-2.8476,-2.9209,-2.9976,-3.0726,-3.1293,-3.1632,-3.1784,-2.6956,-2.6693,-2.6576,-2.6591,-2.6591,-2.6639,-2.679,-2.7622,-2.8308,-2.8573,-2.8597,-2.8787,-2.9259,-2.919,-2.9052,-2.8904,-2.9029,-2.8959,-2.8621,-2.8732,-2.8897,0.0,0.0,-2.9036,-2.9305,-2.9167,-2.9167,-2.9305,0.0,0.0,-2.9704,0.0,-2.9695,-2.9231,-2.9887,-3.0189,-3.0189,-3.021,-3.021,-3.021,-3.021,-3.029,-3.0396,-3.0253,-3.029,-3.038,-3.0253,-3.0189,-3.0167,-2.9897,-2.981,-2.981,-2.9726,-2.9608,-2.9496,-2.9496,-2.9412,-2.9305,-2.9305,-2.9106,-2.8904,-2.8904,-2.8294,-2.7515,-2.6867,-2.6174,-2.5482,-2.4765,-2.4609,-2.4666,-2.4782,-2.4686,-2.4431,-2.3896,0.0,0.0,0.0,-2.3045,0.0,-2.2958,-2.3551,-2.349,-2.2228,-2.2696,0.0,0.0,0.0,0.0,0.0,0.0,0.0,-2.2784,-2.4035,0.0,-2.5396,-2.5396,-2.5543,-2.5799,-2.6402,-2.6808,-2.6991,-2.6926,-2.6893,-2.6909,-2.6893,-2.6942,-2.7059,-2.7726,-2.8422,-2.9152,-2.9901,-3.0649,-3.1315,-3.1443,-3.1498,-3.15,-2.7519,-2.736,-2.7295,-2.7295,-2.736,-2.7394,-2.7345,-2.7754,-2.8054,-2.8063,-2.8137,-2.8284,-2.851,-2.8763,-2.885,0.0,-2.8826,-2.8803,0.0,-2.8747,-2.8842,-2.8873,-2.885,-2.8873,-2.8967,-2.892,-2.892,-2.8967,0.0,0.0,0.0,-2.9592,-2.9569,-2.9409,-2.9772,-2.9919,-2.9941,-3.0124,-3.0189,-3.0189,-3.0189,-3.0248,-3.0253,-3.0227,-3.0248,-3.0248,-3.0103,-3.0,-2.9913,-2.9776,-2.9621,-2.9448,-2.9328,-2.9275,-2.9229,-2.9229,-2.9091,-2.8967,-2.8967,-2.8834,-2.87,-2.87,-2.7775,-2.6836,-2.6619,-2.5564,-2.4443,-2.3897,-2.3852,-2.3931,-2.3973,-2.3873,-2.3646,-2.3259,-2.3151,0.0,-2.1711,0.0,-2.2931,-2.2604,-2.3217,-2.3452,-2.2901,-2.2621,0.0,0.0,0.0,0.0,0.0,0.0,0.0,0.0,-2.4547,0.0,-2.5752,-2.5805,-2.5823,-2.5858,-2.6284,-2.6572,-2.6742,-2.6708,-2.6725,-2.6758,-2.6725,-2.6792,-2.6977,-2.7623,-2.8334,-2.9114,-2.9841,-3.0569,-3.1232,-3.1269,-3.131,-3.137,-2.764,-2.7305,-2.7,-2.7,-2.7101,-2.7151,-2.7025,-2.744,-2.7755,-2.7665,-2.773,-2.7855,-2.8039,-2.8259,0.0,-2.8372,-2.8493,-2.8517,-2.8381,-2.8444,-2.8556,-2.8652,-2.8604,-2.8612,-2.8708,-2.8676,0.0,-2.8794,-2.8834,-2.8982,-2.9236,-2.9321,-2.9405,-2.9496,-2.9621,-2.9694,-2.9694,-2.9864,-2.9946,-2.9946,-2.9946,-2.9968,-3.0011,-2.9968,-2.9968,-2.9989,-2.9858,-2.9754,-2.9671,-2.9592,-2.9412,-2.9213,-2.9075,-2.8832,-2.8629,-2.8896,-2.8826,-2.8605,-2.8397,-2.8201,-2.8006,-2.7696,-2.6957,-2.6205,-2.5832,-2.4741,-2.3702,-2.3355,-2.3312,-2.3334,-2.3334,-2.3231,-2.3098,-2.2999,-2.2897,-2.2601,-2.1872,0.0,-2.2629,0.0,0.0,0.0,0.0,-2.257,-2.2361,0.0,0.0,0.0,0.0,0.0,-2.3165,-2.3448,-2.4745,-2.5531,-2.5715,-2.5754,-2.5772,-2.5789,-2.6154,-2.6417,-2.6571,-2.6571,-2.6589,-2.6607,-2.6572,-2.664,-2.6826,-2.7753,-2.8445,-2.9021,-3.0032,-3.0746,-3.119,-3.119,-3.123,-3.1274,-2.7376,-2.6695,-2.6092,0.0,-2.6203,0.0,-2.6103,-2.6809,-2.7401,-2.7401,-2.7401,-2.7478,-2.774,-2.7765,-2.779,-2.793,0.0,0.0,-2.798,-2.798,-2.8103,-2.8363,-2.8235,-2.8308,-2.8549,-2.8444,-2.8508,-2.8747,-2.8771,-2.8873,-2.9068,-2.9075,-2.9206,-2.945,-2.945,-2.945,-2.945,-2.9473,-2.9496,-2.9496,-2.9496,-2.9563,-2.9675,-2.9541,-2.9586,-2.9675,-2.9541,-2.9473,-2.945,-2.9305,-2.9159,-2.8973,-2.8841,-2.8256,-2.7758,-2.8514,-2.8496,-2.8143,-2.7636,-2.7303,-2.6916,-2.6145,-2.5917,-2.5614,-2.4611,-2.3792,-2.3216,-2.3061,-2.2926,-2.2822,-2.2822,-2.2731,-2.2717,-2.2994,-2.3038,-2.2937,-2.2631,-2.2574,-2.2527,0.0,0.0,0.0,-2.1406,-2.2555,-2.2809,0.0,0.0,0.0,0.0,0.0,-2.3111,-2.2984,-2.4735,-2.5589,-2.5397,-2.5413,-2.5454,-2.5605,-2.5974,-2.6276,-2.6468,-2.645,-2.6468,-2.6485,-2.6485,-2.6519,-2.6687,-2.8111,-2.8734,-2.8943,-3.0423,-3.1038,-3.1103,-3.1173,-3.119,-3.121,0.0,0.0,-2.692,-2.692,-2.6945,-2.6956,-2.692,-2.7104,-2.7258,-2.7258,-2.7258,-2.7284,-2.7335,-2.7335,-2.7361,-2.7386,-2.779,-2.8005,-2.7855,-2.793,-2.8029,-2.8094,-2.8054,-2.8079,-2.8128,-2.8103,-2.8177,-2.8332,-2.8444,-2.8565,-2.8716,-2.8826,-2.8897,-2.8983,-2.9029,-2.9036,-2.9059,-2.9259,-2.935,-2.935,-2.9473,-2.9518,-2.9541,-2.9518,-2.9518,-2.9541,-2.9412,-2.9282,-2.9167,-2.9036,-2.8575,-2.8037,-2.7922,-2.7394,-2.6914,-2.7666,-2.7426,-2.6925,-2.6725,-2.6329,-2.5928,-2.5755,-2.5118,-2.4322,-2.3486,-2.3036,-2.2754,-2.2472,-2.231,-2.2194,-2.2077,-2.203,-2.2077,-2.224,-2.2356,-2.2222,-2.1707,-2.2057,-2.2234,0.0,-2.2537,-2.2841,-2.232,-2.2828,-2.2874,0.0,0.0,-2.2769,-2.2645,-2.346,-2.386,-2.367,-2.4836,-2.5454,-2.5397,-2.5355,-2.5413,-2.5605,-2.5586,-2.5772,-2.6117,-2.6079,-2.6152,-2.6347,-2.6347,-2.6699,-2.7338,-2.8293,-2.8716,-2.8867,-3.0362,-3.0596,-3.0216,-3.0813,-3.1052,-3.1055,-2.7093,-2.7119,-2.7119,-2.7119,-2.7155,-2.7181,-2.7119,-2.7119,-2.7093,-2.7041,-2.7015,-2.7041,-2.7093,-2.7119,-2.7119,-2.7119,-2.7412,-2.763,-2.763,-2.768,-2.7755,-2.7815,-2.7815,-2.784,-2.7905,-2.7905,-2.798,-2.8103,-2.825,-2.8372,-2.8517,-2.8636,-2.8755,-2.8858,-2.8842,-2.8865,-2.8904,-2.9029,-2.9068,-2.9068,-2.9153,-2.9176,-2.9176,-2.9213,-2.9206,-2.9176,-2.9121,-2.8831,-2.8442,-2.8349,-2.7789,-2.7145,-2.707,-2.6583,-2.6081,-2.6273,-2.6305,-2.616,-2.5697,-2.5319,-2.4931,-2.4481,-2.3896,-2.3285,-2.2787,-2.2457,-2.2226,-2.2053,-2.1864,-2.1688,-2.1544,-2.1544,-2.1568,-2.1712,-2.1816,-2.1802,-2.1588,-2.1898,-2.2103,-2.2063,-2.253,-2.2817,-2.2705,-2.3079,-2.3153,-2.2696,-2.3142,0.0,-2.3028,-2.3884,-2.422,-2.3916,-2.4799,-2.5243,-2.522,-2.5182,-2.5259,-2.547,-2.5394,-2.5527,-2.5809,-2.5787,-2.5881,-2.6134,-2.6134,-2.6403,-2.6977,-2.8096,-2.8584,-2.8772,-3.0226,-3.06,-3.0355,-3.0801,-3.0955,-3.0972,-2.6806,-2.6846,-2.6873,-2.6873,-2.6948,-2.7,-2.6884,-2.6846,-2.6779,-2.6674,-2.6674,-2.67,-2.6806,-2.6846,-2.6873,-2.6846,-2.6948,-2.713,-2.7325,-2.735,-2.7412,-2.7524,-2.7549,-2.76,-2.7715,-2.7715,-2.779,-2.793,-2.7972,-2.8119,-2.8372,-2.8345,-2.8512,-2.8803,-2.8716,-2.874,-2.8803,-2.8779,-2.8771,-2.8771,-2.8794,-2.8794,-2.8803,-2.874,-2.8685,-2.8631,-2.8607,-2.8138,-2.7517,-2.7464,-2.6953,-2.632,-2.6247,-2.5777,-2.5179,-2.4773,-2.51,-2.544,-2.462,-2.429,-2.3953,-2.3012,-2.2655,-2.2486,-2.237,-2.2067,-2.1793,-2.1817,-2.1616,-2.1375,-2.1204,-2.1229,-2.1277,-2.1326,-2.143,-2.1583,-2.1802,0.0,-2.2109,-2.2465,-2.2658,-2.276,-2.2828,-2.3323,-2.3519,-2.3229,-2.3917,-2.4076,-2.3562,-2.4197,-2.4405,-2.3966,-2.4653,-2.5009,-2.4966,-2.4982,-2.508,-2.5256,-2.5256,-2.5355,-2.5549,-2.5562,-2.5656,-2.586,-2.5897,-2.6054,-2.6396,-2.7789,-2.8412,-2.8602,-3.0085,-3.0645,-3.0684,-3.0821,-3.0871,-3.0892,-2.6111,-2.6165,-2.6233,-2.6233,-2.6245,-2.6272,-2.6233,-2.6138,-2.6056,-2.6029,-2.6029,-2.6056,-2.6056,-2.6179,-2.6206,-2.6084,-2.6192,-2.65,-2.7029,-2.717,-2.7233,-2.7244,-2.7244,-2.7269,-2.7284,-2.7386,-2.7514,-2.765,-2.7233,-2.7428,-2.822,-2.7566,-2.762,-2.8308,-2.8308,-2.8308,-2.8317,-2.8525,-2.8636,-2.8636,-2.8747,-2.8794,-2.8732,-2.8131,-2.7874,-2.7812,-2.7368,-2.6983,-2.6696,-2.6674,-2.6136,-2.5472,-2.5415,-2.4869,-2.4198,-2.4012,-2.3914,-2.3821,-2.3585,-2.3319,-2.2975,-2.2315,-2.2194,-2.2231,-2.2091,-2.1926,-2.1817,-2.1949,-2.1746,-2.1471,-2.1106,-2.1302,-2.1423,-2.1106,-2.1315,-2.1503,-2.1561,0.0,-2.2295,-2.2188,-2.289,-2.3274,-2.3054,-2.3478,-2.3752,-2.371,-2.4173,-2.4349,-2.4091,-2.44,-2.4482,-2.4251,-2.4527,-2.4726,-2.4842,-2.4842,-2.4902,-2.506,-2.506,-2.5143,-2.5352,-2.5352,-2.5467,-2.5659,-2.5826,-2.6206,-2.679,-2.7797,-2.824,-2.8395,-2.9881,-3.0104,-2.9726,-3.0459,-3.0733,-3.0733,-2.5921,-2.5948,-2.5975,-2.5975,-2.5975,-2.5975,-2.5975,-2.5948,-2.5893,-2.5893,-2.5893,-2.5893,-2.5893,-2.5948,-2.5975,-2.5921,-2.5948,-2.6111,-2.6394,-2.6671,-2.6881,-2.6974,-2.713,-2.7207,-2.7207,-2.6918,-2.6777,-2.6852,-2.6335,-2.6519,-2.7331,-2.7037,-2.737,-2.821,-2.8113,-2.8137,-2.821,-2.8235,-2.8323,-2.835,-2.8067,-2.7976,-2.7969,-2.7309,-2.7045,-2.7014,-2.6873,-2.6492,-2.605,-2.5911,-2.5312,-2.4588,-2.4481,-2.4081,-2.3653,-2.348,-2.326,-2.3083,-2.3083,-2.2859,-2.254,-2.2208,-2.2114,-2.2067,-2.1926,-2.1722,-2.1616,-2.1746,-2.164,-2.1423,-2.1155,-2.1253,-2.1326,-2.1131,-2.1222,0.0,-2.1371,-2.191,-2.2245,-2.2118,-2.2805,-2.3312,-2.3363,-2.3538,-2.3732,-2.4003,-2.4208,-2.4271,-2.4103,-2.4276,-2.4338,-2.4234,-2.4482,-2.463,-2.4686,-2.4762,-2.4862,-2.5005,-2.5005,-2.506,-2.5139,-2.5139,-2.524,-2.5451,-2.5543,-2.5818,-2.6273,-2.7178,-2.7761,-2.8224,-2.935,-2.9857,-2.998,-3.039,-3.0568,-3.0609,-2.5674,-2.5702,-2.5729,-2.5729,-2.5729,-2.5729,-2.5729,-2.5702,-2.5702,-2.5702,-2.5702,-2.5702,-2.5702,-2.5702,-2.5674,-2.5647,-2.5647,-2.5647,-2.5647,-2.5947,-2.6285,-2.6594,-2.6791,-2.6849,-2.674,-2.6257,-2.5994,-2.5969,-2.5536,-2.5784,-2.6639,-2.6598,-2.7039,-2.7885,-2.7775,-2.78,-2.7885,-2.7699,-2.7779,-2.7953,-2.7333,-2.7106,-2.714,-2.6535,-2.6188,-2.605,-2.6006,-2.5642,-2.5124,-2.4915,-2.4414,-2.3882,-2.3732,-2.3566,-2.3377,-2.3157,-2.2889,-2.2686,-2.2754,-2.2609,-2.2394,-2.2161,-2.2067,-2.1973,-2.1793,-2.1568,-2.1447,-2.1568,-2.1496,-2.135,-2.118,-2.1229,-2.1253,-2.1118,0.0,-2.1212,-2.1298,-2.1823,-2.2197,-2.2193,-2.2761,-2.3246,-2.3458,-2.3494,-2.3661,-2.4024,-2.4103,-2.4082,-2.4003,-2.4103,-2.4166,-2.4202,-2.4421,-2.4549,-2.4584,-2.4666,-2.4802,-2.4946,-2.4946,-2.4982,-2.5005,-2.4982,-2.5041,-2.5178,-2.5392,-2.55,-2.5632,-2.6655,-2.7418,-2.7996,-2.8846,-2.965,-3.0375,-3.0396,-3.0422,-3.0506,-2.4962,-2.509,-2.5258,-2.5258,-2.5258,-2.5258,-2.5258,-2.5146,-2.5061,-2.5061,-2.5061,-2.5061,-2.5061,-2.5061,-2.5033,-2.4892,-2.4863,-2.4863,-2.4863,-2.5033,-2.537,-2.5948,-2.5975,-2.5788,-2.5353,-2.5423,-2.5406,-2.5277,-2.499,-2.5483,-2.6675,-2.6134,-2.6269,-2.7004,-2.6979,-2.6979,-2.696,-2.6639,-2.6897,-2.7418,-2.6856,-2.6636,-2.66,-2.5925,-2.528,-2.4672,-2.4056,-2.3736,-2.3561,-2.3466,-2.3524,-2.361,-2.3392,-2.3407,-2.3429,-2.3172,-2.2873,-2.2578,-2.2463,-2.2509,-2.2463,-2.1973,-2.1926,-2.1926,-2.1688,-2.1496,-2.1447,-2.1568,-2.1496,-2.1326,-2.1057,-2.1326,-2.141,-2.0908,0.0,0.0,-2.1404,-2.1859,-2.2301,-2.2526,-2.2979,-2.3246,-2.3149,-2.3371,-2.3538,-2.3653,-2.376,-2.3882,-2.3982,-2.4003,-2.4082,-2.4202,-2.4276,-2.438,-2.4498,-2.4518,-2.462,-2.4802,-2.4802,-2.4882,-2.5001,-2.4882,-2.4822,-2.4874,-2.5604,-2.5607,-2.5159,-2.6657,-2.7456,-2.7806,-2.854,-2.9398,-3.0248,-3.0338,-3.0401,-3.0417,-2.4706,-2.475,-2.4835,-2.4948,-2.4948,-2.4948,-2.4948,-2.4977,-2.4977,-2.4892,-2.4948,-2.5005,-2.5005,-2.5005,-2.4948,-2.4806,-2.4806,-2.475,-2.4677,-2.4734,-2.4991,-2.5564,-2.5271,-2.5006,-2.4822,-2.4547,-2.4388,-2.4336,-2.4303,-2.4782,-2.5697,-2.5483,-2.5828,-2.6654,-2.6654,-2.6707,-2.6756,-2.6243,-2.6512,-2.7195,-2.6164,-2.583,-2.5914,-2.5232,-2.4567,-2.3939,-2.3684,-2.3659,-2.3687,-2.3631,-2.3566,-2.3465,-2.3451,-2.326,-2.3052,-2.2925,-2.2752,-2.2555,-2.2324,-2.237,-2.2394,-2.202,-2.1902,-2.1793,-2.1544,-2.1447,-2.1423,-2.1471,-2.1375,-2.1277,-2.1253,-2.1166,-2.1055,-2.0945,0.0,-2.1029,-2.1237,-2.1586,-2.2027,-2.2526,-2.2859,-2.3127,-2.3334,-2.3444,-2.3538,-2.3595,-2.3653,-2.3696,-2.3739,-2.3839,-2.394,-2.4082,-2.4187,-2.4333,-2.4498,-2.4498,-2.4559,-2.4686,-2.4686,-2.469,-2.4751,-2.4706,-2.4686,-2.4717,-2.5477,-2.5507,-2.5084,-2.6075,-2.685,-2.7411,-2.7683,-2.8651,-2.9902,-2.9946,-3.0098,-3.0274,-2.452,-2.4563,-2.462,-2.4734,-2.4721,-2.4721,-2.4721,-2.4806,-2.4835,-2.475,-2.4806,-2.4863,-2.4863,-2.4835,-2.4736,-2.4664,-2.4607,-2.4534,-2.4447,-2.4447,-2.4664,-2.5189,-2.4641,-2.434,-2.4394,-2.3829,-2.3635,-2.3775,-2.3946,-2.4382,-2.5073,-2.5112,-2.5511,-2.6177,-2.5991,-2.5959,-2.5981,-2.5253,-2.5535,-2.641,-2.5393,-2.5101,-2.52,-2.4734,-2.4027,-2.3282,-2.3282,-2.3377,-2.3486,-2.3436,-2.3334,-2.3246,-2.3268,-2.3052,-2.2795,-2.2749,-2.2652,-2.2486,-2.2254,-2.2278,-2.2278,-2.1996,-2.1864,-2.1722,-2.152,-2.1471,-2.1423,-2.124,-2.1204,-2.1204,-2.1215,-2.0957,-2.0759,-2.0847,-2.0673,-2.0623,-2.0847,-2.1264,-2.1769,-2.2379,-2.2709,-2.3061,-2.3466,-2.3466,-2.3473,-2.3566,-2.348,-2.348,-2.3566,-2.3674,-2.3797,-2.394,-2.4082,-2.4229,-2.4395,-2.4436,-2.4482,-2.4584,-2.4584,-2.4569,-2.4609,-2.4569,-2.4584,-2.4631,-2.5549,-2.5654,-2.5219,-2.6209,-2.6941,-2.7497,-2.7518,-2.8403,-2.9653,-2.9697,-2.9858,-3.0065,-2.4334,-2.4463,-2.4591,-2.4591,-2.4591,-2.4591,-2.4591,-2.4591,-2.4591,-2.4591,-2.4591,-2.4591,-2.4591,-2.4421,-2.4292,-2.4292,-2.4187,-2.4083,-2.4083,-2.4083,-2.4316,-2.4778,-2.4074,-2.3739,-2.3877,-2.3299,-2.3245,-2.3697,-2.3959,-2.4407,-2.5005,-2.5118,-2.53,-2.5467,-2.4872,-2.4609,-2.4552,-2.3532,-2.3828,-2.4976,-2.4625,-2.4508,-2.4494,-2.4508,-2.3707,-2.2615,-2.2615,-2.2615,-2.2615,-2.2615,-2.2737,-2.2904,-2.2826,-2.2809,-2.2772,-2.2638,-2.2486,-2.237,-2.2231,-2.2208,-2.2137,-2.1864,-2.1793,-2.1746,-2.164,-2.1616,-2.1458,-2.0932,-2.1019,-2.1118,-2.0858,-2.0684,-2.0585,-2.0585,-2.0498,-2.0346,-2.0233,-2.0896,-2.1578,-2.2035,-2.2581,-2.3061,-2.3466,-2.3385,-2.3363,-2.3487,-2.326,-2.3216,-2.3487,-2.3545,-2.3674,-2.3797,-2.394,-2.4061,-2.4202,-2.4255,-2.4359,-2.4513,-2.4513,-2.4539,-2.4605,-2.4554,-2.4513,-2.4591,-2.5945,-2.6125,-2.5629,-2.7239,-2.7983,-2.8117,-2.8221,-2.8799,-2.9518,-2.9653,-2.9732,-2.9832,-2.4157,-2.4229,-2.4274,-2.4363,-2.4392,-2.4392,-2.4392,-2.452,-2.4549,-2.4421,-2.452,-2.4591,-2.4591,-2.4563,-2.452,-2.452,-2.4334,-2.4203,-2.4112,-2.4008,-2.4067,-2.4316,-2.3242,-2.2901,-2.3407,-2.2853,-2.2908,-2.3558,-2.4153,-2.456,-2.4734,-2.475,-2.4676,-2.4518,-2.4777,-2.4833,-2.4686,-2.3905,-2.4184,-2.5081,-2.4575,-2.4123,-2.3907,-2.4783,-2.4093,-2.2672,-2.3078,-2.3042,-2.2814,-2.2814,-2.2904,-2.3023,-2.2902,-2.2766,-2.2638,-2.2615,-2.244,-2.2231,-2.2114,-2.2067,-2.2044,-2.1973,-2.1864,-2.1746,-2.164,-2.1544,-2.1434,-2.1385,-2.1044,-2.0809,-2.0919,-2.0371,-1.9939,-2.0029,-1.9939,-1.9901,-2.0029,-2.0359,-2.0896,-2.1779,-2.2165,-2.2581,-2.315,-2.3341,-2.3422,-2.3363,-2.3275,-2.3187,-2.3083,-2.3363,-2.3538,-2.3596,-2.3754,-2.3903,-2.4061,-2.4166,-2.4501,-2.5068,-2.5068,-2.5352,-2.5874,-2.583,-2.583,-2.5892,-2.6846,-2.6853,-2.6273,-2.7337,-2.7786,-2.7832,-2.7854,-2.843,-2.9213,-2.9167,-2.9266,-2.947,-2.4083,-2.4083,-2.4141,-2.4203,-2.4232,-2.4232,-2.4232,-2.4319,-2.4361,-2.4232,-2.4332,-2.439,-2.439,-2.439,-2.4361,-2.4345,-2.4203,-2.4099,-2.4037,-2.3949,-2.3949,-2.4083,-2.3069,-2.2821,-2.3449,-2.2973,-2.2988,-2.3548,-2.4074,-2.4332,-2.439,-2.4237,-2.4086,-2.3932,-2.3824,-2.3892,-2.4034,-2.3195,-2.3511,-2.4509,-2.4247,-2.3773,-2.338,-2.45,-2.3924,-2.2589,-2.3044,-2.306,-2.2851,-2.2896,-2.2941,-2.3015,-2.2925,-2.2752,-2.2615,-2.2615,-2.2417,-2.2184,-2.2114,-2.2091,-2.2091,-2.2091,-2.1996,-2.1841,-2.1712,-2.1616,-2.1506,-2.1385,-2.1129,-2.0908,-2.0919,-2.0384,-1.9939,-2.0016,-1.9785,-1.9694,-1.9901,-2.0131,-2.0548,-2.1299,-2.1708,-2.2119,-2.2649,-2.3001,-2.3216,-2.3297,-2.3253,-2.3164,-2.3061,-2.3297,-2.3466,-2.3509,-2.3646,-2.3797,-2.3903,-2.4255,-2.4698,-2.5268,-2.5529,-2.592,-2.6402,-2.6402,-2.638,-2.6411,-2.7279,-2.7364,-2.7015,-2.7889,-2.8209,-2.8139,-2.817,-2.8505,-2.8975,-2.8905,-2.8982,-2.9152,-2.4083,-2.4083,-2.4083,-2.4083,-2.4083,-2.4083,-2.4083,-2.4083,-2.4083,-2.4083,-2.4083,-2.4083,-2.4083,-2.4083,-2.4067,-2.3949,-2.392,-2.392,-2.3891,-2.3891,-2.3949,-2.4083,-2.3446,-2.3363,-2.3907,-2.3438,-2.334,-2.3599,-2.375,-2.3872,-2.3992,-2.3587,-2.3424,-2.3497,-2.2418,-2.2349,-2.2936,-2.1905,-2.2244,-2.3515,-2.3717,-2.3415,-2.2913,-2.3833,-2.3447,-2.2431,-2.2738,-2.2815,-2.2795,-2.2857,-2.2902,-2.2888,-2.2888,-2.2752,-2.2615,-2.2592,-2.2394,-2.2208,-2.2208,-2.2208,-2.2208,-2.2208,-2.2114,-2.1996,-2.1817,-2.1793,-2.1626,-2.1115,-2.1177,-2.1215,-2.0833,-2.0535,-2.0346,-2.0346,-1.9939,-1.9656,-1.9773,-2.0118,-2.0434,-2.0759,-2.1226,-2.166,-2.2049,-2.2443,-2.2844,-2.3231,-2.3157,-2.3135,-2.3253,-2.3253,-2.3319,-2.3444,-2.3523,-2.3653,-2.3775,-2.4491,-2.5001,-2.5282,-2.5954,-2.6367,-2.6542,-2.6542,-2.6526,-2.6526,-2.7395,-2.7736,-2.7752,-2.8684,-2.8967,-2.8794,-2.8865,-2.8842,-2.8794,-2.8794,-2.8811,-2.8858,-2.4083,-2.4083,-2.4083,-2.4083,-2.4008,-2.3949,-2.3949,-2.3949,-2.3949,-2.3949,-2.4037,-2.4083,-2.4083,-2.4083,-2.4128,-2.4218,-2.4128,-2.4008,-2.392,-2.376,-2.376,-2.3949,-2.3997,-2.4042,-2.4067,-2.3394,-2.3225,-2.3599,-2.3209,-2.3119,-2.3236,-2.2721,-2.2376,-2.2154,-2.234,-2.2658,-2.2962,-2.2249,-2.2524,-2.3396,-2.308,-2.2637,-2.2327,-2.3631,-2.3402,-2.2464,-2.3008,-2.296,-2.2652,-2.2781,-2.2849,-2.2902,-2.2826,-2.2721,-2.2578,-2.2463,-2.2324,-2.2208,-2.2208,-2.2208,-2.2208,-2.2208,-2.2184,-2.2091,-2.1841,-2.1722,-2.1544,-2.1215,-2.0945,-2.0709,-2.051,-2.0182,-1.9927,-1.9927,-1.9824,-1.9773,-1.9798,-1.9888,-2.0105,-2.0585,-2.0833,-2.1202,-2.1817,-2.2282,-2.2672,-2.2957,-2.2971,-2.2918,-2.2917,-2.2963,-2.3001,-2.3038,-2.3238,-2.3429,-2.356,-2.4807,-2.5552,-2.5841,-2.6518,-2.7126,-2.7652,-2.7652,-2.7686,-2.7806,-2.8104,-2.8252,-2.8268,-2.8693,-2.8779,-2.866,-2.8779,-2.8803,-2.8794,-2.8684,-2.8645,-2.8653,-2.4008,-2.4067,-2.4054,-2.3907,-2.3891,-2.3861,-2.376,-2.376,-2.3789,-2.3891,-2.3949,-2.4037,-2.4083,-2.4083,-2.4141,-2.4203,-2.3982,-2.3848,-2.376,-2.3611,-2.3539,-2.3641,-2.4028,-2.4118,-2.3956,-2.367,-2.3554,-2.3599,-2.3007,-2.2738,-2.2798,-2.2102,-2.168,-2.1511,-2.1642,-2.1904,-2.2246,-2.1764,-2.201,-2.2689,-2.2704,-2.2394,-2.2047,-2.3262,-2.3158,-2.2459,-2.2833,-2.2817,-2.2615,-2.2675,-2.2721,-2.2752,-2.2735,-2.2606,-2.2486,-2.2417,-2.2301,-2.2208,-2.2208,-2.2208,-2.2208,-2.2208,-2.2208,-2.2137,-2.1864,-2.1746,-2.1664,-2.152,-2.1313,-2.1104,-2.0921,-2.0648,-2.0397,-2.0182,-2.0054,-1.9965,-1.9888,-1.9901,-1.9991,-2.0271,-2.0422,-2.0833,-2.164,-2.1969,-2.2342,-2.2777,-2.2867,-2.2881,-2.2843,-2.2881,-2.2926,-2.2986,-2.345,-2.3724,-2.3822,-2.5256,-2.6045,-2.6189,-2.701,-2.7597,-2.7995,-2.7995,-2.8029,-2.8128,-2.8299,-2.8411,-2.842,-2.87,-2.8708,-2.8597,-2.8684,-2.8676,-2.8604,-2.8517,-2.8453,-2.8405,-2.376,-2.3848,-2.3848,-2.3569,-2.3641,-2.3671,-2.3509,-2.348,-2.3539,-2.373,-2.3802,-2.3891,-2.4067,-2.4083,-2.4083,-2.4083,-2.3806,-2.3628,-2.3599,-2.3509,-2.3403,-2.336,-2.3793,-2.3914,-2.3754,-2.3855,-2.3809,-2.3569,-2.289,-2.2486,-2.2401,-2.1591,-2.1185,-2.1082,-2.077,-2.0912,-2.142,-2.1074,-2.1279,-2.1898,-2.2297,-2.2176,-2.1848,-2.2722,-2.2715,-2.2324,-2.244,-2.2532,-2.2555,-2.2555,-2.2578,-2.2615,-2.2555,-2.2463,-2.237,-2.237,-2.2278,-2.2184,-2.2184,-2.2208,-2.2208,-2.2208,-2.2208,-2.2137,-2.1902,-2.1817,-2.1793,-2.1746,-2.1712,-2.1616,-2.1337,-2.1204,-2.0997,-2.0612,-2.0372,-2.0207,-2.0093,-2.0067,-2.0042,-2.0093,-2.0207,-2.0611,-2.1385,-2.1616,-2.1945,-2.2549,-2.2709,-2.2834,-2.2958,-2.288,-2.2939,-2.3152,-2.3652,-2.3984,-2.4141,-2.5514,-2.6253,-2.6387,-2.7275,-2.7765,-2.793,-2.793,-2.793,-2.798,-2.8201,-2.8299,-2.8348,-2.8604,-2.8636,-2.8525,-2.8565,-2.8493,-2.8411,-2.8372,-2.8299,-2.8186,-2.3198,-2.3228,-2.3228,-2.3168,-2.309,-2.303,-2.3,-2.3,-2.306,-2.3198,-2.336,-2.3582,-2.3891,-2.4037,-2.4083,-2.4083,-2.3949,-2.3802,-2.3628,-2.3569,-2.3437,-2.3138,-2.3467,-2.3599,-2.345,-2.3318,-2.3288,-2.3433,-2.2715,-2.2099,-2.165,-2.1169,-2.0743,-2.0348,-2.0284,-2.0605,-2.1133,-2.0745,-2.1014,-2.1718,-2.1477,-2.1491,-2.164,-2.1914,-2.1948,-2.1902,-2.2044,-2.2231,-2.2417,-2.2417,-2.2486,-2.2578,-2.2463,-2.2347,-2.2231,-2.2231,-2.2137,-2.2067,-2.2184,-2.2208,-2.2208,-2.2208,-2.2208,-2.2161,-2.202,-2.1973,-2.1864,-2.1544,-2.135,-2.1191,-2.0932,-2.0835,-2.0749,-2.0687,-2.0562,-2.0461,-2.0436,-2.0296,-2.0233,-2.041,-2.0562,-2.0711,-2.0883,-2.1142,-2.152,-2.2053,-2.2217,-2.2574,-2.3207,-2.2864,-2.2904,-2.3426,-2.3213,-2.3356,-2.3923,-2.4875,-2.5658,-2.6248,-2.6948,-2.7397,-2.765,-2.765,-2.7715,-2.7815,-2.788,-2.7955,-2.8069,-2.8226,-2.8259,-2.8259,-2.8372,-2.8411,-2.8387,-2.8259,-2.821,-2.8186,-2.2987,-2.3047,-2.3047,-2.2909,-2.2878,-2.2878,-2.28,-2.28,-2.2848,-2.3078,-2.3168,-2.336,-2.37,-2.3878,-2.4037,-2.4083,-2.3979,-2.3772,-2.3522,-2.3378,-2.3138,-2.2714,-2.3108,-2.3271,-2.312,-2.3108,-2.3108,-2.312,-2.2379,-2.1952,-2.1831,-2.1297,-2.0964,-2.0754,-2.0611,-2.0599,-2.0709,-2.0528,-2.0653,-2.0989,-2.1139,-2.135,-2.1616,-2.1746,-2.1841,-2.1926,-2.2067,-2.2184,-2.2301,-2.2301,-2.2324,-2.237,-2.2301,-2.2208,-2.2114,-2.2184,-2.2067,-2.1926,-2.2067,-2.2091,-2.2091,-2.2091,-2.2137,-2.2184,-2.2137,-2.1996,-2.1817,-2.1568,-2.135,-2.1131,-2.0945,-2.0959,-2.0923,-2.0724,-2.0724,-2.0699,-2.0537,-2.0473,-2.0422,-2.0486,-2.0537,-2.0662,-2.0823,-2.0997,-2.1253,-2.164,-2.1926,-2.2203,-2.2444,-2.2395,-2.2498,-2.2767,-2.3073,-2.3596,-2.4346,-2.5199,-2.5966,-2.6641,-2.7023,-2.731,-2.7488,-2.7488,-2.7549,-2.7675,-2.7765,-2.7815,-2.789,-2.8113,-2.821,-2.821,-2.8348,-2.8348,-2.8259,-2.8152,-2.8039,-2.7965]},{"header":{"parameterUnit":"m.s-1","parameterCategory":1,"la1":30.6,"la2":28.766,"lo1":-90.7593,"lo2":-88.6598,"dy":0.0162,"dx":0.0183,"nx":116,"ny":114,"refTime":"2024-04-19T12:00:00:Z","depth":0,"parameterNumber":3,"parameterNumberName":"V-component_of_WINDS"},"data":[0.0,0.0,0.0,0.0,0.0,0.0,0.0,0.0,0.0,0.0,0.0,0.0,0.0,0.0,0.0,0.0,0.0,0.0,0.0,0.0,0.0,0.0,0.0,0.0,0.0,0.0,0.0,0.0,0.0,0.0,0.0,0.0,0.0,0.0,0.0,0.0,0.0,0.0,0.0,0.0,0.0,0.0,0.0,0.0,0.0,0.0,0.0,0.0,0.0,0.0,0.0,0.0,0.0,0.0,0.0,0.0,0.0,0.0,0.0,0.0,0.0,0.0,0.0,0.0,0.0,0.0,0.0,0.0,0.0,0.0,0.0,0.0,0.0,0.0,0.0,0.0,0.0,0.0,0.0,0.0,0.0,0.0,0.0,0.0,0.0,0.0,0.0,0.0,0.0,0.0,0.0,0.0,0.0,0.0,0.0,0.0,0.0,0.0,0.0,0.0,0.0,0.0,0.0,0.0,0.0,0.0,0.0,0.0,0.0,0.0,0.0,0.0,0.0,0.0,0.0,0.0,0.0,0.0,0.0,0.0,0.0,0.0,0.0,0.0,0.0,0.0,0.0,0.0,0.0,0.0,0.0,0.0,0.0,0.0,0.0,0.0,0.0,0.0,0.0,0.0,0.0,0.0,0.0,0.0,0.0,0.0,0.0,0.0,0.0,0.0,0.0,0.0,0.0,0.0,0.0,0.0,0.0,0.0,0.0,0.0,0.0,0.0,0.0,0.0,0.0,0.0,0.0,0.0,0.0,0.0,0.0,0.0,0.0,0.0,0.0,0.0,0.0,0.0,0.0,0.0,0.0,0.0,0.0,0.0,0.0,0.0,0.0,0.0,0.0,0.0,0.0,0.0,0.0,0.0,0.0,0.0,0.0,0.0,0.0,0.0,0.0,0.0,0.0,0.0,0.0,0.0,0.0,0.0,0.0,0.0,0.0,0.0,0.0,0.0,0.0,0.0,0.0,0.0,0.0,0.0,0.0,0.0,0.0,0.0,0.0,0.0,0.0,0.0,0.0,0.0,0.0,0.0,0.0,0.0,0.0,0.0,0.0,0.0,0.0,0.0,0.0,0.0,0.0,0.0,0.0,0.0,0.0,0.0,0.0,0.0,0.0,0.0,0.0,0.0,0.0,0.0,0.0,0.0,0.0,0.0,0.0,0.0,0.0,0.0,0.0,0.0,0.0,0.0,0.0,0.0,0.0,0.0,0.0,0.0,0.0,0.0,0.0,0.0,0.0,0.0,0.0,0.0,0.0,0.0,0.0,0.0,0.0,0.0,0.0,0.0,0.0,0.0,0.0,0.0,0.0,0.0,0.0,0.0,0.0,0.0,0.0,0.0,0.0,0.0,0.0,0.0,0.0,0.0,0.0,0.0,0.0,0.0,0.0,0.0,0.0,0.0,0.0,0.0,0.0,0.0,0.0,0.0,0.0,0.0,0.0,0.0,0.0,0.0,0.0,0.0,0.0,0.0,0.0,0.0,0.0,0.0,0.0,0.0,0.0,0.0,0.0,0.0,0.0,0.0,0.0,0.0,0.0,0.0,0.0,0.0,0.0,0.0,0.0,0.0,0.0,0.0,0.0,0.0,0.0,0.0,0.0,0.0,0.0,0.0,0.0,0.0,0.0,0.0,0.0,0.0,0.0,0.0,0.0,0.0,0.0,0.0,0.0,0.0,0.0,0.0,0.0,0.0,0.0,0.0,0.0,0.0,0.0,0.0,0.0,0.0,0.0,0.0,0.0,0.0,0.0,0.0,0.0,0.0,0.0,0.0,0.0,0.0,0.0,0.0,0.0,0.0,0.0,0.0,0.0,0.0,0.0,0.0,0.0,0.0,0.0,0.0,0.0,0.0,0.0,0.0,0.0,0.0,0.0,0.0,0.0,0.0,0.0,0.0,0.0,0.0,0.0,0.0,0.0,0.0,0.0,0.0,0.0,0.0,0.0,0.0,0.0,0.0,0.0,0.0,0.0,0.0,0.0,0.0,0.0,0.0,0.0,0.0,0.0,0.0,0.0,0.0,0.0,0.0,0.0,0.0,0.0,0.0,0.0,0.0,0.0,0.0,0.0,0.0,0.0,0.0,0.0,0.0,0.0,0.0,0.0,0.0,0.0,0.0,0.0,0.0,0.0,0.0,0.0,0.0,0.0,0.0,0.0,0.0,0.0,0.0,0.0,0.0,0.0,0.0,0.0,0.0,0.0,0.0,0.0,0.0,0.0,0.0,0.0,0.0,0.0,0.0,0.0,0.0,0.0,0.0,0.0,0.0,0.0,0.0,0.0,0.0,0.0,0.0,0.0,0.0,0.0,0.0,0.0,0.0,0.0,0.0,0.0,0.0,0.0,0.0,0.0,0.0,0.0,0.0,0.0,0.0,0.0,0.0,0.0,0.0,0.0,0.0,0.0,0.0,0.0,0.0,0.0,0.0,0.0,0.0,0.0,0.0,0.0,0.0,0.0,0.0,0.0,0.0,0.0,0.0,0.0,0.0,0.0,0.0,0.0,0.0,0.0,0.0,0.0,0.0,0.0,0.0,0.0,0.0,0.0,0.0,0.0,0.0,0.0,0.0,0.0,0.0,0.0,0.0,0.0,0.0,0.0,0.0,0.0,0.0,0.0,0.0,0.0,0.0,0.0,0.0,0.0,0.0,0.0,0.0,0.0,0.0,0.0,0.0,0.0,0.0,0.0,0.0,0.0,0.0,0.0,0.0,0.0,0.0,0.0,0.0,0.0,0.0,0.0,0.0,0.0,0.0,0.0,0.0,0.0,0.0,0.0,0.0,0.0,0.0,0.0,0.0,0.0,0.0,0.0,0.0,0.0,0.0,0.0,0.0,0.0,0.0,0.0,0.0,0.0,0.0,0.0,0.0,0.0,0.0,0.0,0.0,0.0,0.0,0.0,0.0,0.0,0.0,0.0,0.0,0.0,0.0,0.0,0.0,0.0,0.0,0.0,0.0,0.0,0.0,0.0,0.0,0.0,0.0,0.0,0.0,0.0,0.0,0.0,0.0,0.0,0.0,0.0,0.0,0.0,0.0,0.0,0.0,0.0,0.0,0.0,0.0,0.0,0.0,0.0,0.0,0.0,0.0,0.0,0.0,0.0,0.0,0.0,0.0,0.0,0.0,0.0,0.0,0.0,0.0,0.0,0.0,0.0,0.0,0.0,0.0,0.0,0.0,0.0,0.0,0.0,0.0,0.0,0.0,0.0,0.0,0.0,0.0,0.0,0.0,0.0,0.0,0.0,0.0,0.0,0.0,0.0,0.0,0.0,0.0,0.0,0.0,0.0,0.0,0.0,0.0,0.0,0.0,0.0,0.0,0.0,0.0,0.0,0.0,0.0,0.0,0.0,0.0,0.0,0.0,0.0,0.0,0.0,0.0,0.0,0.0,0.0,0.0,0.0,0.0,0.0,0.0,0.0,0.0,0.0,0.0,0.0,0.0,0.0,0.0,0.0,0.0,0.0,0.0,0.0,0.0,0.0,0.0,0.0,0.0,0.0,0.0,0.0,0.0,0.0,0.0,0.0,0.0,0.0,0.0,0.0,0.0,0.0,0.0,0.0,0.0,0.0,0.0,0.0,0.0,0.0,0.0,0.0,0.0,0.0,0.0,0.0,0.0,0.0,0.0,0.0,0.0,0.0,0.0,0.0,0.0,0.0,0.0,0.0,0.0,0.0,0.0,0.0,0.0,0.0,0.0,0.0,0.0,0.0,0.0,0.0,0.0,0.0,0.0,0.0,0.0,0.0,0.0,0.0,0.0,0.0,0.0,0.0,0.0,0.0,0.0,0.0,0.0,0.0,0.0,0.0,0.0,0.0,0.0,0.0,0.0,0.0,0.0,0.0,0.0,0.0,0.0,0.0,0.0,0.0,0.0,0.0,0.0,0.0,0.0,0.0,0.0,0.0,0.0,0.0,0.0,0.0,0.0,0.0,0.0,0.0,0.0,0.0,0.0,0.0,0.0,0.0,0.0,0.0,0.0,0.0,0.0,0.0,0.0,0.0,0.0,0.0,0.0,0.0,0.0,0.0,0.0,0.0,0.0,0.0,0.0,0.0,0.0,0.0,0.0,0.0,0.0,0.0,0.0,0.0,0.0,0.0,0.0,0.0,0.0,0.0,0.0,0.0,0.0,0.0,0.0,0.0,0.0,0.0,0.0,0.0,0.0,0.0,0.0,0.0,0.0,0.0,0.0,0.0,0.0,0.0,0.0,0.0,0.0,0.0,0.0,0.0,0.0,0.0,0.0,0.0,0.0,0.0,0.0,0.0,0.0,0.0,0.0,0.0,0.0,0.0,0.0,0.0,0.0,0.0,0.0,0.0,0.0,0.0,0.0,0.0,0.0,0.0,0.0,0.0,0.0,0.0,0.0,0.0,0.0,0.0,0.0,0.0,0.0,0.0,0.0,0.0,0.0,0.0,0.0,0.0,0.0,0.0,0.0,0.0,0.0,0.0,0.0,0.0,0.0,0.0,0.0,0.0,0.0,0.0,0.0,0.0,0.0,0.0,0.0,0.0,0.0,0.0,0.0,0.0,0.0,0.0,0.0,0.0,0.0,0.0,0.0,0.0,0.0,0.0,0.0,0.0,0.0,0.0,0.0,0.0,0.0,0.0,0.0,0.0,0.0,0.0,0.0,0.0,0.0,0.0,0.0,0.0,0.0,0.0,0.0,0.0,0.0,0.0,0.0,0.0,0.0,0.0,0.0,0.0,0.0,0.0,0.0,0.0,0.0,0.0,0.0,0.0,0.0,0.0,0.0,0.0,0.0,0.0,0.0,0.0,0.0,0.0,0.0,0.0,0.0,0.0,0.0,0.0,0.0,0.0,0.0,0.0,0.0,0.0,0.0,0.0,0.0,0.0,0.0,0.0,0.0,0.0,0.0,0.0,0.0,0.0,0.0,0.0,0.0,0.0,0.0,0.0,0.0,0.0,0.0,0.0,0.0,0.0,0.0,0.0,0.0,0.0,0.0,0.0,0.0,0.0,0.0,0.0,0.0,0.0,0.0,0.0,0.0,0.0,0.0,0.0,0.0,0.0,0.0,0.0,0.0,0.0,0.0,0.0,0.0,0.0,0.0,0.0,0.0,0.0,0.0,0.0,0.0,0.0,0.0,0.0,0.0,0.0,0.0,0.0,0.0,0.0,0.0,0.0,0.0,0.0,0.0,0.0,0.0,0.0,0.0,0.0,0.0,0.0,0.0,0.0,0.0,0.0,0.0,0.0,0.0,0.0,0.0,0.0,0.0,0.0,0.0,0.0,0.0,0.0,0.0,0.0,0.0,0.0,0.0,0.0,0.0,0.0,0.0,0.0,0.0,0.0,0.0,0.0,0.0,0.0,0.0,0.0,0.0,0.0,0.0,0.0,0.0,0.0,0.0,0.0,0.0,0.0,0.0,0.0,0.0,0.0,0.0,0.0,0.0,0.0,0.0,0.0,0.0,0.0,0.0,0.0,0.0,0.0,0.0,0.0,0.0,0.0,0.0,0.0,0.0,0.0,0.0,0.0,0.0,0.0,0.0,0.0,0.0,0.0,0.0,0.0,0.0,0.0,0.0,0.0,0.0,0.0,0.0,0.0,0.0,0.0,0.0,0.0,0.0,0.0,0.0,0.0,0.0,0.0,0.0,0.0,0.0,0.0,0.0,0.0,0.0,0.0,0.0,0.0,0.0,0.0,0.0,0.0,0.0,0.0,0.0,0.0,0.0,0.0,0.0,0.0,0.0,0.0,0.0,0.0,0.0,0.0,0.0,0.0,0.0,0.0,0.0,0.0,0.0,0.0,0.0,0.0,0.0,0.0,0.0,0.0,0.0,0.0,0.0,0.0,0.0,0.0,0.0,0.0,0.0,0.0,0.0,0.0,0.0,0.0,0.0,0.0,0.0,0.0,0.0,0.0,0.0,0.0,0.0,0.0,0.0,0.0,0.0,0.0,0.0,0.0,0.0,0.0,0.0,0.0,0.0,0.0,0.0,0.0,0.0,0.0,0.0,0.0,0.0,0.0,0.0,0.0,0.0,0.0,0.0,0.0,0.0,0.0,0.0,0.0,0.0,0.0,0.0,0.0,0.0,0.0,0.0,0.0,0.0,0.0,0.0,0.0,0.0,-0.4674,-0.4662,0.0,0.0,0.0,0.0,0.0,0.0,0.0,0.0,0.0,0.0,0.0,0.0,0.0,0.0,0.0,0.0,0.0,0.0,0.0,0.0,0.0,0.0,0.0,0.7368,0.7709,0.794,0.8083,0.8251,0.844,0.0,0.0,0.0,0.0,0.0,0.8916,0.917,0.9569,1.0123,1.0819,1.1254,1.1435,1.029,0.926,0.834,0.0,0.0,0.0,0.0,0.0,0.0,0.0,0.0,0.0,0.0,0.0,0.0,0.0,0.0,0.0,0.0,0.0,0.0,0.0,0.0,0.0,0.0,0.0,0.0,0.0,0.0,0.0,0.0,0.0,0.0,0.0,0.0,0.0,0.0,0.0,0.0,0.0,0.0,0.0,0.0,0.0,0.0,0.0,0.0,0.0,0.0,0.0,0.0,0.0,0.0,0.0,0.0,0.0,0.0,0.0,0.0,0.0,0.0,0.0,0.0,0.0,0.0,0.0,0.0,0.0,0.0,0.0,0.0,0.0,0.0,-0.4465,-0.4602,0.0,0.0,0.0,0.0,0.0,0.0,0.0,0.0,0.0,0.0,0.0,0.0,0.0,0.0,0.0,0.0,0.0,0.0,0.0,0.0,0.0,0.7502,0.7654,0.8192,0.8677,0.9042,0.9086,0.9238,0.9632,0.9345,0.0,0.0,0.891,0.8995,0.9702,0.9766,1.0201,1.1036,1.2095,1.277,1.305,1.2683,1.1792,1.0465,0.974,0.0,0.0,0.0,0.0,0.0,0.0,0.0,0.0,0.0,0.0,0.0,0.0,0.0,0.0,0.0,0.0,0.0,0.0,0.0,0.0,0.0,0.0,0.0,0.0,0.0,0.0,0.0,0.0,0.0,0.0,0.0,0.0,0.0,0.0,0.0,0.0,0.0,0.0,0.0,0.0,0.0,0.0,0.0,0.0,0.0,0.0,0.0,0.0,0.0,0.0,0.0,0.0,0.0,0.0,0.0,0.0,0.0,0.0,0.0,0.0,0.0,0.0,0.0,-0.3814,-0.3736,-0.3621,-0.3621,-0.3621,-0.363,-0.4363,-0.4522,-0.4324,-0.448,0.0,0.0,0.0,0.0,0.0,0.0,0.0,0.0,0.0,0.0,0.0,0.0,0.0,0.0,0.0,0.0,0.0,0.0,0.0,0.7773,0.831,0.8761,0.9221,0.9721,0.977,0.9907,1.0252,1.0182,1.0143,1.0228,1.0161,1.0395,1.0957,1.0974,1.1278,1.1938,1.3289,1.4292,1.4942,1.4929,1.4638,1.4037,1.2285,1.0995,1.0091,0.0,0.0,0.0,0.0,0.0,0.0,0.0,0.0,0.0,0.0,0.0,0.0,0.0,0.0,0.0,0.0,0.0,0.0,0.0,0.0,0.0,0.0,0.0,0.0,0.0,0.0,0.0,0.0,0.0,0.0,0.0,0.0,0.0,0.0,0.0,0.0,0.0,0.0,0.0,0.0,0.0,0.0525,0.0382,0.0,0.0,0.0,0.0,0.0,0.0,0.0,0.0,0.0,0.0,0.0,0.0,0.0,-0.2777,-0.2823,-0.31,-0.3296,-0.3399,-0.3399,-0.3481,-0.369,-0.369,-0.3769,-0.3924,-0.4045,0.0,-0.39,-0.4197,0.0,0.0,0.0,0.0,0.0,0.0,0.0,0.0,0.0,0.0,0.0,0.0,0.0,0.0,0.0,0.0,0.0,0.0,0.0,0.0,0.0,0.9738,1.0539,1.079,1.1186,1.1451,1.1565,1.1192,1.1047,1.1249,1.0851,1.0928,1.1585,1.1568,1.2363,1.4069,1.432,1.5042,1.6237,1.5553,1.522,1.5159,1.4464,1.321,1.1594,1.1145,0.0,0.0,0.0,0.0,0.0,0.0,0.0,0.0,0.0,0.0,0.0,0.0,0.0,0.0,0.0,0.0,0.0,0.0,0.0,0.0,0.0,0.0,0.0,0.0,0.0,0.0,0.0,0.0,0.0,0.0,0.0,0.0,0.0,0.0,0.0,0.0,0.0,0.0,0.0,0.0641,0.0709,0.1004,0.0811,0.0356,0.0,0.0,0.0,0.0,0.0,0.0,0.0,0.0,0.0,-0.2394,-0.2735,-0.29,-0.29,-0.3039,-0.3194,-0.3317,-0.3317,-0.336,-0.3486,-0.3613,-0.3739,-0.3825,-0.395,-0.3985,-0.3949,-0.416,-0.4412,-0.468,0.0,0.0,0.0,0.0,-0.6913,-0.7602,0.0,0.0,0.0,0.0,0.0,0.0,0.0,0.0,0.0,0.0,0.0,0.0,0.912,1.0561,1.1634,1.1949,1.2347,1.2656,1.2872,1.2297,1.2032,1.2221,1.1725,1.1696,1.2224,1.2245,1.3389,1.571,1.526,1.5734,1.7085,1.6236,1.5895,1.6001,1.605,1.4967,1.3127,1.2613,1.1621,1.0258,0.0,0.0,0.0,0.0,0.0,0.0,0.0,0.0,0.0,0.0,0.0,0.0,0.0,0.0,0.0,0.0,0.0,0.0,0.0,0.0,0.0,0.0,0.0,0.0,0.0,0.0,0.0,0.0,0.0,0.0,0.0,0.0,0.0,0.0,0.0,0.0,0.0,0.0622,0.0855,0.1208,0.114,0.0694,0.0,0.0,0.0,0.0,0.0,0.0,-0.2025,-0.2577,-0.2782,-0.258,-0.2851,-0.2954,-0.2954,-0.2954,-0.3037,-0.3205,-0.3205,-0.3248,-0.3376,-0.359,-0.3761,-0.3846,-0.4016,-0.4061,-0.4093,-0.4188,-0.438,-0.4609,-0.4795,-0.535,-0.6083,-0.6499,-0.7267,-0.8063,0.0,0.0,0.0,0.0,0.0,0.0,0.0,0.0,0.0,0.0,0.0,0.9754,1.0014,1.0966,1.2032,1.3123,1.2781,1.2914,1.3863,1.3481,1.3196,1.3144,1.317,1.3153,1.3143,1.3374,1.4319,1.5973,1.6136,1.6619,1.7395,1.7716,1.7699,1.7362,1.6756,1.5915,1.4932,1.4251,1.3491,1.2582,1.1004,0.0,0.0,0.0,0.0,0.0,0.0,0.0,0.0,0.0,0.0,0.0,0.0,0.0,0.0,0.0,0.0,0.0,0.0,0.0,0.0,0.0,0.0,0.0,0.0,0.0,0.0,0.0,0.0,0.0,0.0,0.0,0.0,0.0,0.0,0.0,0.0,0.0,0.0,0.0408,0.0752,0.0,0.0,0.0,0.0,-0.1206,-0.2068,-0.2468,-0.2288,-0.2772,-0.2981,-0.2813,-0.2875,-0.291,-0.291,-0.291,-0.291,-0.2908,-0.2908,-0.3176,-0.3576,-0.3621,-0.3842,-0.4285,-0.4285,-0.4285,-0.4271,-0.4308,-0.4312,-0.4349,-0.4802,-0.5665,-0.6752,-0.7377,-0.8186,-0.888,0.0,0.0,0.0,0.0,0.0,0.7238,0.826,0.8473,0.8445,0.8242,0.9226,0.9917,0.9856,1.1398,1.2577,1.289,1.3247,1.3529,1.3735,1.3497,1.3429,1.3577,1.3446,1.3625,1.4149,1.5102,1.5997,1.6839,1.6773,1.7145,1.791,1.7872,1.774,1.7488,1.7355,1.7205,1.6991,1.531,1.4355,1.3809,1.252,1.1336,0.0,0.0,0.0,0.0,0.0,0.0,0.0,0.0,0.0,0.0,0.0,0.0,0.0,0.0,0.0,0.0,0.0,0.0,0.0,0.0,0.0,0.0,0.0,0.0,0.0,0.0,0.0,0.0,0.0,0.0,0.0,0.0,0.0,0.0,0.0,0.0,0.0,0.0782,0.1086,0.0,0.044,0.0159,-0.024,-0.0778,-0.1414,-0.1689,-0.1459,-0.2147,-0.2484,-0.2396,-0.2728,-0.292,-0.292,-0.292,-0.292,-0.292,-0.292,-0.3051,-0.3361,-0.3542,-0.3767,-0.4034,-0.421,-0.43,-0.4293,-0.4318,-0.4342,-0.4453,-0.4688,-0.5546,-0.6688,-0.7282,-0.8135,-0.8918,0.0,0.0,0.0,0.0,0.0,0.7663,0.8564,0.8923,0.8939,0.8477,0.9687,1.055,1.0364,1.1959,1.312,1.3344,1.3628,1.3839,1.3891,1.3701,1.3682,1.3861,1.3961,1.4485,1.551,1.6177,1.6742,1.7231,1.703,1.7324,1.8063,1.7977,1.7916,1.7894,1.7881,1.8023,1.816,1.651,1.5713,1.5406,1.4193,1.3198,1.2275,0.0,0.0,0.0,0.0,0.0,0.0,0.0,0.0,0.0,0.0,0.0,0.0,0.0,0.0,0.0,0.0,0.0,0.0,0.0,0.0,0.0,0.0,0.0,0.0,0.0,0.0,0.0,0.0,0.0,0.0,0.0,0.0,0.0,0.0,0.127,0.1299,0.094,0.1333,0.1328,0.0679,0.0423,0.0127,-0.0343,-0.0914,-0.1185,-0.1054,-0.1603,-0.2019,-0.2199,-0.2513,-0.2739,-0.292,-0.292,-0.292,-0.292,-0.292,-0.3006,-0.3227,-0.3387,-0.3657,-0.3903,-0.4107,-0.4236,-0.43,-0.43,-0.4353,-0.4463,-0.4751,-0.5482,-0.6436,-0.706,-0.7889,-0.8599,0.0,0.0,0.0,0.0,0.0,0.8061,0.8626,0.9148,0.9352,0.905,1.0507,1.16,1.1604,1.2619,1.3672,1.4582,1.3927,1.3732,1.4425,1.4194,1.4026,1.4026,1.4799,1.5837,1.7164,1.6504,1.6504,1.7153,1.6969,1.7202,1.7848,1.8097,1.8388,1.867,1.8371,1.8313,1.8406,1.788,1.7619,1.7451,1.6077,1.4945,1.3997,0.0,0.0,0.0,0.0,0.0,0.0,0.0,0.0,0.0,0.0,0.0,0.0,0.0,0.0,0.0,0.0,0.0,0.0,0.0,0.0,0.0,0.0,0.0,0.0,0.0,0.0,0.0,0.0,0.0,0.0,0.0,0.0,0.0,0.1336,0.1533,0.1452,0.079,0.1365,0.1604,0.1049,0.0666,0.0314,0.0045,-0.0628,-0.1032,-0.1032,-0.1257,-0.1616,-0.2156,-0.2202,-0.2428,-0.2877,-0.2879,-0.2925,-0.2925,-0.2922,-0.3009,-0.3187,-0.3298,-0.3523,-0.3911,-0.3987,-0.4112,-0.4304,-0.4304,-0.4302,-0.4334,-0.4899,-0.5435,-0.6002,-0.6705,-0.7471,-0.8007,0.0,0.0,0.0,0.7113,0.7256,0.7553,0.8661,0.8841,0.8942,0.9189,1.0307,1.1261,1.1693,1.2458,1.3271,1.4051,1.4264,1.4198,1.3874,1.4404,1.4704,1.4652,1.542,1.6172,1.6888,1.7565,1.8038,1.8255,1.8457,1.8578,1.8676,1.889,1.8785,1.8427,1.8983,1.9205,1.9198,1.9045,1.9111,1.9137,1.7059,1.6165,1.5988,0.0,0.0,0.0,0.0,0.0,0.0,0.0,0.0,0.0,0.0,0.0,0.0,0.0,0.0,0.0,0.0,0.0,0.0,0.0,0.0,0.0,0.0,0.0,0.0,0.0,0.0,0.0,0.0,0.0,0.0,0.0,0.1317,0.1373,0.1449,0.1726,0.1755,0.1267,0.1421,0.1511,0.1366,0.1113,0.0932,0.0826,0.0459,0.0275,0.0275,-0.0321,-0.0826,-0.1101,-0.1814,-0.2374,-0.2664,-0.2933,-0.3048,-0.3048,-0.3327,-0.3394,-0.3301,-0.3641,-0.3915,-0.4036,-0.4118,-0.4247,-0.4352,-0.4352,-0.4359,-0.434,-0.4844,-0.5344,-0.5839,-0.6576,-0.7136,-0.7495,0.0,0.0,0.0,0.654,0.6884,0.7353,0.8334,0.8417,0.871,0.9573,1.0621,1.161,1.2502,1.308,1.3624,1.4199,1.4388,1.4236,1.3603,1.416,1.4776,1.5341,1.5852,1.6439,1.7175,1.7813,1.812,1.8085,1.8412,1.8617,1.8727,1.8974,1.892,1.8635,1.9423,1.9714,1.9669,1.9776,1.997,2.0019,1.8339,1.7608,1.7521,1.6719,1.6091,1.5603,1.5225,1.4865,1.4415,1.3291,0.0,0.0,0.0,0.0,0.0,0.0,0.0,0.0,0.0,0.0,0.0,0.0,0.0,0.0,0.0,0.0,0.0,0.0,0.0,0.0,0.0,0.0,0.0,0.0,0.1452,0.1429,0.1471,0.1804,0.1891,0.1449,0.1542,0.1579,0.1498,0.1373,0.1281,0.1172,0.1031,0.0937,0.0796,0.0234,-0.028,-0.0694,-0.1367,-0.2029,-0.2593,-0.2784,-0.2953,-0.3095,-0.3344,-0.3371,-0.3233,-0.3493,-0.3678,-0.3795,-0.3873,-0.4005,-0.4167,-0.4258,-0.4252,0.0,0.0,0.0,0.0,0.0,-0.6816,-0.6859,0.0,0.0,0.0,0.591,0.6618,0.7275,0.7725,0.7929,0.8531,0.9897,1.0983,1.2149,1.3412,1.3847,1.4184,1.4557,1.4343,1.4032,1.3638,1.3767,1.4464,1.5788,1.5951,1.6499,1.7518,1.7543,1.7457,1.7261,1.7659,1.8043,1.8349,1.8672,1.8864,1.8984,1.9646,1.9844,1.9755,2.0087,2.0205,2.016,1.9447,1.8931,1.8577,1.8086,1.7696,1.7364,1.7053,1.6687,1.6267,1.5419,0.0,0.0,0.0,0.0,0.0,0.0,0.0,0.0,0.0,0.0,0.0,0.0,0.0,0.0,0.0,0.0,0.0,0.0,0.0,0.0,0.0,0.0,0.0,0.0,0.1819,0.1625,0.1465,0.1789,0.1896,0.1482,0.1608,0.1689,0.1528,0.1534,0.1438,0.1244,0.1196,0.1053,0.0765,0.0,0.0,0.0,0.0,-0.1616,-0.2518,-0.2613,-0.2781,-0.307,-0.3158,-0.3154,-0.3109,-0.3163,-0.3304,-0.3446,-0.3515,-0.37,-0.3922,-0.4157,-0.4201,-0.4106,-0.4606,-0.4961,-0.5249,-0.6207,-0.646,-0.6334,0.0,0.0,0.0,0.5863,0.6352,0.6751,0.711,0.7471,0.8062,0.9086,1.0126,1.1244,1.2522,1.2906,1.3289,1.3846,1.4019,1.4154,1.4212,1.3874,1.4045,1.491,1.5267,1.5806,1.6553,1.7387,1.7739,1.7599,1.8486,1.8841,1.8721,1.8888,1.8929,1.8848,1.9207,1.9141,1.881,1.934,1.9356,1.902,1.8925,1.8824,1.8764,1.8721,1.8361,1.7983,1.8227,1.7986,1.7464,1.6803,1.6178,1.5661,1.5622,0.0,0.0,0.0,0.0,0.0,0.0,0.0,0.0,0.0,0.0,0.0,0.0,0.0,0.0,0.0,0.0,0.0,0.0,0.0,0.0,0.2932,0.255,0.2185,0.1778,0.1836,0.1832,0.1517,0.1568,0.1605,0.1562,0.1585,0.1589,0.1515,0.1123,0.0781,0.0488,0.0,-0.0487,-0.1068,-0.1385,-0.1684,-0.2089,-0.2523,-0.2795,-0.2845,0.0,0.0,-0.3123,-0.3523,-0.3765,-0.3806,-0.3881,-0.412,-0.4538,-0.4584,-0.4578,-0.4526,-0.4838,-0.5115,-0.538,-0.5758,-0.6098,-0.6384,0.0,0.0,0.0,0.5058,0.5563,0.6081,0.6659,0.7008,0.7738,0.9213,1.0012,1.1003,1.2396,1.2707,1.297,1.3419,1.3447,1.3645,1.4114,1.3679,1.3882,1.4949,1.5093,1.5608,1.6584,1.7046,1.7277,1.7202,1.7869,1.8174,1.8154,1.8312,1.826,1.803,1.844,1.8393,1.798,1.8375,1.8425,1.8178,1.792,1.7855,1.8037,1.8727,1.8572,1.805,1.8521,1.8187,1.7447,1.7049,1.6521,1.6066,1.6085,1.5459,1.4535,0.0,0.0,0.0,0.0,0.0,0.0,0.0,0.0,0.0,0.0,0.0,0.0,0.0,0.0,0.5805,0.5215,0.0,0.4252,0.3414,0.2989,0.2584,0.2069,0.1923,0.1832,0.1739,0.1737,0.1824,0.1792,0.1658,0.1655,0.1721,0.1288,0.0942,0.0737,0.0149,-0.0446,-0.0982,-0.125,-0.1602,-0.2015,-0.2251,-0.2524,-0.2825,-0.3196,-0.3283,-0.3136,-0.3432,-0.3532,-0.3583,-0.3718,-0.3915,-0.4177,-0.4381,-0.4582,-0.4674,-0.4999,-0.5182,-0.532,-0.582,-0.6182,-0.6378,0.0,0.0,0.0,0.4136,0.4782,0.5478,0.6139,0.6606,0.7478,0.9135,0.9886,1.079,1.2108,1.2425,1.2647,1.2913,1.2776,1.295,1.3564,1.329,1.369,1.4972,1.4936,1.5409,1.6536,1.6591,1.6568,1.6504,1.6829,1.708,1.7219,1.7284,1.7145,1.6898,1.7332,1.7338,1.6998,1.7246,1.7314,1.7249,1.6818,1.6699,1.693,1.8114,1.8214,1.78,1.8306,1.7906,1.71,1.695,1.6584,1.6217,1.6217,1.5713,1.5033,1.4345,1.3626,0.0,0.0,0.0,0.0,0.0,0.0,0.0,0.0,0.0,0.7955,0.7233,0.6869,0.6528,0.5931,0.5576,0.5005,0.3966,0.3517,0.3057,0.241,0.2224,0.209,0.2003,0.1948,0.1938,0.1917,0.1617,0.1506,0.1681,0.1152,0.0803,0.0741,0.005,-0.0502,-0.0938,-0.1203,-0.1554,-0.1926,-0.2005,-0.2272,-0.2624,-0.2725,-0.2927,-0.313,-0.318,-0.323,-0.3281,-0.3635,-0.3786,-0.3882,-0.4217,-0.4534,-0.4822,-0.5209,-0.5294,-0.5291,-0.5963,-0.6343,-0.6424,0.0,0.0,0.0,0.0,0.0,0.5111,0.5321,0.6372,0.7289,0.771,0.8982,1.0079,1.0594,1.1254,1.1723,1.1937,1.2155,1.2353,1.2549,1.268,1.3154,1.4013,1.4326,1.4723,1.5276,1.593,1.6078,1.5724,1.6123,1.6303,1.6255,1.5791,1.5664,1.5766,1.5611,1.5513,1.556,1.5929,1.5947,1.578,1.5993,1.5905,1.5741,1.6363,1.6853,1.7255,1.7582,1.7522,1.7265,1.7265,1.7002,1.6686,1.6597,1.6215,1.5552,1.4298,0.0,1.3802,1.1962,1.147,1.1343,1.0669,1.0581,1.047,0.0,0.0,0.8386,0.7604,0.7221,0.6956,0.6709,0.6247,0.5683,0.5049,0.4485,0.3831,0.2955,0.2835,0.2709,0.2285,0.1873,0.1663,0.1667,0.1162,0.0908,0.0907,0.0,-0.0555,-0.0604,-0.111,-0.1464,-0.1511,-0.1767,-0.1817,-0.1662,-0.2117,-0.2271,-0.2071,-0.2575,-0.2826,-0.2876,-0.3079,-0.3332,-0.3586,-0.4088,-0.4437,-0.4684,-0.4724,-0.4922,-0.5166,-0.5412,-0.5552,-0.568,-0.5852,-0.6262,-0.6642,0.0,0.0,0.0,0.0,0.0,0.4206,0.497,0.5964,0.6871,0.7586,0.8648,0.9538,1.005,1.0734,1.1236,1.1442,1.1597,1.1836,1.2204,1.224,1.2607,1.3469,1.3694,1.4058,1.4561,1.5065,1.5243,1.5073,1.5165,1.5251,1.528,1.4871,1.464,1.4616,1.4565,1.4563,1.4613,1.4778,1.4976,1.5115,1.4911,1.4839,1.4906,1.5189,1.5195,1.5221,1.6417,1.6398,0.0,0.0,1.6346,1.6008,1.6058,1.5762,1.5225,1.4472,1.4212,0.0,1.2139,1.1696,1.1546,0.0,1.096,1.0947,1.0382,0.9733,0.9025,0.8351,0.7905,0.7496,0.7167,0.6774,0.6282,0.0,0.4976,0.4328,0.3576,0.3055,0.269,0.2479,0.2066,0.1677,0.1412,0.1,0.0696,0.0547,-0.0151,-0.0603,-0.0646,-0.1105,-0.1415,-0.1617,-0.1869,-0.1869,-0.1617,-0.2119,-0.2321,-0.2221,-0.2472,-0.2725,-0.3029,-0.2977,-0.318,-0.3636,-0.3986,-0.4336,-0.4587,-0.4736,-0.4856,-0.4956,-0.5359,-0.5434,-0.5425,-0.5862,-0.6288,-0.6676,0.0,0.0,0.0,0.0,0.0,0.3224,0.4461,0.5492,0.6461,0.7321,0.8259,0.9068,0.9669,1.0273,1.0704,1.0795,1.0885,1.1154,1.159,1.1536,1.1915,1.2915,1.2989,1.3223,1.3692,1.3917,1.4013,1.403,1.3859,1.3923,1.4192,1.361,1.3341,1.3407,1.3453,1.3507,1.3628,1.386,1.4073,1.4221,1.3934,1.3851,1.3934,1.4109,1.3899,1.3747,1.5419,1.5458,0.0,0.0,1.5826,1.5584,1.5604,1.5323,1.4872,1.4478,1.4001,1.3363,1.2219,0.0,0.0,1.1166,1.1169,1.1271,1.0958,1.0255,0.9544,0.897,0.8475,0.7939,0.7416,0.7055,0.6612,0.5873,0.5298,0.472,0.4105,0.3401,0.2892,0.2725,0.2284,0.1767,0.1248,0.0841,0.0492,0.0049,-0.0401,-0.0653,-0.0693,-0.0953,-0.1212,-0.1465,-0.1768,-0.1819,-0.1718,-0.217,-0.2422,-0.2422,-0.2472,-0.2725,-0.3079,-0.2977,-0.318,-0.3636,-0.3784,-0.4086,-0.4437,-0.461,-0.4712,-0.4848,-0.5229,-0.5322,-0.5313,-0.5912,-0.631,-0.6642,0.0,0.0,0.0,0.0,0.0,0.2281,0.3542,0.5029,0.6137,0.6489,0.7641,0.8651,0.9259,0.9745,0.9983,0.9862,0.9967,1.0165,1.0439,1.0446,1.1006,1.2263,1.214,1.2177,1.2446,1.2351,1.2298,1.2371,1.2109,1.2296,1.2936,1.1676,1.1478,1.2158,1.1966,1.2034,1.2422,1.3258,1.3195,1.2608,1.3134,1.3039,1.2687,1.3025,1.3222,1.3484,1.4827,0.0,0.0,0.0,1.5865,1.5999,1.5555,1.5186,0.0,1.4181,1.3346,1.2569,1.2287,0.0,1.2032,1.1423,1.149,1.1583,1.1186,1.0481,0.9771,0.9359,0.8801,0.8189,0.7513,0.7008,0.6547,0.6003,0.5505,0.4978,0.4374,0.403,0.3612,0.295,0.2456,0.1889,0.0,0.0638,0.0,-0.0706,-0.101,-0.1162,-0.1161,-0.096,-0.096,-0.1212,-0.1465,-0.1718,-0.1971,-0.2271,-0.2422,-0.2422,-0.2674,-0.2775,-0.2826,-0.3079,-0.3332,-0.3586,-0.3586,-0.3937,-0.4381,-0.435,-0.4608,-0.5074,-0.5118,-0.5327,-0.5698,-0.5989,-0.6269,-0.6529,0.0,0.0,0.0,0.0,0.0,0.0,0.2893,0.4194,0.5268,0.5823,0.6941,0.0,0.0,0.0,0.0,0.0,0.93,0.944,0.953,0.9712,1.0029,1.0555,1.0765,1.0853,1.0797,1.1114,1.1241,1.1181,1.1167,1.1234,1.1358,1.0757,1.0602,1.0853,1.1036,1.1334,1.1676,1.2345,1.2502,1.2368,1.255,1.2535,1.2437,1.2869,1.291,1.2945,0.0,0.0,0.0,1.5652,1.5923,1.5778,1.5381,1.503,1.4567,1.3519,1.271,1.2082,1.1934,0.0,1.166,1.1375,1.1394,1.1409,1.0999,1.0588,1.0143,0.9625,0.9223,0.8699,0.7792,0.7334,0.6874,0.6215,0.572,0.5241,0.4819,0.4349,0.3875,0.34,0.3044,0.0,0.0,0.0,0.0,-0.0247,-0.0496,-0.0744,-0.0991,-0.1054,-0.1111,-0.1212,-0.1617,-0.1718,-0.1465,-0.2069,-0.2422,-0.2422,-0.2876,-0.2977,-0.2826,-0.3079,-0.323,-0.3332,-0.3534,-0.3757,-0.4104,-0.4226,-0.4475,-0.4795,-0.4855,-0.5053,-0.5359,-0.5642,-0.592,-0.6154,0.0,0.0,0.0,0.0,0.0,0.0,0.0,0.0,0.0,0.0,0.0,0.0,0.0,0.0,0.0,0.0,0.0,0.8424,0.8691,0.8783,0.8986,0.9366,0.9598,0.9661,0.9512,0.9643,0.977,0.9858,0.9724,0.9732,0.9877,0.9589,0.9531,0.9675,1.0115,1.0441,1.0719,1.1478,1.1645,1.1455,1.1931,1.2028,1.1906,1.2465,1.2719,0.0,0.0,0.0,0.0,1.5623,1.5836,1.5614,1.5147,1.4558,1.3851,1.2889,1.2287,1.188,1.1805,1.1696,1.1563,1.1305,1.1242,1.1186,1.0775,1.0481,1.018,0.9771,0.9416,0.8878,0.7903,0.7531,0.7062,0.6277,0.5863,0.5545,0.5174,0.4664,0.4195,0.3808,0.3247,0.2654,0.0,0.0,0.0,0.0049,-0.0246,-0.0492,-0.0694,-0.0853,-0.096,-0.1061,-0.1415,-0.1516,-0.1364,-0.1969,-0.2372,-0.2522,-0.2876,-0.3027,-0.2927,-0.313,-0.318,-0.323,-0.3383,-0.3609,-0.3811,-0.4079,-0.4264,-0.4466,-0.4705,-0.4899,-0.5032,-0.545,-0.568,-0.5872,0.0,0.0,0.0,0.0,0.0,0.0,0.0,0.0,0.0,0.0,0.0,0.0,0.0,0.0,0.0,0.0,0.0,0.0,0.7862,0.7684,0.7908,0.8681,0.8659,0.8591,0.8523,0.8033,0.7997,0.8448,0.7854,0.7882,0.8512,0.8155,0.8224,0.8611,0.9071,0.9339,0.9494,1.0685,1.064,0.9895,1.1211,1.1446,1.1104,1.1827,0.0,0.0,0.0,0.0,0.0,1.541,1.5643,1.5469,1.4823,1.3787,1.2707,1.2414,1.2118,1.1908,1.1872,1.1831,1.1664,1.1199,1.1111,1.0999,1.0594,1.0207,0.99,0.9863,0.9381,0.8716,0.0,0.0,0.7073,0.6102,0.5924,0.5754,0.5401,0.4975,0.4521,0.0,0.0,0.0,0.0,0.0,0.0,0.0201,0.0,-0.0297,-0.0302,-0.0303,-0.0455,-0.0707,-0.0758,-0.101,-0.1516,-0.1819,-0.2223,-0.2775,-0.2775,-0.2927,-0.318,-0.318,-0.318,-0.318,-0.318,-0.333,-0.3624,-0.3798,-0.3969,-0.4227,-0.4608,-0.4761,-0.4862,-0.5407,-0.5593,-0.569,0.0,0.0,0.0,0.0,0.0,0.0,0.0,0.0,0.0,0.0,0.0,0.0,0.0,0.0,0.0,0.0,0.0,0.0,0.6655,0.6929,0.7186,0.744,0.7627,0.7681,0.756,0.7485,0.7483,0.7614,0.7341,0.7236,0.7238,0.6909,0.6861,0.7089,0.7541,0.7908,0.8226,0.9179,0.9575,0.9662,0.0,1.1044,1.1315,0.0,0.0,0.0,0.0,0.0,0.0,0.0,0.0,1.4036,1.3858,1.3241,1.2574,1.2598,1.2321,1.1964,1.1688,1.1454,1.1249,1.113,1.1111,1.1037,1.0775,1.0333,0.9831,0.9322,0.868,0.7934,0.0,0.0,0.0,0.569,0.5628,0.0,0.4947,0.4632,0.0,0.406,0.0,0.3105,0.2744,0.2637,0.0,0.0,0.1439,0.1279,0.1086,0.0901,0.0656,0.0404,0.0,-0.0253,-0.0404,-0.1263,-0.1869,-0.2223,-0.2423,-0.2623,-0.2927,-0.2927,-0.3027,-0.318,-0.2977,-0.3154,-0.3504,-0.329,-0.3636,-0.4175,-0.4171,-0.4418,-0.49,-0.5201,-0.5454,-0.5704,0.0,0.0,0.0,0.0,0.0,0.0,0.0,0.0,0.0,0.0,0.0,0.0,0.0,0.0,0.0,0.0,0.0,0.0,0.0,0.6514,0.6744,0.6855,0.7033,0.709,0.698,0.6881,0.689,0.7036,0.6497,0.6202,0.6193,0.583,0.5755,0.5872,0.6549,0.7007,0.738,0.8363,0.0,0.0,0.0,0.0,0.0,0.0,0.0,0.0,0.0,0.0,0.0,0.0,0.0,1.3233,1.2914,1.252,1.2163,1.2248,0.0,1.1822,1.1679,1.1381,1.1087,1.0966,1.0936,1.0839,1.0507,1.0151,0.9727,0.919,0.8445,0.7686,0.7082,0.6754,0.6357,0.0,0.0,0.0,0.4903,0.466,0.4451,0.0,0.3774,0.0,0.3125,0.2908,0.267,0.0,0.2084,0.1821,0.1786,0.1403,0.116,0.1161,0.0757,0.0303,-0.0152,-0.0909,-0.1516,-0.2022,-0.2171,-0.2372,-0.2623,-0.2725,-0.2876,-0.3027,-0.2977,-0.3111,-0.3374,-0.326,-0.3457,-0.3845,-0.3956,-0.4236,-0.4593,-0.4915,-0.5164,-0.5349,0.0,0.0,0.0,0.0,0.0,0.0,0.0,0.0,0.0,0.0,0.4842,0.513,0.0,0.0,0.0,0.0,0.0,0.0,0.0,0.0,0.0,0.6565,0.6641,0.6678,0.6605,0.6303,0.6303,0.6591,0.5556,0.5143,0.522,0.4936,0.4808,0.4912,0.5771,0.6309,0.0,0.0,0.0,0.0,0.0,0.0,0.0,0.0,0.0,0.0,0.0,0.0,0.0,0.0,1.2856,1.2773,1.2158,1.1802,1.1652,1.1671,1.1594,1.1543,1.1654,1.1376,1.1014,1.0713,1.0647,1.0545,1.0108,0.9782,0.9482,0.9088,0.8264,0.7513,0.7157,0.6762,0.6318,0.5711,0.0,0.5648,0.5019,0.4783,0.4596,0.4454,0.3859,0.3485,0.3522,0.3075,0.2917,0.3124,0.2329,0.1927,0.2166,0.1714,0.1563,0.1714,0.1412,0.0757,-0.0253,-0.0455,-0.101,-0.1819,-0.187,-0.207,-0.2371,-0.2623,-0.2775,-0.2826,-0.3027,-0.3124,-0.3214,-0.3351,-0.3382,-0.3411,-0.3803,-0.4009,-0.4156,-0.4574,-0.4769,-0.4871,0.0,0.0,0.0,0.0,0.0,0.0,0.0,0.0,0.0,0.0,0.4342,0.4505,0.0,0.0,0.0,0.0,0.0,0.0,0.0,0.0,0.0,0.0,0.6052,0.6132,0.6112,0.6005,0.5945,0.5959,0.527,0.4754,0.4392,0.4227,0.4172,0.4197,0.464,0.5031,0.0,0.0,0.0,0.0,0.0,0.0,0.0,0.0,0.0,0.0,0.0,0.0,0.0,0.0,1.262,1.2313,1.1771,1.1505,1.1387,1.157,1.1607,1.1524,1.1279,1.1038,1.0791,1.0532,1.0467,1.0366,1.0079,0.9513,0.0,0.0,0.7279,0.6476,0.6,0.592,0.5742,0.5205,0.5416,0.5402,0.4697,0.4473,0.4322,0.0,0.3954,0.3631,0.332,0.3324,0.0,0.0,0.2876,0.2869,0.2975,0.2927,0.2674,0.2269,0.1767,0.1212,0.0606,0.0556,0.0,-0.101,-0.1212,-0.1616,-0.2071,-0.2372,-0.2573,-0.2775,-0.2623,0.0,-0.3102,-0.2848,-0.2981,-0.3341,-0.3361,-0.3641,-0.4156,-0.4436,-0.4716,-0.5005,0.0,0.0,0.0,0.0,0.0,0.0,0.0,0.3954,0.402,0.4086,0.4155,0.4292,0.4525,0.4623,0.4646,0.0,0.0,0.0,0.0,0.0,0.0,0.0,0.0,0.0,0.0,0.5838,0.5824,0.5791,0.0,0.4643,0.4355,0.3974,0.3802,0.3805,0.419,0.4664,0.5289,0.6372,0.7385,0.8334,0.9556,0.0,0.0,0.0,0.0,0.0,0.0,0.0,0.0,0.0,1.2266,1.1832,1.1291,1.1194,1.1207,1.1057,1.1246,1.1365,1.1066,1.0876,1.0664,1.0376,1.0315,1.0208,0.9837,0.0,0.0,0.0,0.7098,0.6379,0.5851,0.588,0.0,0.5402,0.5435,0.5341,0.4751,0.4509,0.4431,0.4526,0.4268,0.4098,0.4012,0.3762,0.3521,0.3224,0.3125,0.3117,0.3177,0.318,0.3079,0.2826,0.2271,0.1767,0.1211,0.0959,0.0404,-0.0404,-0.0808,-0.1111,-0.1415,-0.2069,-0.2472,-0.2573,-0.2623,-0.2796,-0.3086,-0.2737,-0.2824,-0.3137,-0.3163,-0.3405,-0.3789,-0.4158,-0.4415,-0.4585,0.0,0.0,0.0,0.0,0.0,0.0,0.4108,0.4086,0.4064,0.4064,0.402,0.413,0.4447,0.4452,0.4407,0.0,0.0,0.0,0.0,0.0,0.0,0.0,0.0,0.0,0.0,0.0,0.0,0.5759,0.5055,0.0,0.0,0.0,0.0,0.0,0.4082,0.4627,0.5325,0.6253,0.732,0.0,0.0,1.0448,0.0,0.0,0.0,0.0,0.0,0.0,0.0,0.0,1.1965,1.1529,1.0996,1.09,1.0909,1.0514,1.071,1.1013,1.0786,1.0688,1.0597,1.0224,1.0174,1.006,0.9584,0.9081,0.0,0.7809,0.7158,0.6544,0.5987,0.5993,0.5989,0.0,0.5574,0.5401,0.4839,0.4715,0.4673,0.0,0.4666,0.0,0.4692,0.4238,0.0,0.3703,0.3413,0.3265,0.3228,0.313,0.313,0.313,0.2674,0.217,0.1715,0.1262,0.0758,0.0152,-0.0303,-0.0556,-0.0657,-0.1615,-0.2069,-0.217,-0.2472,-0.2789,-0.297,-0.278,-0.277,-0.2889,-0.3024,-0.3169,-0.3353,-0.3718,-0.3946,-0.4131,0.0,0.0,0.0,0.0,0.0,0.0,0.413,0.3994,0.3928,0.3928,0.3755,0.3777,0.4108,0.4355,0.4452,0.0,0.0,0.0,0.0,0.0,0.0,0.0,0.0,0.0,0.0,0.0,0.0,0.562,0.4998,0.0,0.0,0.0,0.0,0.0,0.0,0.4702,0.5183,0.6048,0.0,0.0,0.0,0.0,0.0,0.0,0.0,0.0,0.0,0.0,0.0,0.0,0.0,1.1677,1.1028,1.06,1.0328,1.0033,0.0,0.0,1.0209,1.0386,1.0504,1.0046,1.0074,1.0067,0.9461,0.0,0.8328,0.7652,0.7097,0.6544,0.5987,0.6007,0.5972,0.5591,0.0,0.5583,0.4812,0.4967,0.5066,0.483,0.0,0.0,0.4738,0.4578,0.4325,0.3925,0.3826,0.3658,0.3228,0.2977,0.2826,0.2826,0.2573,0.2271,0.197,0.1921,0.1516,0.0707,0.0455,0.0152,-0.0101,-0.0656,-0.1061,-0.1364,-0.1867,-0.2273,0.0,-0.2955,-0.2843,-0.2564,-0.256,-0.2739,-0.2966,-0.3009,-0.3416,-0.3957,0.0,0.0,0.0,0.0,0.0,0.0,0.413,0.4064,0.3972,0.381,0.377,0.3777,0.3799,0.3994,0.4188,0.4294,0.0,0.0,0.0,0.0,0.0,0.0,0.0,0.0,0.0,0.0,0.5668,0.5595,0.5069,0.0,0.0,0.0,0.0,0.0,0.0,0.4953,0.5333,0.0,0.0,0.0,0.0,0.0,0.0,0.0,0.0,0.0,0.0,0.0,1.1934,0.0,0.0,0.0,1.0784,1.0295,0.0,0.0,0.9841,1.0122,0.9735,0.9904,1.0098,0.9733,0.9803,0.9766,0.9002,0.0,0.8069,0.7195,0.6741,0.6383,0.5987,0.6177,0.6274,0.5907,0.0,0.0,0.5551,0.5554,0.5608,0.5599,0.5727,0.0,0.0,0.0,0.5315,0.4476,0.4434,0.42,0.3731,0.3432,0.323,0.3029,0.2775,0.2574,0.2474,0.2322,0.207,0.1766,0.1148,0.0849,0.0707,-0.0197,-0.0741,-0.101,-0.1545,-0.1953,0.0,-0.262,-0.2699,-0.2513,-0.2694,-0.2827,-0.2917,-0.3047,-0.3361,-0.3767,0.0,0.0,0.0,0.0,0.0,0.4456,0.424,0.4108,0.3972,0.3788,0.3792,0.3774,0.3641,0.3748,0.3924,0.4162,0.4338,0.0,0.0,0.0,0.0,0.0,0.0,0.0,0.0,0.0,0.5615,0.5595,0.512,0.4791,0.0,0.0,0.419,0.4159,0.0,0.0,0.0,0.0,0.0,0.0,0.0,0.0,0.0,0.0,0.0,0.0,0.0,0.0,0.0,0.0,0.0,0.0,0.0,0.0,0.0,0.0,0.9474,0.9679,0.9127,0.9311,0.9574,0.9332,0.935,0.9242,0.0,0.0,0.7606,0.6892,0.6539,0.629,0.6079,0.6363,0.6505,0.0,0.0,0.6338,0.5914,0.5957,0.601,0.0,0.0,0.64,0.0,0.6373,0.6009,0.5185,0.5144,0.4845,0.425,0.3974,0.3635,0.323,0.3027,0.2826,0.2674,0.2472,0.2422,0.237,0.1843,0.1491,0.1402,0.0536,-0.0097,-0.0496,-0.1076,-0.1491,0.0,-0.2126,-0.2222,-0.2109,-0.2289,-0.2424,-0.2513,-0.2781,-0.3184,-0.3631,0.0,0.0,0.0,0.0,0.0,0.4574,0.4499,0.4148,0.3902,0.3902,0.3733,0.3619,0.37,0.3697,0.3766,0.388,0.402,0.0,0.0,0.0,0.0,0.0,0.0,0.0,0.0,0.0,0.58,0.5595,0.512,0.4818,0.4688,0.4359,0.4301,0.4519,0.0,0.0,0.0,0.0,0.0,0.0,0.0,0.0,0.0,0.0,0.0,0.0,0.0,0.0,0.0,0.0,0.0,0.0,0.0,0.9153,0.9093,0.0,0.8926,0.8738,0.8333,0.8598,0.899,0.8835,0.8662,0.8458,0.0,0.0,0.6922,0.6907,0.6531,0.6237,0.6384,0.657,0.6545,0.6069,0.0,0.0,0.5617,0.5946,0.6196,0.0,0.0,0.6548,0.623,0.6389,0.6323,0.5912,0.5874,0.0,0.4759,0.4495,0.4036,0.323,0.318,0.2927,0.2422,0.2422,0.2422,0.2422,0.237,0.2249,0.1965,0.1718,0.1166,0.0334,-0.0191,-0.0849,0.0,-0.1527,-0.1371,-0.1121,-0.1121,-0.1256,-0.148,-0.2019,-0.2781,-0.3631,0.0,0.0,0.0,0.0,0.0,0.0,0.4144,0.406,0.3954,0.3733,0.3685,0.366,0.3641,0.3641,0.3707,0.388,0.41,0.0,0.0,0.0,0.0,0.0,0.0,0.0,0.0,0.5645,0.5611,0.5864,0.523,0.4928,0.4963,0.4767,0.4708,0.4791,0.5348,0.5759,0.0,0.0,0.0,0.0,0.0,0.0,0.0,0.0,0.0,0.0,0.0,0.0,0.0,0.0,0.0,0.0,0.0,0.0,0.0,0.8168,0.8356,0.8544,0.8269,0.8333,0.8425,0.8275,0.8195,0.7986,0.7316,0.7045,0.6809,0.6483,0.6311,0.6233,0.6384,0.657,0.6649,0.6429,0.6585,0.0,0.0,0.0,0.0,0.6708,0.7067,0.7293,0.0,0.0,0.7579,0.6946,0.6828,0.6531,0.5887,0.5272,0.4587,0.3783,0.3539,0.3317,0.3168,0.297,0.29,0.2863,0.2716,0.2515,0.2402,0.1965,0.1542,0.1096,0.0376,-0.0233,-0.0786,-0.1157,-0.1234,-0.1121,-0.1256,-0.1256,-0.1211,-0.1525,-0.2152,-0.2867,0.0,0.0,0.0,0.0,0.0,0.0,0.417,0.4104,0.3998,0.3755,0.3704,0.3682,0.36,0.3604,0.3644,0.3774,0.4012,0.0,0.0,0.0,0.0,0.0,0.0,0.0,0.5897,0.5652,0.5651,0.5923,0.5344,0.5097,0.5183,0.4983,0.4928,0.4983,0.5513,0.5923,0.0,0.0,0.0,0.0,0.0,0.0,1.0198,0.0,0.0,0.0,0.0,0.0,0.0,0.0,0.0,0.0,0.0,0.0,0.0,0.0,0.7721,0.8028,0.7964,0.7944,0.7894,0.7745,0.7555,0.7247,0.6708,0.0,0.6412,0.6408,0.6341,0.6339,0.6535,0.6869,0.6966,0.6589,0.6751,0.0,0.0,0.0,0.0,0.7282,0.0,0.0,0.0,0.8324,0.831,0.7798,0.7536,0.7135,0.6589,0.5789,0.5138,0.4634,0.406,0.3728,0.3485,0.3312,0.3184,0.3097,0.2953,0.2753,0.2589,0.2159,0.1788,0.1444,0.0874,0.032,0.0,-0.0457,-0.059,-0.0538,-0.0673,-0.0762,-0.0852,-0.1076,-0.1613,-0.2285,0.0,0.0,0.0,0.0,0.0,0.0,0.0,0.424,0.402,0.3906,0.3744,0.3634,0.36,0.3578,0.3604,0.36,0.3796,0.0,0.0,0.0,0.0,0.0,0.0,0.0,0.5878,0.5902,0.5883,0.5822,0.5489,0.5325,0.5325,0.5069,0.5011,0.5156,0.5481,0.5918,0.6436,0.7025,0.7503,0.7871,0.8151,0.8758,0.0,0.0,0.0,0.0,0.0,0.0,0.0,0.0,0.0,0.0,0.0,0.0,0.0,0.0,0.0,0.0,0.0,0.746,0.7403,0.7182,0.6751,0.6347,0.6327,0.5944,0.0,0.6471,0.6472,0.6441,0.6789,0.7279,0.7351,0.6559,0.6805,0.0,0.0,0.6903,0.0,0.0,0.7592,0.0,0.8497,0.8662,0.8621,0.8442,0.7975,0.7484,0.6942,0.6137,0.5682,0.5675,0.4839,0.411,0.3575,0.3459,0.328,0.3084,0.3136,0.2965,0.268,0.2402,0.2011,0.0,0.1299,0.094,0.0448,0.0448,0.0448,0.0403,0.0403,0.0134,-0.0314,-0.0538,-0.1076,-0.1749,0.0,0.0,0.0,0.0,0.0,0.0,0.0,0.0,0.0,0.0,0.3461,0.3347,0.3442,0.3442,0.3508,0.0,0.0,0.0,0.0,0.0,0.0,0.0,0.0,0.0,0.5675,0.5912,0.6072,0.6096,0.5709,0.5572,0.5686,0.5513,0.5513,0.5654,0.5814,0.6082,0.6436,0.6815,0.7166,0.7477,0.7738,0.817,0.0,0.0,0.0,0.0,0.9472,0.942,0.0,0.0,0.0,0.0,0.0,0.0,0.0,0.0,0.7027,0.7139,0.7489,0.0,0.676,0.6632,0.6173,0.5752,0.0,0.5473,0.5474,0.0,0.0,0.0,0.0,0.6681,0.6903,0.6878,0.0,0.7397,0.7961,0.0,0.0,0.7675,0.7823,0.7997,0.8072,0.8613,0.8896,0.8881,0.8656,0.8379,0.8035,0.7089,0.6401,0.6162,0.542,0.484,0.4365,0.367,0.3281,0.3184,0.3236,0.3272,0.3343,0.3298,0.3199,0.3045,0.2425,0.1768,0.1165,0.0927,0.0752,0.0628,0.0628,0.0673,0.0718,0.0269,-0.0224,-0.0807,0.0,0.0,0.0,0.0,0.0,0.0,0.0,0.0,0.0,0.0,0.3549,0.3439,0.349,0.349,0.3534,0.0,0.0,0.0,0.0,0.0,0.0,0.0,0.0,0.5624,0.5601,0.5861,0.6077,0.6245,0.5932,0.5841,0.5987,0.5791,0.5736,0.5822,0.6059,0.6327,0.6544,0.663,0.6847,0.7112,0.7106,0.0,0.0,0.0,0.0,0.0,0.8961,0.904,0.0,0.8831,0.8666,0.8388,0.0,0.0,0.0,0.0,0.7006,0.7079,0.7259,0.6957,0.6616,0.6748,0.6293,0.5787,0.562,0.553,0.0,0.0,0.0,0.0,0.0,0.6932,0.73,0.0,0.7451,0.0,0.0,0.0,0.8418,0.8237,0.8184,0.8282,0.0,0.8881,0.9164,0.9421,0.9072,0.8676,0.8432,0.7637,0.7105,0.6886,0.632,0.5633,0.4835,0.4324,0.4031,0.3894,0.394,0.3938,0.3898,0.3808,0.3717,0.3714,0.298,0.2418,0.2058,0.1403,0.1101,0.1031,0.0942,0.0897,0.0897,0.0762,0.0403,-0.009,0.0,0.0,0.0,0.0,0.0,0.0,0.0,0.0,0.0,0.0,0.0,0.0,0.0,0.0,0.0,0.0,0.0,0.0,0.0,0.0,0.0,0.0,0.5129,0.5403,0.5559,0.5784,0.6032,0.6247,0.6059,0.6032,0.6205,0.5959,0.5845,0.5877,0.625,0.649,0.6625,0.6408,0.6495,0.6744,0.6468,0.0,0.0,0.0,0.0,0.0,0.0,0.0,0.0,0.8639,0.854,0.8289,0.7803,0.0,0.0,0.0,0.0,0.0,0.7071,0.6873,0.6759,0.7111,0.6697,0.6177,0.6082,0.0,0.0,0.0,0.0,0.0,0.0,0.7512,0.0,0.0,0.0,0.0,0.8531,0.8674,0.8798,0.8896,0.8536,0.0,0.9305,0.9203,0.9317,0.9864,0.9292,0.8814,0.8594,0.8067,0.776,0.7668,0.7197,0.6435,0.5418,0.5188,0.5015,0.4851,0.4837,0.4696,0.452,0.4295,0.416,0.4111,0.0,0.0,0.2907,0.184,0.1452,0.1436,0.1256,0.1031,0.0852,0.1031,0.085,0.0446,0.0,0.0,0.0,0.0,0.0,0.0,0.0,0.0,0.0,0.0,0.0,0.0,0.0,0.0,0.0,0.0,0.0,0.0,0.0,0.0,0.0,0.4618,0.5179,0.5431,0.5352,0.577,0.5967,0.5958,0.5819,0.5898,0.6205,0.6032,0.6037,0.615,0.6332,0.6359,0.6255,0.6114,0.6082,0.6136,0.6082,0.0,0.0,0.0,0.0,0.0,0.0,0.0,0.0,0.8088,0.8115,0.8141,0.7681,0.0,0.0,0.0,0.0,0.0,0.7302,0.7149,0.6979,0.7075,0.6949,0.6775,0.6744,0.673,0.674,0.0,0.0,0.0,0.0,0.7481,0.7792,0.0,0.0,0.9567,0.0,0.0,0.9756,0.9067,0.0,0.8756,0.873,0.8967,0.9214,0.9451,0.9502,0.9506,0.9493,0.8943,0.8405,0.7953,0.7658,0.7267,0.6777,0.5997,0.5547,0.5458,0.537,0.5369,0.5497,0.5453,0.5408,0.5356,0.0,0.3645,0.3401,0.241,0.1892,0.1749,0.1705,0.1525,0.1256,0.1166,0.1021,0.0831,0.0,0.0,0.0,0.0,0.0,0.0,0.0,0.0,0.0,0.0,0.0,0.0,0.0,0.0,0.0,0.0,0.0,0.0,0.0,0.0,0.4228,0.4596,0.4861,0.5129,0.5408,0.5591,0.5828,0.6118,0.5871,0.5945,0.6309,0.625,0.625,0.6305,0.6381,0.6359,0.6309,0.6168,0.6059,0.6,0.0,0.0,0.0,0.0,0.0,0.0,0.0,0.0,0.0,0.0,0.7955,0.7981,0.7601,0.0,0.0,0.0,0.0,0.0,0.7225,0.7344,0.7439,0.7474,0.7349,0.7238,0.7215,0.713,0.7038,0.0,0.0,0.0,0.0,0.0,0.8482,0.931,0.0,0.9998,1.0203,1.0043,0.979,0.0,0.0,0.8992,0.9285,0.9322,0.955,1.0132,0.9922,0.9784,0.9648,0.9379,0.9056,0.8665,0.8481,0.8311,0.8108,0.7306,0.6729,0.643,0.6329,0.6254,0.6074,0.6074,0.6033,0.5849,0.0,0.4389,0.3892,0.3023,0.2463,0.2152,0.2038,0.191,0.1794,0.1391,0.1159,0.0973,0.0,0.0,0.0,0.0,0.0,0.0,0.0,0.0,0.0,0.0,0.0,0.0,0.0,0.0,0.0,0.0,0.0,0.0,0.0,0.3928,0.4078,0.4556,0.4552,0.4826,0.5431,0.5424,0.5676,0.6216,0.5917,0.5964,0.63,0.6408,0.6406,0.6286,0.6416,0.6406,0.6286,0.6177,0.6064,0.595,0.0,0.0,0.0,0.0,0.0,0.0,0.0,0.0,0.0,0.0,0.0,0.0,0.0,0.0,0.0,0.7139,0.7112,0.7112,0.7112,0.7435,0.7785,0.7672,0.7665,0.7678,0.7728,0.7568,0.7418,0.0,0.0,0.0,0.0,0.8482,0.0,1.0341,1.0242,1.0242,1.0812,1.0243,0.9776,0.9758,0.9345,0.9287,0.9762,0.9692,0.9849,1.053,1.0285,1.0051,0.9911,0.9752,0.9608,0.942,0.9215,0.9047,0.8997,0.8381,0.7827,0.7327,0.7156,0.6962,0.6653,0.6564,0.639,0.621,0.5586,0.4983,0.4383,0.3566,0.2961,0.2553,0.2292,0.2167,0.2063,0.165,0.1339,0.1075,0.0,0.0,0.0,0.0,0.0,0.0,0.0,0.0,0.0,0.0,0.0,0.0,0.0,0.0,0.0,0.0,0.0,0.0,0.0,0.3788,0.3943,0.4478,0.4386,0.4625,0.5306,0.5422,0.5635,0.5932,0.5774,0.5827,0.6028,0.6463,0.6408,0.5965,0.645,0.6403,0.5944,0.6003,0.5927,0.5795,0.5677,0.0,0.0,0.0,0.0,0.0,0.0,0.0,0.0,0.0,0.0,0.0,0.0,0.0,0.7284,0.7139,0.7112,0.7112,0.7112,0.7435,0.7717,0.7344,0.7703,0.8195,0.8377,0.8281,0.8179,0.8345,0.0,0.0,0.0,0.9631,1.0119,1.0206,1.0396,1.0581,1.0613,0.0,1.0231,1.025,0.982,0.9572,0.9599,0.9713,0.9817,0.9944,1.0205,1.048,1.0785,1.0267,1.0036,1.0145,0.9476,0.9023,0.891,0.8666,0.8383,0.8038,0.7389,0.7231,0.7415,0.6972,0.6748,0.6704,0.5808,0.5228,0.4875,0.3937,0.3267,0.2823,0.2598,0.2195,0.1835,0.1799,0.1588,0.1294,0.0,0.0,0.0,0.0,0.0,0.0,0.0,0.0,0.0,0.0,0.0,0.0,0.0,0.0,0.0,0.0,0.0,0.0,0.0,0.3928,0.4104,0.4478,0.4456,0.4696,0.5283,0.5391,0.5614,0.5971,0.5918,0.5932,0.6,0.6299,0.6322,0.6109,0.6339,0.6322,0.6087,0.6113,0.6009,0.5795,0.5736,0.5599,0.0,0.0,0.0,0.0,0.0,0.0,0.0,0.0,0.7568,0.7568,0.7568,0.7386,0.7171,0.7112,0.7112,0.7085,0.7009,0.7383,0.7712,0.7299,0.7706,0.0,0.0,0.827,0.8404,0.8495,0.8517,0.0,0.0,0.0,0.978,1.0348,1.019,1.0154,1.061,1.0338,1.0147,1.0279,1.012,1.0042,1.0051,1.007,1.0232,1.0506,1.0496,1.055,1.0838,1.0618,1.0374,1.0132,0.9891,0.9556,0.9096,0.8871,0.8641,0.8399,0.797,0.7676,0.7507,0.733,0.7061,0.6795,0.6438,0.5947,0.5364,0.4743,0.4208,0.3712,0.3092,0.2573,0.2114,0.2038,0.185,0.1566,0.0,0.0,0.0,0.0,0.0,0.0,0.0,0.0,0.0,0.0,0.0,0.0,0.0,0.0,0.0,0.0,0.0,0.0,0.3836,0.3972,0.413,0.4372,0.446,0.4701,0.5167,0.537,0.559,0.5813,0.585,0.5941,0.6059,0.6204,0.6207,0.6097,0.6355,0.6328,0.6079,0.6243,0.6124,0.5845,0.5822,0.5631,0.0,0.0,0.0,0.0,0.0,0.0,0.0,0.0,0.7408,0.7386,0.7467,0.73,0.7112,0.7112,0.7112,0.7085,0.6982,0.7297,0.7592,0.7278,0.0,0.0,0.7908,0.8186,0.8517,0.8517,0.8668,0.8941,0.9412,0.0,0.0,0.0,1.0218,1.0074,1.0555,1.029,1.01,1.0291,1.0366,1.0385,1.0406,1.037,1.0527,1.0767,1.0678,1.0669,1.0803,1.0818,1.0693,1.0465,1.0204,0.9905,0.954,0.9118,0.8823,0.8696,0.8456,0.8106,0.7724,0.7635,0.7415,0.7017,0.6925,0.6523,0.5897,0.5408,0.4877,0.4249,0.3527,0.2956,0.245,0.2226,0.1994,0.1746,0.0,0.0,0.0,0.0,0.0,0.0,0.0,0.0,0.503,0.4568,0.4457,0.0,0.0,0.0,0.0,0.0,0.0,0.0,0.3697,0.3836,0.3972,0.4086,0.435,0.4629,0.4884,0.5351,0.553,0.5403,0.5536,0.5813,0.62,0.6186,0.6047,0.5847,0.6563,0.6486,0.5831,0.6295,0.6295,0.5978,0.5845,0.5709,0.5567,0.0,0.0,0.0,0.0,0.0,0.0,0.0,0.7214,0.7139,0.7408,0.73,0.7112,0.7112,0.7112,0.7112,0.7112,0.724,0.7366,0.7242,0.0,0.0,0.7788,0.8122,0.8484,0.8484,0.9029,0.9502,0.9508,1.0218,0.0,1.0775,1.0621,1.0517,1.0517,1.0322,1.0227,1.0314,1.0471,1.0606,1.0606,1.0629,1.0626,1.0582,1.0795,1.0891,1.0891,1.0838,1.0944,1.1189,1.0315,0.9921,1.02,0.9361,0.8911,0.8911,0.8717,0.8463,0.8201,0.7984,0.7768,0.7507,0.7231,0.683,0.6384,0.5897,0.5142,0.4251,0.3808,0.3315,0.2865,0.2376,0.2062,0.1739,0.0,0.0,0.0,0.0,0.0,0.0,0.0,0.0,0.5053,0.4991,0.4608,0.0,0.0,0.0,0.0,0.0,0.0,0.0,0.37,0.4008,0.4166,0.4108,0.435,0.4591,0.4821,0.4974,0.5259,0.5766,0.5739,0.5824,0.5979,0.6032,0.6074,0.6106,0.6413,0.6364,0.6089,0.6238,0.6119,0.5845,0.5822,0.5631,0.538,0.0,0.0,0.0,0.0,0.0,0.0,0.0,0.0,0.0,0.7192,0.7258,0.7278,0.7133,0.7203,0.7282,0.7193,0.7424,0.0,0.7523,0.0,0.0,0.0,0.808,0.0,0.0,0.8587,0.8954,0.9249,0.9613,0.0,1.0125,1.0133,1.0122,1.0328,1.0292,1.0359,1.0692,1.1084,1.1227,1.1102,1.1086,1.1028,1.0885,1.0749,1.0702,1.0706,1.0679,1.0646,1.0551,1.0291,1.0021,0.9785,0.9705,0.9519,0.9174,0.9283,0.8935,0.8197,0.8119,0.8005,0.7768,0.7503,0.7282,0.7102,0.6476,0.5534,0.4588,0.4526,0.4126,0.3564,0.3325,0.2999,0.2608,0.0,0.0,0.0,0.0,0.0,0.0,0.0,0.0,0.5505,0.5367,0.4862,0.4502,0.0,0.0,0.0,0.0,0.0,0.0,0.0,0.4074,0.4232,0.4108,0.435,0.4626,0.4924,0.4857,0.5102,0.5661,0.559,0.5614,0.5756,0.586,0.5966,0.6087,0.6217,0.6163,0.5978,0.6151,0.6059,0.5804,0.5874,0.5722,0.5415,0.0,0.0,0.0,0.0,0.0,0.0,0.0,0.0,0.0,0.6815,0.7023,0.7251,0.7079,0.7207,0.7394,0.7304,0.7462,0.0,0.7807,0.8037,0.818,0.8088,0.0,0.0,0.0,0.8643,0.8953,0.9165,0.9581,0.0,0.9911,1.003,1.0154,1.0149,1.028,1.049,1.0733,1.1184,1.1411,1.1305,1.14,1.1386,1.1279,1.1018,1.086,1.0899,1.0711,1.0518,1.0441,1.036,1.0166,0.9858,0.9862,0.9689,0.9432,0.9443,0.9139,0.8464,0.8486,0.8368,0.816,0.7812,0.7595,0.7459,0.6922,0.6132,0.5278,0.5087,0.4667,0.4123,0.3803,0.3486,0.3188,0.0,0.0,0.862,0.8002,0.0,0.0,0.0,0.0,0.6253,0.5765,0.52,0.4931,0.0,0.0,0.0,0.0,0.0,0.3994,0.3744,0.4096,0.4232,0.4086,0.435,0.4674,0.5056,0.4936,0.4982,0.5236,0.5211,0.5307,0.55,0.5735,0.5868,0.595,0.5999,0.5893,0.5694,0.6069,0.6066,0.5808,0.598,0.586,0.5584,0.5583,0.0,0.0,0.0,0.0,0.0,0.0,0.0,0.0,0.6386,0.6722,0.709,0.6939,0.7124,0.7394,0.7394,0.741,0.7562,0.8068,0.8022,0.0,0.8211,0.8295,0.8386,0.8565,0.0,0.9295,0.9246,0.9879,1.0303,0.9992,1.0218,1.0331,0.9992,1.0255,1.0523,1.0595,1.0965,1.13,1.1421,1.1626,1.1778,1.18,1.1581,1.1394,1.135,1.0914,1.0656,1.0651,1.0429,1.0279,1.0305,0.9865,0.9637,0.9662,0.9458,0.9219,0.8999,0.8938,0.8803,0.8592,0.8141,0.779,0.7482,0.7241,0.6753,0.616,0.5569,0.5069,0.4631,0.4016,0.3722,0.3622,0.0,0.0,0.8738,0.8035,0.0,0.0,0.0,0.0,0.0,0.6406,0.0,0.0,0.0,0.0,0.0,0.0,0.418,0.4086,0.402,0.4188,0.4188,0.395,0.4302,0.456,0.4706,0.4684,0.4701,0.4745,0.5115,0.5331,0.5426,0.5889,0.6151,0.6181,0.5684,0.5725,0.6119,0.5868,0.5716,0.5654,0.5692,0.5578,0.5356,0.5369,0.5329,0.0,0.0,0.0,0.0,0.0,0.0,0.0,0.6255,0.6668,0.7132,0.6959,0.7124,0.7394,0.7394,0.7557,0.0,0.8111,0.8211,0.8186,0.8084,0.8343,0.8612,0.8654,0.9021,0.9348,0.9471,0.9656,0.9854,1.0115,1.0067,1.0067,1.0143,1.0368,1.0498,1.0517,1.1058,1.1676,1.2243,1.2234,1.2314,1.2687,1.2367,1.2057,1.1879,1.1407,1.1089,1.0914,1.0518,1.0284,1.0203,1.0019,0.9952,1.0087,0.9914,0.9822,0.9772,0.9361,0.8983,0.8584,0.8319,0.7959,0.7561,0.7352,0.6912,0.6417,0.6408,0.5974,0.5379,0.5154,0.4806,0.4412,0.0,0.0,0.0,0.0,0.0,0.0,0.0,0.0,0.0,0.0,0.0,0.0,0.0,0.0,0.0,0.0,0.4247,0.4174,0.4108,0.4236,0.4232,0.41,0.4386,0.4556,0.4596,0.4596,0.4706,0.4938,0.5138,0.5278,0.5309,0.5945,0.6188,0.6057,0.5726,0.567,0.5795,0.5559,0.5462,0.5466,0.5553,0.5536,0.5443,0.5445,0.5453,0.5434,0.5325,0.0,0.0,0.0,0.0,0.0,0.0,0.0,0.6937,0.6824,0.6953,0.7162,0.7337,0.0,0.0,0.8153,0.0,0.8048,0.8179,0.8379,0.861,0.8816,0.9176,0.9453,0.9458,0.9595,0.9707,0.9636,0.9771,0.9922,0.9922,1.0255,1.064,1.0956,1.147,1.2025,1.2665,1.2958,1.3121,1.3324,1.3124,1.2869,1.2485,1.2057,1.1628,1.1154,1.0809,1.0499,1.0256,1.0197,1.0197,1.0256,1.0197,1.0081,0.9985,0.9397,0.8935,0.8582,0.8277,0.7949,0.7647,0.7522,0.7223,0.6802,0.6766,0.6418,0.5918,0.5638,0.5303,0.4932,0.0,0.0,0.0,0.0,0.0,0.0,0.0,0.0,0.0,0.0,0.0,0.0,0.0,0.0,0.4933,0.0,0.0,0.0,0.4152,0.4214,0.4298,0.4342,0.4491,0.4596,0.4596,0.4596,0.4803,0.5241,0.5226,0.5278,0.5433,0.6073,0.628,0.6085,0.607,0.584,0.5529,0.5445,0.5374,0.533,0.553,0.5596,0.5589,0.5624,0.5636,0.561,0.5447,0.538,0.5352,0.5352,0.0,0.0,0.0,0.0,0.6657,0.6693,0.6726,0.6813,0.7189,0.0,0.7532,0.8113,0.7993,0.0,0.8215,0.8361,0.8485,0.8833,0.9272,0.9567,0.9379,0.9612,0.9657,0.9175,0.9511,0.9771,0.9657,1.0218,1.0819,1.1354,1.1865,1.237,1.2936,1.3514,1.3831,1.3807,1.386,1.3669,1.3215,1.2833,1.2277,1.1499,1.1241,1.088,1.037,1.0361,1.0361,1.037,1.0361,1.025,1.0028,0.9393,0.898,0.8747,0.8346,0.8044,0.7814,0.7741,0.7465,0.7113,0.6918,0.6641,0.6296,0.5831,0.5518,0.5282,0.0,0.0,0.0,0.0,0.0,0.0,0.0,0.0,0.0,0.0,0.7192,0.6855,0.0,0.5778,0.5298,0.4957,0.4539,0.4294,0.4276,0.0,0.0,0.4456,0.4499,0.4539,0.4596,0.4539,0.4656,0.4963,0.5178,0.5652,0.633,0.6549,0.6877,0.7257,0.6793,0.6552,0.647,0.6024,0.5637,0.5402,0.5533,0.5588,0.5612,0.5723,0.5776,0.5763,0.5742,0.5654,0.5567,0.5567,0.5681,0.0,0.0,0.0,0.6497,0.6712,0.663,0.6507,0.6725,0.0,0.7431,0.0,0.7983,0.7952,0.0,0.0,0.8405,0.0,0.909,0.9576,0.9583,0.9453,0.9397,0.9511,0.9435,0.9511,0.9809,1.0513,1.1049,1.1122,1.1838,1.2567,1.3261,1.3485,1.3727,1.4199,1.4462,1.4405,1.3997,1.3695,1.3137,1.2277,1.1843,1.1273,1.0568,1.0631,1.0631,1.0568,1.0636,1.0511,1.0246,0.9823,0.9572,0.9465,0.9049,0.8664,0.8263,0.7938,0.7529,0.7177,0.7138,0.6894,0.6486,0.6018,0.575,0.5482,0.0,0.0,0.0,0.0,0.0,0.0,0.0,0.0,0.0,0.0,0.0,0.7126,0.0,0.6213,0.577,0.5176,0.4924,0.4696,0.4438,0.4351,0.4386,0.4486,0.4647,0.4691,0.4596,0.4648,0.4843,0.5175,0.5377,0.592,0.6794,0.7034,0.7258,0.7431,0.732,0.6976,0.6538,0.6598,0.6254,0.5719,0.6079,0.6083,0.5898,0.6066,0.6056,0.6019,0.6444,0.6293,0.5916,0.6136,0.6113,0.5916,0.5726,0.0,0.0,0.0,0.6096,0.6023,0.6276,0.6497,0.6766,0.0,0.7458,0.7391,0.745,0.7693,0.7934,0.8043,0.8449,0.8822,0.9051,0.9013,0.9013,0.9246,0.9289,0.9511,1.0143,1.0738,1.126,1.1706,1.2268,1.2871,1.353,1.3679,1.3963,1.4413,1.4575,1.4517,1.4272,1.4033,1.3568,1.2839,1.2186,1.1579,1.1006,1.1021,1.115,1.1383,1.1015,1.0779,1.0669,0.9956,0.9521,0.9256,0.8845,0.8492,0.8194,0.7917,0.7682,0.7531,0.7411,0.7138,0.671,0.6405,0.6057,0.567,0.0,0.0,0.0,0.0,0.0,0.0,0.0,0.0,0.0,0.0,0.0,0.0,0.0,0.0,0.0,0.0,0.5434,0.5111,0.4629,0.4544,0.4531,0.4569,0.4744,0.4749,0.4596,0.4709,0.4952,0.5374,0.5521,0.6045,0.6963,0.7265,0.7452,0.7531,0.7788,0.7455,0.6761,0.7208,0.6873,0.6084,0.6837,0.6784,0.6327,0.6905,0.6796,0.6416,0.725,0.7077,0.6466,0.6687,0.6539,0.6202,0.5684,0.5648,0.0,0.0,0.0,0.578,0.0,0.0,0.6222,0.6895,0.6944,0.6858,0.0,0.0,0.7383,0.0,0.7743,0.797,0.8335,0.8552,0.878,0.898,0.9246,0.9695,1.04,1.0962,1.1558,1.215,1.2673,1.3101,1.3454,1.3818,1.4101,1.4372,1.4567,1.4582,1.442,1.4237,1.3864,1.3137,1.2491,1.1886,1.1327,1.1262,1.1492,1.1954,1.1402,1.1139,1.1096,1.0342,0.9791,0.9359,0.8778,0.8431,0.8254,0.8026,0.7919,0.7842,0.7642,0.7369,0.7019,0.6714,0.6304,0.5848,0.0,0.0,0.0,0.0,0.0,0.0,0.0,0.0,0.0,0.0,0.0,0.0,0.7652,0.7114,0.6759,0.6732,0.6081,0.5438,0.4916,0.4633,0.4578,0.4779,0.4675,0.0,0.4596,0.4618,0.4829,0.53,0.5428,0.5946,0.681,0.7095,0.7453,0.7887,0.8227,0.8098,0.7638,0.7856,0.7351,0.6484,0.7777,0.7655,0.6859,0.8501,0.8182,0.7005,0.8129,0.8009,0.7275,0.6997,0.6866,0.6764,0.6215,0.5937,0.5865,0.0,0.0,0.0,0.0,0.592,0.0,0.6586,0.6629,0.6538,0.0,0.0,0.6916,0.696,0.7096,0.7325,0.7525,0.8196,0.8775,0.8965,0.9501,1.003,1.0443,1.1335,1.1966,1.2003,1.2709,1.3127,1.2958,1.3568,1.3968,1.3856,1.4485,1.4746,1.4426,1.4398,1.3977,1.3137,1.2833,1.2229,1.1327,1.1227,1.1452,1.191,1.1804,1.1645,1.1474,1.1243,1.0857,1.0366,0.9385,0.8837,0.866,0.8449,0.8264,0.8063,0.788,0.7642,0.7407,0.683,0.6353,0.5928,0.0,0.0,0.0,0.0,0.0,0.0,0.0,0.0,0.0,0.0,0.0,0.0,0.0,0.7641,0.7335,0.72,0.6344,0.5631,0.5192,0.4992,0.4902,0.4924,0.4835,0.4727,0.4596,0.4596,0.4829,0.53,0.5403,0.5824,0.6553,0.7033,0.7359,0.7562,0.8376,0.8445,0.8095,0.9017,0.8584,0.738,0.8465,0.8472,0.7887,0.82,0.7991,0.754,0.8148,0.8028,0.7588,0.7461,0.7654,0.0,0.0,0.6147,0.6301,0.5885,0.0,0.0,0.0,0.0,0.0,0.6185,0.6223,0.6168,0.6362,0.6412,0.6464,0.6647,0.678,0.6888,0.7118,0.8026,0.877,0.8891,0.9702,1.0424,1.0772,1.1482,1.2114,1.2342,1.2746,1.3083,1.3273,1.341,1.36,1.3903,1.421,1.4392,1.4387,1.4393,1.4188,1.3743,1.3476,1.3007,1.2326,1.2145,1.2221,1.2544,1.2001,1.1815,1.1908,1.113,1.0667,1.0489,0.9847,0.9392,0.9058,0.874,0.839,0.8068,0.7876,0.7607,0.728,0.6938,0.6637,0.6314,0.0,0.0,0.0,1.0058,0.0,0.9673,0.9498,0.9166,0.8903,0.8811,0.0,0.0,0.0,0.0,0.7864,0.754,0.6777,0.6153,0.5696,0.5438,0.5266,0.5164,0.5068,0.4893,0.4666,0.4666,0.4825,0.5178,0.525,0.5628,0.6253,0.6775,0.7062,0.7172,0.8028,0.828,0.811,0.9094,0.8837,0.7798,0.9008,0.9117,0.8607,0.9104,0.8972,0.8566,0.9025,0.8934,0.8514,0.8317,0.0,0.0,0.0,0.6393,0.6293,0.0,0.0,0.0,0.5372,0.0,0.0,0.0,0.5701,0.5737,0.5957,0.0,0.6071,0.6283,0.6486,0.6665,0.6837,0.7816,0.8628,0.8701,0.9637,1.0491,1.0807,1.1384,1.1903,1.2155,1.2568,1.2891,1.3042,1.3208,1.3499,1.3947,1.4048,0.0,1.4496,1.4429,1.4261,1.3955,1.3604,1.3288,1.306,1.2723,1.2687,1.2929,1.2313,1.2136,1.2298,1.1426,1.1014,1.0977,1.0511,0.9997,0.9473,0.9051,0.8746,0.8484,0.8144,0.78,0.7462,0.7116,0.6849,0.6552,1.0744,1.0718,1.0667,1.0547,1.0257,1.0025,1.0025,0.9577,0.9237,0.9237,0.0,0.0,0.0,0.0,0.0,0.7765,0.7399,0.6999,0.6458,0.5995,0.5656,0.5533,0.5333,0.5089,0.4823,0.4801,0.4835,0.4916,0.5056,0.538,0.5932,0.6319,0.6605,0.681,0.7291,0.7557,0.77,0.8051,0.7959,0.7705,0.9394,0.9559,0.9055,1.1346,1.1285,1.0055,1.088,1.0763,0.0,0.9497,0.0,0.0,0.0,0.662,0.5809,0.0,0.0,0.0,0.0,0.0,0.0,0.0,0.0,0.0,0.538,0.0,0.5801,0.5801,0.6242,0.6601,0.6601,0.7582,0.8383,0.8328,0.9307,1.0229,1.0559,1.108,1.143,1.143,1.2165,1.2565,1.2261,1.3006,1.3616,1.3968,1.4005,1.419,1.4654,1.4424,1.4118,1.3747,1.3188,1.3041,1.3328,1.2916,1.2808,1.2985,1.2736,1.2599,1.2599,1.2194,1.2003,1.1966,1.1372,1.0663,0.9922,0.9506,0.9322,0.9246,0.867,0.8285,0.8038,0.7442,0.6989,0.6642,1.115,1.1124,1.1099,1.0972,1.0794,1.0616,1.0514,1.0095,0.9784,0.0,0.0,0.0,0.9237,0.9106,0.8782,0.8133,0.7898,0.756,0.702,0.6584,0.6245,0.6012,0.5719,0.5395,0.5019,0.4775,0.4875,0.5343,0.5372,0.5725,0.6334,0.6649,0.6762,0.6759,0.7167,0.7165,0.6899,0.7922,0.8441,0.8679,0.9578,1.0312,1.0888,1.0985,1.0899,0.0,0.0,1.0307,1.026,0.0,0.9929,1.0219,0.0,0.7237,0.6447,0.0,0.0,0.0,0.5486,0.0,0.0,0.0,0.0,0.0,0.5696,0.581,0.5899,0.6053,0.6467,0.681,0.6754,0.7529,0.824,0.8349,0.953,1.0484,1.0524,1.116,1.1635,1.1635,1.2046,1.2435,1.2741,1.3019,1.3284,0.0,1.3866,1.3991,1.3992,1.3966,1.4024,1.4283,1.3673,1.3404,1.3589,1.3286,1.3048,1.2952,1.2861,1.2746,1.2599,1.2342,1.215,1.1966,1.1521,1.1186,1.0925,1.0255,0.9771,0.9473,0.9008,0.8613,0.824,0.7545,0.7091,0.6766,1.1477,1.1477,1.1452,1.1352,1.1192,1.1049,1.0972,1.059,1.0283,0.0,0.0,0.0,1.0036,0.9673,0.9251,0.8862,0.854,0.812,0.7561,0.7223,0.688,0.6556,0.6287,0.5941,0.5437,0.5187,0.5162,0.5368,0.5466,0.578,0.6303,0.6655,0.6805,0.6832,0.6971,0.6859,0.659,0.7191,0.7937,0.8819,0.9515,1.0407,1.1339,1.1471,1.1488,0.0,0.0,0.0,1.1209,1.0727,1.0766,0.0,0.0,0.0,0.0,0.0,0.0,0.0,0.0,0.0,0.0,0.5574,0.0,0.0,0.5525,0.5595,0.5719,0.6026,0.6394,0.6679,0.6773,0.7319,0.7832,0.8059,0.9015,0.9856,1.0249,1.089,1.1294,1.1268,1.1836,1.226,1.2278,1.282,1.3184,1.3289,1.3601,1.3755,1.3697,1.3775,1.3963,1.4216,1.3769,1.3575,1.3672,1.3499,1.326,1.301,1.2936,1.279,1.2599,1.2378,1.2224,1.2114,1.1706,1.1521,1.1484,1.085,1.0331,0.9916,0.9533,0.9175,0.8807,0.8048,0.7604,0.7303,0.0,1.1778,1.1753,1.1753,1.1553,1.1377,1.1352,1.1023,1.0734,0.0,1.0756,1.0868,1.0935,1.0253,0.9756,0.9763,0.9186,0.8639,0.812,0.7847,0.7528,0.7097,0.6952,0.661,0.601,0.5854,0.5664,0.5372,0.5558,0.582,0.6139,0.6563,0.6844,0.7012,0.6829,0.6708,0.6617,0.6325,0.7053,0.8474,0.9364,1.0178,0.0,0.0,1.2599,1.2154,1.2449,1.2529,1.248,1.2171,1.1587,0.0,0.0,0.0,0.0,0.0,0.6764,0.0,0.0,0.0,0.0,0.527,0.5294,0.0,0.5215,0.5309,0.5509,0.5861,0.6194,0.6478,0.679,0.7116,0.7419,0.7637,0.8146,0.8831,0.9832,1.0412,1.0701,1.0649,1.1557,1.1995,1.1416,1.2427,1.304,1.2931,1.3237,1.3506,1.3683,1.3766,1.382,1.379,1.3644,1.357,1.357,1.3527,1.3382,1.32,1.301,1.2826,1.2599,1.2415,1.2335,1.2268,1.1892,1.1744,1.1706,1.1335,1.0925,1.0513,1.0105,0.9829,0.9527,0.8745,0.8315,0.7981,1.215,1.2175,1.215,1.2051,1.1977,1.1877,1.1644,1.1368,1.1234,1.1381,1.1267,1.1199,1.1233,1.0662,1.0221,1.0111,0.95,0.8981,0.8672,0.8495,0.819,0.7672,0.7522,0.7191,0.6645,0.6448,0.6402,0.6495,0.6515,0.6661,0.6878,0.7102,0.7155,0.7078,0.7102,0.7046,0.6913,0.6741,0.7348,0.8474,0.9353,1.0412,1.1628,1.2738,1.3083,1.2966,1.2866,1.2809,1.276,1.2494,1.1902,1.1022,0.0,0.0,0.0,0.7458,0.0,0.0,0.0,0.0,0.0,0.0,0.593,0.0,0.5743,0.5886,0.6122,0.6215,0.6595,0.6971,0.7016,0.728,0.7501,0.76,0.8126,0.8801,0.9647,1.003,1.0439,1.094,1.1292,1.1589,1.1855,1.1857,1.2034,1.2466,1.2833,1.3185,1.3513,1.3403,1.3388,1.3564,1.3395,1.3366,1.3513,1.3521,1.3382,1.32,1.3156,1.2936,1.2599,1.2562,1.2452,1.2298,1.204,1.1929,1.1929,1.1669,1.1335,1.0925,1.0556,1.0135,0.9669,0.9052,0.846,0.7977,1.2038,1.228,1.2455,1.2323,1.2298,1.22,1.1952,1.1888,1.1852,1.171,1.1747,1.1887,1.2121,1.1508,1.1002,1.0778,1.0309,0.9828,0.9275,0.9173,0.8945,0.846,0.8235,0.784,0.7321,0.7142,0.7009,0.69,0.6982,0.7081,0.7257,0.7353,0.7399,0.7411,0.7499,0.7605,0.7669,0.735,0.8019,0.9343,0.9289,0.0,1.0761,1.1659,1.2144,1.2335,1.2439,1.2776,1.3208,1.3294,1.2699,0.0,1.0293,1.0063,0.9874,0.0,0.746,0.7738,0.0,0.0,0.0,0.6445,0.0,0.0,0.0,0.6136,0.6107,0.6345,0.6673,0.6944,0.7115,0.7336,0.7462,0.737,0.7657,0.8161,0.8865,0.9473,1.001,1.0393,1.0803,1.1108,1.1273,1.1347,1.1542,1.1818,1.2352,1.2705,1.2856,1.2999,1.3179,1.3346,1.3346,1.3382,1.3492,1.3492,1.3382,1.32,1.3083,1.2852,1.2482,1.2337,1.2148,1.1977,1.1873,1.1709,1.1556,1.1518,1.1269,1.0959,1.0935,1.0724,1.032,0.9745,0.9191,0.8645,1.1925,1.2296,1.2604,1.2608,1.2554,1.248,1.2258,1.2415,1.2413,1.2065,1.2305,1.2677,1.3077,1.2488,1.1915,1.1631,1.1331,1.0806,1.009,0.9901,0.9673,0.9287,0.8864,0.8443,0.7999,0.7872,0.7634,0.7309,0.7407,0.7489,0.7558,0.7562,0.7629,0.7717,0.7813,0.8114,0.8468,0.7897,0.0,1.0242,0.0,0.9442,1.0231,1.1113,1.162,1.1855,1.2211,1.2879,1.3601,1.3992,1.3477,1.2387,1.0879,1.0445,0.0,0.0,0.0,0.0,0.0,0.0,0.0,0.0,0.0,0.7111,0.0,0.0,0.0,0.6473,0.0,0.0,0.0,0.0,0.0,0.0,0.0,0.0,0.0,0.8608,0.0,0.9731,1.0295,1.0624,1.0609,1.0933,1.1174,1.1101,1.1813,1.2186,1.2088,1.2656,1.3055,1.3136,1.339,1.3492,1.3492,1.3492,1.3382,1.32,1.3046,1.2775,1.2396,1.2112,1.1914,1.1751,1.1677,1.1504,1.1271,1.1361,1.1252,1.0994,1.1245,1.1137,1.0787,1.0384,0.9863,0.9314,1.2365,1.2289,1.2398,1.2865,1.2798,1.2686,1.2627,1.2669,1.2716,1.2843,1.3173,1.3414,1.3511,1.319,1.289,1.2728,1.2265,1.1734,1.1246,1.0659,1.0193,0.99,0.9172,0.8765,0.8679,0.8554,0.8456,0.8423,0.8429,0.8317,0.8098,0.7943,0.78,0.7701,0.7711,0.8166,0.0,0.0,0.8882,0.0,0.9902,1.0623,0.0,1.3438,1.3652,1.3309,1.3528,1.3681,1.379,0.0,1.355,1.2684,0.0,1.0974,1.0479,0.9049,0.0,0.0,0.0,0.0,0.0,0.0,0.8504,0.0,0.0,0.0,0.691,0.6723,0.0,0.0,0.0,0.0,0.0,0.0,0.0,0.0,0.6616,0.7115,0.8104,0.9534,0.9882,1.015,1.0552,1.07,1.0677,1.0443,1.1151,1.1626,1.1659,1.2523,1.2953,1.2855,1.3273,1.3492,1.3492,1.3492,1.3382,1.32,1.32,1.2884,1.2396,1.236,1.2158,1.1867,1.1867,1.1826,1.1799,1.1833,1.1724,1.1566,1.1181,1.0746,1.0291,1.029,0.9868,0.9315,1.2488,1.2716,1.2946,1.3078,1.3118,1.311,1.3153,1.331,1.3552,1.3925,1.3933,1.403,1.4324,0.0,0.0,0.0,0.0,1.2643,0.0,0.0,1.1306,1.1113,1.0395,0.9885,0.9626,0.9558,0.926,0.8718,0.8791,0.8778,0.8656,0.8507,0.8395,0.8363,0.8592,0.0,1.0143,0.0,1.0804,0.0,0.0,1.2842,0.0,1.2543,1.2236,1.2615,1.3731,1.4145,1.4181,0.0,1.3985,0.0,0.0,0.0,0.0,1.0402,0.0,0.0,0.0,0.0,0.0,0.0,0.0,0.0,0.8568,0.0,0.6932,0.0,0.0,0.0,0.0,0.0,0.0,0.0,0.7014,0.0,0.0,0.0,0.7456,0.0,0.0,0.0,0.9337,0.9849,1.0009,0.9631,1.0197,1.0782,1.128,1.1696,1.2109,1.2613,1.301,1.3126,1.2928,1.3119,1.3178,1.3071,1.2956,1.2756,1.2441,1.2276,1.1933,1.1549,1.1626,1.1572,1.1472,1.1822,1.1732,1.1362,1.1395,1.1015,1.0498,1.0567,1.0156,0.9592,1.2802,1.307,1.3243,1.3294,1.3338,1.3443,1.3671,1.3981,1.4354,1.4809,1.4643,0.0,1.5083,1.4914,0.0,0.0,1.4018,1.3612,0.0,0.0,1.229,1.2349,1.154,1.1002,1.0821,1.0619,1.0161,0.9416,0.9389,0.9398,0.9394,0.9162,0.9001,0.8945,0.0,0.9892,1.0715,0.0,1.2102,1.4108,1.3971,1.4067,1.4067,1.2289,1.1863,1.2388,1.3869,1.4353,1.4389,1.4756,1.4346,0.0,1.3219,1.2629,1.2002,0.0,0.0,0.0,1.1927,0.0,0.0,0.0,0.0,0.0,0.0,0.0,0.0,0.0,0.0,0.0,0.0,0.0,0.0,0.0,0.0,0.6831,0.0,0.6673,0.0,0.0,0.0,0.0,0.0,0.9203,0.9437,0.899,0.9408,0.9917,1.0479,1.0867,1.1393,1.2138,1.2633,1.2804,1.2658,1.2804,1.2921,1.3009,1.2774,1.2564,1.2353,1.2119,1.1803,1.1502,1.1525,1.1472,1.1372,1.1741,1.1645,1.1316,1.1518,1.1275,1.085,1.0791,1.0394,0.9861,1.3507,1.3166,1.2988,1.349,1.3386,1.3436,1.4143,1.4666,1.5031,0.0,0.0,0.0,0.0,0.0,0.0,0.0,0.0,1.4751,1.4537,0.0,1.2877,0.0,0.0,1.1825,0.0,1.169,1.1254,1.104,1.0594,1.0365,1.0351,0.9897,0.9526,0.9285,0.9379,0.9624,1.0058,1.0583,1.1815,1.3465,1.3752,1.3418,1.2797,0.0,1.4052,1.3528,1.4173,0.0,0.0,1.4721,1.4489,0.0,0.0,0.0,0.0,0.0,0.0,0.0,0.0,0.0,0.0,1.2257,0.0,0.0,0.0,0.0,0.8842,0.0,0.0,0.0,0.0,0.0,0.0,0.0,0.0,0.0,0.0,0.0,0.0,0.0,0.0,0.0,0.0,0.8923,0.9059,0.0,0.8918,0.9104,0.9068,1.0227,1.1033,1.1331,1.2097,1.2687,1.2987,1.2653,1.2694,1.3001,1.2653,1.2332,1.2018,1.2018,1.1978,1.1967,1.1706,1.1743,1.1967,1.1706,1.167,1.1739,1.1414,1.1294,1.1226,1.0837,1.0393,0.9989,1.3956,1.3778,1.3608,1.3718,1.3979,1.4441,1.512,1.5241,0.0,0.0,1.5678,0.0,0.0,1.6303,1.6169,0.0,0.0,1.5245,1.4653,1.4092,0.0,0.0,0.0,1.31,0.0,0.0,1.2373,1.1628,1.1213,1.1014,1.1034,1.068,1.0409,1.0302,0.0,1.0666,0.0,0.0,0.0,0.0,0.0,1.4774,1.3814,0.0,1.3961,1.2989,1.3724,1.4453,0.0,1.5399,1.5363,1.5213,1.5365,1.5124,1.4814,1.5025,1.5047,1.5024,0.0,0.0,1.5043,1.422,0.0,0.0,0.0,0.0,0.0,0.0,0.0,0.0,0.0,0.0,0.0,0.0,0.0,0.0,0.0,0.0,0.0,0.0,0.0,0.0,0.0,0.0,0.0,0.0,0.8379,0.0,0.9028,0.9775,1.0335,1.0698,1.1654,1.2186,1.2205,1.2317,1.2428,1.2532,1.242,1.2244,1.2003,1.2003,1.2015,1.2061,1.1955,1.2091,1.2335,1.248,1.2294,1.1953,1.2054,1.1772,1.1277,1.0894,1.0546,1.0149,1.4441,1.454,1.4391,1.3947,0.0,0.0,0.0,0.0,0.0,0.0,1.6345,0.0,1.6987,0.0,1.6726,0.0,1.6266,1.58,1.535,1.4934,0.0,1.4682,1.4635,1.4404,0.0,0.0,0.0,0.0,0.0,1.1921,0.0,0.0,0.0,0.0,0.0,1.1133,1.1626,1.274,1.3517,0.0,0.0,1.5805,0.0,0.0,1.422,1.2952,0.0,1.4844,1.5346,1.5691,1.5832,1.5964,1.6307,1.6342,1.6333,1.6551,1.6621,1.6621,1.6621,1.6621,0.0,1.5445,1.5036,0.0,1.3461,0.0,1.198,0.0,0.0,0.0,0.0,0.0,0.0,0.0,0.0,0.0,0.0,0.6072,0.0,0.0,0.0,0.0,0.0,0.0,0.0,0.0,0.0,0.0,0.0,0.922,0.977,1.0214,1.1206,1.176,1.1792,1.1983,1.2243,1.2566,1.2332,1.2279,1.2377,1.2232,1.2261,1.2422,1.2298,1.2406,1.2706,1.279,1.2689,1.2449,1.2347,1.2102,1.1682,1.1111,1.0649,1.0269,1.4991,1.5359,1.5261,0.0,1.4875,0.0,0.0,0.0,1.691,0.0,1.7203,1.7235,1.7491,1.7505,1.7505,1.7505,1.6812,1.6437,1.6603,1.5782,0.0,0.0,1.5707,1.561,1.5753,0.0,0.0,0.0,0.0,0.0,0.0,0.0,0.0,0.0,1.1243,0.0,1.1044,1.2525,1.3418,1.397,1.6293,1.6375,1.5196,1.585,1.4981,1.3572,1.5193,1.5454,1.507,1.5655,1.5964,1.6202,1.6542,1.6638,1.6707,1.7097,1.7201,1.7201,1.7201,1.7235,1.6961,1.5947,1.5705,0.0,0.0,0.0,1.3542,0.0,0.0,0.0,0.0,0.0,0.0,0.0,0.0,0.0,0.0,0.0,0.5739,0.0,0.0,0.0,0.0,0.0,0.0,0.0,0.0,0.0,0.0,0.8657,0.9316,0.9862,1.0756,1.141,1.1797,1.166,1.2101,1.3081,1.2426,1.2469,1.3084,1.2695,1.2664,1.2964,1.2663,1.2711,1.3012,1.2683,1.285,1.3212,1.2357,1.2252,1.2442,1.1443,1.0744,1.0333,1.5429,1.5919,1.6285,0.0,1.6358,1.6494,0.0,0.0,0.0,0.0,1.7424,1.7407,1.7629,1.7647,1.7647,1.7647,1.7474,0.0,0.0,0.0,0.0,1.657,1.6546,1.6477,1.6284,1.5884,1.5733,1.5778,0.0,0.0,1.4162,0.0,0.0,0.0,0.0,1.1795,1.1472,1.2381,1.3597,1.5006,1.659,1.6581,1.579,0.0,1.6785,1.5348,1.533,1.5813,1.6436,1.6395,1.6517,1.6735,1.6959,1.7141,1.7289,1.7392,1.7426,1.7426,1.7426,1.7486,1.7516,1.7222,1.716,1.7047,0.0,0.0,0.0,0.0,0.0,0.0,0.0,0.0,0.0,0.0,0.0,0.0,0.0,0.0,0.0,0.5954,0.0,0.0,0.0,0.0,0.0,0.0,0.0,0.0,0.0,0.0,0.9047,0.9289,0.9986,1.0766,1.1624,1.1518,1.1928,1.2877,1.2616,1.2607,1.2865,1.2622,1.2692,1.2997,1.2899,1.3155,1.3578,1.3332,1.3196,1.3041,1.2721,1.2302,1.1794,1.1115,1.0776,1.0649,1.6514,1.6912,0.0,1.7912,0.0,0.0,1.8056,1.7824,0.0,1.7948,1.8076,0.0,1.8075,1.8056,1.809,1.8158,1.8056,0.0,1.7737,0.0,0.0,1.7172,1.729,1.7253,1.698,1.6809,0.0,1.6329,0.0,0.0,1.4412,0.0,0.0,0.0,0.0,1.2305,1.2181,1.306,1.4295,1.5725,1.6788,1.7029,0.0,1.7974,1.7908,1.7178,1.6753,1.6759,1.6982,1.6782,1.6795,1.6968,1.7304,1.7554,1.7745,1.7803,1.7906,1.794,1.794,1.7998,1.8056,1.8056,1.8056,1.8031,1.7919,1.7589,1.7071,0.0,1.5693,1.5067,0.0,0.0,0.0,0.0,0.0,0.0,0.0,0.0,0.0,0.0,0.6082,0.0,0.0,0.0,0.0,0.0,0.0,0.0,0.0,0.0,0.8633,0.8865,0.9711,1.0577,1.1376,1.1616,1.2188,1.3149,1.2993,1.3094,1.3459,1.3261,1.3246,1.3437,1.3437,1.3617,1.3884,1.3773,1.365,1.3555,1.3268,1.2672,1.1934,1.1529,1.127,1.1095,1.7716,1.8019,0.0,0.0,0.0,0.0,0.0,1.8698,0.0,1.858,0.0,1.8913,1.8539,1.8549,1.865,1.8774,0.0,1.8496,1.861,1.8327,1.8034,1.7845,1.8004,1.799,1.7803,1.7733,1.7424,0.0,0.0,0.0,0.0,0.0,0.0,0.0,0.0,0.0,0.0,1.4116,1.5153,1.6123,1.6929,1.7594,1.81,1.8317,1.8526,1.8691,1.8471,1.7843,1.7126,1.7011,1.7012,1.7151,1.7579,1.7896,1.8144,1.8303,1.8482,1.8583,1.8583,1.8583,1.8583,1.8617,1.8583,1.8583,1.864,1.8438,1.8022,1.7281,1.6767,1.6238,0.0,0.0,0.0,0.0,0.0,0.0,0.0,0.0,0.0,0.0,0.0,0.0,0.0,0.0,0.0,0.0,0.0,0.0,0.0,0.0,0.8189,0.867,0.971,1.058,1.1227,1.1753,1.2562,1.359,1.342,1.366,1.4257,1.4078,1.401,1.401,1.401,1.401,1.4036,1.3994,1.4079,1.4172,1.3756,1.3214,1.2654,1.2422,1.2106,1.1824,1.7716,0.0,0.0,0.0,0.0,1.9761,1.9254,1.8915,1.8762,1.8961,1.8809,1.8628,1.8509,1.8808,1.8942,1.8808,1.9008,0.0,0.0,0.0,0.0,1.8994,1.8767,1.8734,1.8818,1.8448,1.83,0.0,0.0,0.0,0.0,0.0,0.0,0.0,0.0,0.0,1.3771,1.4693,0.0,1.5958,1.7157,1.7695,1.787,1.8193,1.8536,1.8822,1.8449,1.8142,1.7832,1.7499,1.7564,1.7837,1.7906,1.8269,1.8674,1.8707,1.8841,1.9008,1.9008,1.9008,1.9008,1.9142,1.9075,1.9075,1.9341,1.8874,1.8256,1.7916,1.7236,1.6513,1.5782,0.0,0.0,0.0,0.0,0.0,0.0,0.0,0.0,0.0,0.0,0.7774,0.0,0.0,0.0,0.0,0.0,0.0,0.0,0.0,0.8123,0.0,0.9367,1.0286,0.0,0.0,1.2289,1.3514,1.3476,1.3666,1.4047,1.4015,1.401,1.401,1.401,1.4079,1.4237,1.4081,1.3956,1.3865,1.3613,1.3583,1.3655,1.3526,1.3591,1.3548,1.8881,0.0,0.0,0.0,0.0,0.0,0.0,1.9803,1.9541,1.9377,1.937,1.9306,1.9088,1.9241,1.9374,1.9374,1.9407,1.9517,1.9605,1.944,1.9374,1.944,1.9308,1.9274,1.9374,1.9153,1.8897,1.8635,0.0,0.0,0.0,0.0,0.0,0.0,0.0,1.467,0.0,0.0,0.0,1.6297,1.7222,1.7781,1.8069,1.8356,1.8622,1.89,1.8791,1.8576,1.8281,1.8008,1.794,1.8042,1.8347,1.8674,1.8975,1.9042,1.9208,1.9374,1.9374,1.9374,1.9374,1.944,1.9217,1.9038,1.9211,1.8786,1.8269,1.7835,1.749,1.6979,1.6094,1.5153,0.0,0.0,0.0,0.0,0.0,0.0,0.8091,0.0,0.0,0.0,0.0,0.0,0.0,0.0,0.0,0.6287,0.6491,0.0,0.7741,0.0,0.0,0.0,1.1197,0.0,1.2373,1.3122,1.3665,1.401,1.4169,1.4228,1.4318,1.4359,1.4288,1.4348,1.4488,1.4318,1.4228,1.4156,1.4201,1.4232,1.4285,1.4382,1.4455,1.431,0.0,1.9991,0.0,0.0,2.0547,2.0766,2.0761,2.0648,2.0367,1.9769,1.9922,1.9944,1.9638,1.9671,1.9769,1.9933,1.9835,1.9878,2.0064,1.9868,1.9736,1.9704,1.9736,1.9736,1.9704,1.9736,1.9457,0.0,0.0,0.0,0.0,0.0,0.0,0.0,0.0,0.0,0.0,0.0,1.6897,1.7064,1.7532,1.7971,1.8375,1.8506,1.868,1.8909,1.9072,1.8885,1.8549,1.8506,1.8371,1.8303,1.8774,1.9075,1.9308,1.9407,1.955,1.9714,1.9714,1.9704,1.9736,1.978,1.9415,1.9051,1.9093,1.8734,1.8276,1.779,1.7658,1.7381,1.6428,1.5867,0.0,0.0,0.0,0.0,0.0,0.0,0.0,0.0,0.0,0.0,0.8053,0.0,0.0,0.0,0.0,0.6193,0.6253,0.6913,0.7634,0.0,0.0,0.9998,1.1001,0.0,1.2555,1.2838,1.3832,1.4297,1.4306,1.4476,1.4616,1.4686,1.4586,1.4586,1.4666,1.4556,1.4611,1.4692,1.4912,1.5006,1.5029,1.5124,1.511,1.4905,0.0,0.0,0.0,0.0,0.0,0.0,2.0733,2.0919,2.0871,2.0139,1.9987,1.9835,1.9605,1.9889,2.0074,2.0074,2.0226,2.041,2.0604,2.0443,2.0226,2.0074,2.0226,2.0237,2.0074,2.0226,2.0204,0.0,0.0,1.8638,0.0,0.0,0.0,0.0,0.0,0.0,0.0,1.7582,1.7886,1.8321,1.8395,1.8434,1.8474,1.8508,1.8644,1.8812,1.8846,1.8815,1.8808,1.9119,1.9108,1.9042,1.9218,1.9506,1.9835,1.9835,1.9944,2.0042,2.0042,2.0053,2.0107,2.027,1.9928,1.9585,1.9774,1.9089,1.8376,1.8342,1.7901,1.7352,1.6844,1.6535,1.5897,0.0,0.0,0.0,0.0,0.0,1.1251,1.0205,0.0,0.0,1.0757,1.0278,0.0,0.0,0.6888,0.6155,0.6458,0.7165,0.8418,1.0272,1.0243,1.1091,1.2912,1.2738,1.2759,1.298,1.3871,1.4297,1.4297,1.4577,1.4686,1.4715,1.4686,1.4606,1.4536,1.4636,1.4939,1.5315,1.5269,1.5733,1.6359,1.5844,1.584,1.6079,0.0,0.0,0.0,0.0,0.0,0.0,0.0,2.1584,2.14,2.1103,2.0679,2.0335,2.027,2.0388,2.0485,2.0571,2.0593,2.0669,2.0818,2.0669,2.0529,2.0453,2.0529,2.0529,2.0453,2.0529,2.0529,0.0,0.0,0.0,0.0,0.0,0.0,0.0,0.0,1.7985,1.8543,1.841,1.8422,1.8516,1.8516,1.8583,1.8674,1.8674,1.8808,1.8975,1.8975,1.9042,1.9152,1.9374,1.9308,1.9175,1.9539,1.9835,2.0053,2.0161,2.0302,2.0475,2.0475,2.0464,2.0485,2.0572,2.0021,1.9489,1.9481,1.8825,1.8176,1.8019,1.7851,1.7688,1.7497,1.7452,1.6928,1.5335,0.0,0.0,0.0,0.0,0.0,1.1908,0.0,1.1756,1.124,1.0559,0.0,0.0,0.0,0.6683,0.6343,0.7281,0.8494,0.9893,0.0,1.1641,1.3165,1.3396,1.3559,1.374,1.4392,1.4645,1.4547,1.4784,1.4804,1.4715,1.4902,1.4852,1.4636,1.4813,1.5147,1.5543,1.5767,1.6228,1.6783,1.6782,1.6649,1.6473,2.1773,0.0,2.1788,0.0,2.2005,2.1994,2.2237,2.2053,2.1882,2.1788,2.136,2.099,2.0797,2.083,2.0914,2.1051,2.0903,2.0946,2.119,2.1074,2.0958,2.0862,2.0882,0.0,2.0754,2.083,2.083,2.0754,2.0625,0.0,0.0,0.0,0.0,0.0,1.8645,1.8863,1.9241,1.9108,1.8942,1.8808,1.8808,1.8875,1.8942,1.9008,1.9075,1.9175,1.9241,1.9308,1.9407,1.9671,1.9594,1.9462,1.99,2.0161,2.0313,2.0443,2.0637,2.0754,2.0754,2.0818,2.0914,2.0914,2.0361,1.9767,1.9511,1.896,1.8377,1.8036,1.8045,1.81,1.8045,1.8166,1.7798,1.6417,0.0,0.0,0.0,1.3716,0.0,1.3336,1.2827,1.25,1.2519,1.1654,0.0,0.0,0.0,0.7909,0.6764,0.7863,0.0,0.0,0.0,0.0,1.3744,1.4128,1.4289,1.427,1.4849,1.499,1.4775,1.497,1.497,1.4872,1.5088,1.5029,1.4813,1.5093,1.5487,1.5906,1.6316,1.6745,1.7164,1.7391,1.722,1.6855,2.2171,2.2151,2.2201,2.2214,2.2214,2.2156,2.2035,2.2219,2.2266,2.1925,2.1894,2.1643,2.0967,2.1063,2.1253,2.1388,2.1285,2.138,2.1862,2.1749,2.1529,0.0,0.0,2.1242,2.0903,2.1094,2.1094,2.0903,0.0,0.0,2.0367,0.0,1.9469,1.8712,1.9316,1.9605,1.9605,1.9572,1.9572,1.9572,1.9572,1.9483,1.9318,1.9506,1.9483,1.9308,1.9506,1.9605,1.9638,1.9977,2.0107,2.0107,2.0335,2.054,2.0701,2.0701,2.0786,2.0903,2.0903,2.1146,2.1388,2.1388,2.1128,2.0734,2.02,1.9724,1.9246,1.8704,1.8587,1.8545,1.8422,1.8518,1.8369,1.7682,0.0,0.0,0.0,1.529,0.0,1.438,1.461,1.5001,1.5313,1.432,0.0,0.0,0.0,0.0,0.0,0.0,0.0,1.1641,1.2915,0.0,1.5071,1.5071,1.4859,1.4411,1.509,1.5245,1.5,1.5156,1.5215,1.5186,1.5215,1.5127,1.5038,1.5567,1.6081,1.6536,1.6917,1.7341,1.7672,1.7564,1.7505,1.7461,2.2685,2.2755,2.2802,2.2802,2.2755,2.2683,2.2742,2.2676,2.2616,2.2574,2.2482,2.2297,2.1975,2.1675,2.1592,0.0,2.1624,2.1655,0.0,2.1761,2.1635,2.1561,2.1592,2.1561,2.1434,2.1498,2.1498,2.1434,0.0,0.0,0.0,2.0529,2.0322,2.0071,1.9987,1.9944,1.9911,1.9704,1.9605,1.9605,1.9605,1.955,1.9506,1.9583,1.955,1.955,1.9736,1.9857,1.9987,2.0226,2.0453,2.0667,2.0871,2.0978,2.1042,2.1042,2.1233,2.1434,2.1434,2.158,2.1726,2.1726,2.1168,2.0499,2.0333,1.975,1.9313,1.9525,1.9488,1.9422,1.937,1.9462,1.9277,1.8418,1.8333,0.0,1.6397,0.0,1.6319,1.6272,1.5771,1.556,1.585,1.5222,0.0,0.0,0.0,0.0,0.0,0.0,0.0,0.0,1.3888,0.0,1.6248,1.6164,1.6097,1.6041,1.5832,1.5652,1.5478,1.5537,1.5469,1.5332,1.5469,1.5391,1.5185,1.5748,1.6235,1.6682,1.7142,1.756,1.7896,1.7872,1.7759,1.7613,2.309,2.3064,2.306,2.306,2.2942,2.2883,2.3031,2.3025,2.2982,2.306,2.3012,2.286,2.2604,2.2328,0.0,2.2216,2.2061,2.203,2.2173,2.2123,2.2011,2.1886,2.1949,2.1906,2.1781,2.1855,0.0,2.1698,2.158,2.1348,2.0999,2.0914,2.083,2.0701,2.0453,2.0313,2.0313,2.0096,2.0009,2.0009,2.0009,1.9976,1.9911,1.9976,1.9976,1.9944,2.014,2.0259,2.0345,2.0529,2.0786,2.1031,2.1221,2.1189,2.1136,2.1333,2.1624,2.1851,2.1544,2.164,2.1733,2.159,2.1109,2.0612,2.0548,2.0035,1.9669,2.008,2.0131,2.0105,2.0105,2.0194,2.0079,1.9384,1.9384,1.9007,1.7712,0.0,1.6898,0.0,0.0,0.0,0.0,1.6285,1.5839,0.0,0.0,0.0,0.0,0.0,1.2512,1.3132,1.4979,1.6304,1.706,1.6965,1.6937,1.6948,1.6343,1.5951,1.5769,1.5769,1.5701,1.5594,1.573,1.5653,1.5527,1.6226,1.663,1.6882,1.7514,1.7841,1.8008,1.8008,1.794,1.7784,2.3433,2.3205,2.3034,0.0,2.2878,0.0,2.2992,2.3253,2.3403,2.3403,2.3403,2.3313,2.2969,2.2939,2.2909,2.2769,0.0,0.0,2.2708,2.2708,2.2555,2.2259,2.2359,2.2266,2.1956,2.2123,2.2073,2.1761,2.173,2.1561,2.1265,2.1221,2.1074,2.0765,2.0765,2.0765,2.0765,2.0733,2.0701,2.0701,2.0701,2.0604,2.0443,2.0637,2.0572,2.0443,2.0637,2.0733,2.0765,2.0903,2.104,2.1195,2.1342,2.1147,2.0964,2.1487,2.1865,2.1938,2.1254,2.1332,2.1506,2.1125,2.1034,2.0974,2.0835,2.0501,2.0271,2.0447,2.0598,2.0684,2.0684,2.0784,2.0771,2.0523,2.0472,2.0115,1.9032,1.7836,1.713,0.0,0.0,0.0,1.6762,1.7543,1.7661,0.0,0.0,0.0,0.0,0.0,1.4058,1.4154,1.6025,1.7179,1.7496,1.7507,1.7412,1.719,1.6627,1.622,1.5943,1.5972,1.5943,1.5914,1.5914,1.5934,1.5995,1.6849,1.7138,1.7092,1.7966,1.8192,1.8003,1.7998,1.8008,1.7974,0.0,0.0,2.3453,2.3453,2.3423,2.3381,2.3453,2.3509,2.3539,2.3539,2.3539,2.3509,2.345,2.345,2.342,2.339,2.2909,2.2678,2.286,2.2769,2.2647,2.2598,2.2616,2.2586,2.2525,2.2555,2.2463,2.2235,2.2123,2.1968,2.1737,2.1624,2.1529,2.1446,2.1285,2.1242,2.121,2.0967,2.0839,2.0839,2.0733,2.0669,2.0637,2.0669,2.0669,2.0637,2.0786,2.0935,2.1094,2.1242,2.1144,2.0984,2.1136,2.0831,2.0558,2.1085,2.1045,2.08,2.0739,2.1084,2.1421,2.1325,2.1264,2.1142,2.0733,2.0651,2.0759,2.1093,2.1264,2.1385,2.1506,2.1554,2.1506,2.1337,2.1215,2.0587,1.8911,1.8714,1.8533,0.0,1.8007,1.8128,1.8399,1.8362,1.7992,0.0,0.0,1.6543,1.6415,1.6313,1.5793,1.4826,1.6477,1.7412,1.7496,1.759,1.7507,1.719,1.7217,1.6937,1.6438,1.6534,1.6381,1.6066,1.6066,1.6201,1.6467,1.7,1.7169,1.7259,1.8108,1.8248,1.7932,1.815,1.8245,1.8202,2.376,2.373,2.373,2.373,2.3658,2.3628,2.373,2.373,2.376,2.3819,2.3848,2.3819,2.376,2.373,2.373,2.373,2.336,2.3133,2.3133,2.3072,2.2982,2.2878,2.2878,2.2848,2.28,2.28,2.2708,2.2555,2.2371,2.2216,2.203,2.1874,2.1718,2.1549,2.1537,2.1506,2.1388,2.1285,2.1265,2.1265,2.1181,2.1149,2.1149,2.1031,2.1074,2.1149,2.1158,2.1092,2.1094,2.1218,2.0988,2.0641,2.0772,2.0444,2.0103,2.0619,2.0737,2.0669,2.0624,2.0871,2.1152,2.1048,2.1095,2.1104,2.0926,2.108,2.1323,2.153,2.1722,2.1926,2.2067,2.2067,2.2044,2.1902,2.1298,2.0465,1.9311,1.8869,1.8629,1.8554,1.8696,1.8809,1.8883,1.8983,1.8707,1.7933,1.7838,0.0,1.7472,1.7633,1.7236,1.6131,1.7124,1.7717,1.7783,1.7838,1.7728,1.7423,1.7534,1.734,1.6881,1.6987,1.6807,1.641,1.641,1.6459,1.6572,1.7175,1.7388,1.7416,1.8296,1.8432,1.8194,1.8325,1.8371,1.8381,2.4083,2.4067,2.4037,2.4037,2.3894,2.3835,2.3995,2.4067,2.4112,2.4229,2.4229,2.42,2.4083,2.4067,2.4037,2.4067,2.3894,2.3688,2.3492,2.3463,2.336,2.3198,2.3168,2.3108,2.3,2.3,2.2909,2.2769,2.25,2.2317,2.2216,2.1997,2.1779,2.1557,2.1737,2.1706,2.1557,2.1686,2.173,2.173,2.1698,2.1698,2.1655,2.1412,2.142,2.1526,2.1265,2.1011,2.083,2.0931,2.0635,2.0241,2.0368,2.0049,1.9672,2.0151,2.0553,2.0785,2.0613,2.07,2.0822,2.0766,2.0896,2.1106,2.1229,2.1544,2.1793,2.1769,2.1996,2.2231,2.2394,2.237,2.2324,2.2278,2.1105,2.0127,1.989,0.0,1.8347,1.9018,1.9182,1.9183,1.9071,1.9484,1.9431,1.8643,1.8813,1.8768,1.8285,1.8484,1.8307,1.7653,1.7871,1.8045,1.8139,1.815,1.8014,1.7767,1.7767,1.759,1.7273,1.7323,1.7183,1.6874,1.6818,1.6719,1.6655,1.7449,1.7668,1.7657,1.8527,1.8734,1.8482,1.8519,1.8549,1.8516,2.4778,2.4721,2.4677,2.4677,2.4635,2.4607,2.4677,2.475,2.4835,2.4863,2.4863,2.4835,2.4835,2.4734,2.4706,2.4806,2.4692,2.439,2.3861,2.3671,2.3569,2.3526,2.3526,2.3497,2.3509,2.339,2.3241,2.3047,2.2449,2.2211,2.2347,2.1976,2.197,2.2266,2.2266,2.2266,2.2223,2.1987,2.1874,2.1874,2.1761,2.1698,2.1651,2.115,2.1005,2.0958,2.0344,2.0241,2.0392,2.0421,2.0191,1.9901,2.0036,1.9782,1.9464,1.9662,1.9934,2.0166,2.0233,2.045,2.0777,2.1315,2.1385,2.1375,2.152,2.1688,2.1769,2.1664,2.1841,2.2137,2.2486,2.2301,2.2184,2.2486,2.1222,2.0184,2.015,0.0,1.9126,1.9458,1.9723,1.9965,2.0218,1.9876,1.9579,1.9415,1.9056,1.8895,1.9034,1.8765,1.8658,1.8735,1.8566,1.8464,1.834,1.834,1.8259,1.8041,1.8041,1.7893,1.7629,1.7629,1.7462,1.7145,1.6892,1.7059,1.7523,1.7837,1.7904,1.7916,1.8854,1.8903,1.844,1.8665,1.8741,1.8741,2.4977,2.4948,2.492,2.492,2.492,2.492,2.492,2.4948,2.5005,2.5005,2.5005,2.5005,2.5005,2.4948,2.492,2.4977,2.4948,2.4778,2.4505,2.4173,2.394,2.3865,2.3688,2.3599,2.3599,2.3246,2.3021,2.2934,2.2245,2.2056,2.233,2.2041,2.2065,2.2389,2.2512,2.2482,2.2389,2.2359,2.2278,2.2149,2.1781,2.1612,2.1461,2.0813,2.0612,2.0588,2.0159,1.9918,1.9854,1.9972,1.982,1.9602,1.9736,1.9763,1.9759,1.9965,2.022,2.0422,2.0422,2.0673,2.1019,2.1399,2.1496,2.1544,2.1688,2.1864,2.1996,2.1841,2.1973,2.2184,2.244,2.2347,2.2278,2.2463,2.1315,0.0,2.0324,1.9771,1.9423,1.9568,1.9999,2.022,2.0131,1.9926,1.9694,1.9394,1.917,1.909,1.9302,1.9052,1.8972,1.9105,1.8786,1.856,1.8518,1.8449,1.8313,1.8084,1.8084,1.8041,1.7931,1.7931,1.7755,1.7451,1.7351,1.7292,1.7349,1.7607,1.7856,1.8111,1.8743,1.8929,1.8916,1.9036,1.9008,1.8942,2.523,2.5202,2.5174,2.5174,2.5174,2.5174,2.5174,2.5202,2.5202,2.5202,2.5202,2.5202,2.5202,2.5202,2.523,2.5258,2.5258,2.5258,2.5258,2.4893,2.4565,2.4316,2.407,2.3859,2.3658,2.323,2.2998,2.3026,2.2247,2.2168,2.2702,2.2417,2.2438,2.2732,2.2896,2.2866,2.2732,2.2682,2.2646,2.2586,2.1986,2.1707,2.154,2.0824,2.0506,2.0398,2.0136,1.9809,1.9585,1.9818,1.9726,1.9512,1.9694,1.9862,2.0055,2.0308,2.061,2.0833,2.0759,2.0945,2.1204,2.1447,2.1544,2.164,2.1793,2.2044,2.2161,2.2044,2.2114,2.2254,2.2417,2.237,2.2347,2.2449,0.0,2.0574,2.0793,2.0041,1.9596,1.9895,2.0226,2.0296,1.9991,1.9978,1.981,1.9368,1.9302,1.9328,1.9394,1.9302,1.9223,1.9208,1.8866,1.8667,1.8652,1.8545,1.8394,1.8166,1.8166,1.815,1.8084,1.815,1.8068,1.7877,1.7946,1.769,1.7289,1.7727,1.8061,1.8355,1.8733,1.9071,1.9351,1.9318,1.9241,1.9108,2.5962,2.5811,2.5647,2.5647,2.5647,2.5647,2.5647,2.5757,2.5839,2.5839,2.5839,2.5839,2.5839,2.5839,2.5866,2.6002,2.6029,2.6029,2.6029,2.5866,2.5536,2.4948,2.492,2.4579,2.3902,2.3656,2.3588,2.3726,2.2799,2.2895,2.3965,2.3428,2.3394,2.3682,2.3712,2.3712,2.3644,2.2852,2.282,2.3263,2.2535,2.2251,2.2172,2.1609,2.1072,2.0519,2.0007,1.9873,1.999,2.0131,2.0003,1.9811,2.0067,2.008,2.0054,2.0321,2.0686,2.1008,2.1131,2.1082,2.1131,2.164,2.1688,2.1688,2.1926,2.2114,2.2161,2.2044,2.2114,2.2278,2.2532,2.2278,2.217,2.2618,0.0,0.0,2.1876,2.0518,1.9773,2.0777,2.051,2.0296,2.0436,2.0182,1.9926,1.9759,1.963,1.9512,1.942,1.9394,1.9328,1.9208,1.9052,1.8919,1.8798,1.8771,1.8637,1.8394,1.8394,1.8286,1.8123,1.8286,1.8367,1.8364,1.8688,1.8519,1.8071,1.8796,1.8914,1.8711,1.916,1.9458,1.955,1.9374,1.9274,1.9285,2.6206,2.6138,2.6056,2.5948,2.5948,2.5948,2.5948,2.5921,2.5921,2.6002,2.5948,2.5893,2.5893,2.5893,2.5948,2.6084,2.6084,2.6138,2.6233,2.6179,2.5879,2.5286,2.4888,2.4573,2.4286,2.3756,2.3499,2.3553,2.3164,2.3312,2.3963,2.3763,2.3823,2.4105,2.4105,2.4047,2.3933,2.3218,2.3148,2.3433,2.2445,2.1964,2.1744,2.1219,2.0614,2.0087,1.9874,1.9721,1.9657,1.9785,1.9862,1.9952,2.0029,2.0309,2.0575,2.0687,2.0848,2.1033,2.1277,2.1229,2.1204,2.1592,2.1712,2.1793,2.2067,2.2161,2.2184,2.2137,2.2231,2.2324,2.2347,2.2402,2.248,2.2609,0.0,2.1967,2.2282,2.1586,2.0994,2.1006,2.0673,2.0372,2.0195,2.0067,1.9926,1.9798,1.9759,1.9708,1.9656,1.9565,1.9473,1.9328,1.9196,1.9011,1.8798,1.8798,1.8718,1.8518,1.8518,1.8479,1.8398,1.8491,1.8518,1.8541,1.9025,1.8788,1.8141,1.8771,1.9064,1.9149,1.9339,1.9691,2.0074,2.0009,1.978,1.9473,2.6353,2.634,2.6286,2.6179,2.6165,2.6165,2.6165,2.6084,2.6056,2.6138,2.6084,2.6029,2.6029,2.6056,2.6123,2.6218,2.6272,2.6367,2.6447,2.6447,2.6218,2.5632,2.5075,2.4769,2.4716,2.4038,2.379,2.4036,2.3894,2.4065,2.4532,2.4463,2.4529,2.4679,2.445,2.4313,2.4175,2.3293,2.3245,2.3676,2.2615,2.2061,2.1858,2.1501,2.0886,2.0195,2.0195,2.0055,1.9927,2.0016,2.0105,2.0207,2.0271,2.0575,2.0888,2.0938,2.0985,2.1106,2.135,2.1326,2.1326,2.1616,2.1722,2.1864,2.2091,2.2137,2.2184,2.2333,2.2394,2.2394,2.2356,2.2572,2.2754,2.27,2.2859,2.2904,2.27,2.231,2.1817,2.1191,2.0809,2.0447,2.0042,2.0042,2.0003,1.9862,1.9965,1.9965,1.9862,1.9734,1.9617,1.9473,1.9328,1.9143,1.8931,1.8878,1.8786,1.8652,1.8652,1.864,1.8587,1.864,1.8652,1.8688,1.9384,1.9244,1.8619,1.9218,1.9574,1.9704,1.9674,1.998,2.0475,2.041,2.014,1.9758,2.6498,2.6406,2.6313,2.6313,2.6313,2.6313,2.6313,2.6313,2.6313,2.6313,2.6313,2.6313,2.6313,2.6418,2.651,2.651,2.6686,2.6806,2.6806,2.6806,2.6594,2.6111,2.5647,2.5346,2.5216,2.4606,2.4657,2.5412,2.5137,2.533,2.5893,2.5784,2.5633,2.5467,2.4818,2.4502,2.4392,2.2923,2.3011,2.4014,2.3165,2.2804,2.2791,2.2804,2.2059,2.0997,2.0997,2.0997,2.0997,2.0997,2.0835,2.0623,2.0825,2.0901,2.0913,2.0972,2.1106,2.1229,2.1375,2.1399,2.1471,2.1722,2.1793,2.1841,2.1973,2.1996,2.2123,2.2595,2.254,2.2449,2.2663,2.2822,2.2912,2.2912,2.3016,2.315,2.3275,2.2655,2.2006,2.1465,2.0919,2.0447,2.0042,2.0105,2.0131,2.0016,2.0309,2.036,2.0016,1.9888,1.9734,1.9617,1.9473,1.9354,1.9208,1.9078,1.8946,1.881,1.881,1.8744,1.8625,1.8756,1.881,1.8869,1.9863,2.0046,1.9666,2.0387,2.0565,2.0381,2.027,2.0401,2.0669,2.0475,2.0291,2.0074,2.6712,2.6674,2.6606,2.6472,2.6445,2.6445,2.6445,2.6353,2.6326,2.6418,2.6353,2.6313,2.6313,2.634,2.6353,2.6353,2.6498,2.6645,2.6779,2.6899,2.6846,2.6594,2.5644,2.5268,2.56,2.4994,2.4944,2.554,2.5788,2.5994,2.6179,2.6138,2.5776,2.5168,2.5379,2.5051,2.4312,2.3491,2.3457,2.3905,2.3219,2.2644,2.2245,2.3111,2.2418,2.105,2.1474,2.1254,2.0723,2.0723,2.0623,2.0549,2.0712,2.0861,2.0972,2.0997,2.1155,2.1375,2.1496,2.1544,2.1568,2.164,2.1722,2.1841,2.1973,2.2067,2.2147,2.2194,2.2518,2.2709,2.2581,2.3076,2.3501,2.3399,2.3501,2.356,2.3451,2.3164,2.2655,2.1779,2.1358,2.0919,2.0346,2.0156,2.0093,2.0131,2.0233,2.0334,2.0422,2.0131,1.9926,1.9888,1.9668,1.9486,1.9354,1.9223,1.9272,1.9497,1.9497,1.9674,1.9988,2.0045,2.0045,2.0093,2.0646,2.0605,2.0206,2.0647,2.0796,2.0736,2.0705,2.0846,2.1031,2.1094,2.0924,2.0635,2.6806,2.6806,2.6753,2.6645,2.6618,2.6618,2.6618,2.6539,2.6527,2.6618,2.6553,2.65,2.65,2.65,2.6527,2.6568,2.6645,2.6765,2.6873,2.6951,2.6951,2.6806,2.5904,2.5681,2.6272,2.5571,2.5531,2.621,2.6445,2.6553,2.65,2.6162,2.5716,2.5164,2.4996,2.4687,2.4192,2.3347,2.3307,2.3823,2.3364,2.2758,2.2236,2.3098,2.2456,2.1111,2.1395,2.1177,2.0711,2.0661,2.0611,2.0587,2.0687,2.0848,2.0997,2.0997,2.118,2.1423,2.1496,2.152,2.152,2.152,2.1616,2.1746,2.1902,2.1996,2.2077,2.2194,2.2411,2.2618,2.2581,2.3091,2.3501,2.3436,2.3631,2.3732,2.356,2.3363,2.2971,2.2249,2.1851,2.1407,2.0845,2.0485,2.0271,2.0207,2.0258,2.0359,2.0447,2.0207,2.0042,1.999,1.9798,1.9617,1.9486,1.9642,1.9778,1.9875,2.0081,2.0342,2.0581,2.0581,2.061,2.0634,2.0884,2.0902,2.0683,2.092,2.1112,2.1205,2.1131,2.1237,2.1391,2.1486,2.1348,2.1083,2.6806,2.6806,2.6806,2.6806,2.6806,2.6806,2.6806,2.6806,2.6806,2.6806,2.6806,2.6806,2.6806,2.6806,2.6846,2.6951,2.6977,2.6977,2.7003,2.7003,2.6951,2.6806,2.6327,2.6349,2.6963,2.6203,2.6265,2.7207,2.7023,2.6864,2.6704,2.5911,2.5451,2.5197,2.4093,2.381,2.4116,2.2832,2.2884,2.3772,2.346,2.2959,2.2467,2.2865,2.225,2.1193,2.1065,2.0952,2.0888,2.0762,2.0712,2.0699,2.0699,2.0848,2.0997,2.1021,2.1204,2.1399,2.1399,2.1399,2.1399,2.1399,2.1496,2.1616,2.1769,2.1793,2.1959,2.2397,2.2365,2.2356,2.2686,2.2957,2.315,2.315,2.3501,2.3739,2.3616,2.3348,2.3046,2.2754,2.2319,2.1898,2.1479,2.1066,2.066,2.0283,2.0398,2.0423,2.0258,2.0258,2.0182,2.0067,1.9914,1.9759,1.9642,2.0279,2.0427,2.011,2.0645,2.0879,2.0783,2.0783,2.0771,2.0771,2.0926,2.1091,2.1199,2.1225,2.1434,2.1698,2.1506,2.1537,2.1698,2.1698,2.1612,2.1451,2.6806,2.6806,2.6806,2.6806,2.6899,2.6951,2.6951,2.6951,2.6951,2.6951,2.6873,2.6806,2.6806,2.6806,2.6738,2.6604,2.6738,2.6899,2.6977,2.7093,2.7093,2.6951,2.6593,2.6527,2.6846,2.6269,2.6367,2.7207,2.664,2.6304,2.6148,2.5456,2.4742,2.4072,2.4273,2.4297,2.4145,2.3395,2.3375,2.3807,2.313,2.244,2.1893,2.2821,2.2354,2.1271,2.1691,2.1457,2.0985,2.0875,2.08,2.0712,2.0825,2.0911,2.1008,2.1131,2.1277,2.1399,2.1399,2.1399,2.1399,2.1399,2.1423,2.152,2.1746,2.1864,2.2067,2.2356,2.2609,2.2799,2.2979,2.3268,2.3486,2.3486,2.3573,2.3616,2.3595,2.3545,2.3334,2.2912,2.2686,2.2342,2.1769,2.1237,2.082,2.0535,2.0548,2.0636,2.0725,2.0586,2.0485,2.0472,2.0245,2.0054,1.9901,2.0815,2.111,2.0786,2.1378,2.1869,2.2243,2.2243,2.217,2.2019,2.1957,2.1925,2.1937,2.1671,2.1686,2.1843,2.1686,2.1655,2.1698,2.1812,2.1831,2.1788,2.6899,2.6846,2.6832,2.6963,2.7003,2.7029,2.7093,2.7093,2.7067,2.7003,2.6951,2.6873,2.6806,2.6806,2.6753,2.6645,2.687,2.7015,2.7093,2.7222,2.7258,2.7196,2.6803,2.6669,2.6841,2.652,2.6623,2.7207,2.6583,2.6273,2.6169,2.5091,2.4343,2.3891,2.3826,2.3904,2.4013,2.3288,2.3244,2.365,2.2953,2.2297,2.176,2.2415,2.2072,2.122,2.1479,2.1324,2.0997,2.0961,2.0911,2.0848,2.0924,2.1035,2.1106,2.118,2.1302,2.1399,2.1399,2.1399,2.1399,2.1399,2.1399,2.1471,2.1722,2.1841,2.1949,2.2091,2.2263,2.2434,2.2632,2.2881,2.3105,2.3319,2.3429,2.348,2.3545,2.356,2.3458,2.3216,2.3083,2.2686,2.1973,2.1589,2.1202,2.0734,2.0635,2.0648,2.0749,2.0648,2.0598,2.0561,2.0656,2.0669,2.0526,2.1523,2.1952,2.1781,2.2167,2.2498,2.272,2.272,2.2647,2.2525,2.2309,2.2197,2.2154,2.1824,2.1781,2.1894,2.1812,2.1855,2.1949,2.203,2.208,2.2142,2.7093,2.7015,2.7015,2.7233,2.7196,2.717,2.7284,2.731,2.7258,2.7119,2.7081,2.7003,2.6846,2.6806,2.6806,2.6806,2.7026,2.7181,2.7207,2.7284,2.7401,2.7412,2.7011,2.6852,2.6967,2.6904,2.6971,2.7233,2.6683,2.6386,2.6228,2.4838,2.4103,2.3934,2.3271,2.3327,2.3894,2.3048,2.3019,2.3483,2.2888,2.2322,2.1848,2.1991,2.1745,2.1277,2.1155,2.1057,2.1033,2.1033,2.1008,2.0997,2.1033,2.1131,2.1229,2.1229,2.1326,2.1423,2.1423,2.1399,2.1399,2.1399,2.1399,2.1471,2.1712,2.1769,2.1793,2.1841,2.1902,2.1996,2.224,2.2394,2.2615,2.2992,2.3179,2.3297,2.3422,2.3444,2.3466,2.3422,2.3297,2.2941,2.2194,2.1996,2.1612,2.0981,2.0809,2.0787,2.0854,2.0737,2.07,2.0755,2.1017,2.1172,2.1171,2.2033,2.2522,2.2636,2.2887,2.2939,2.2769,2.2769,2.2769,2.2708,2.2432,2.2309,2.2247,2.1949,2.1874,2.1987,2.1968,2.2061,2.2197,2.2216,2.2309,2.242,2.7524,2.7499,2.7499,2.7549,2.764,2.769,2.7715,2.7715,2.7665,2.7524,2.7412,2.7248,2.7003,2.6873,2.6806,2.6806,2.6951,2.7081,2.7181,2.7233,2.7321,2.7575,2.7295,2.7207,2.7335,2.7423,2.7448,2.7376,2.6832,2.6279,2.5687,2.484,2.4073,2.3408,2.3282,2.3599,2.4097,2.3345,2.3287,2.3597,2.2781,2.2255,2.1973,2.1866,2.1804,2.1712,2.1568,2.1375,2.118,2.118,2.1106,2.1008,2.1131,2.1253,2.1375,2.1375,2.1471,2.1544,2.1423,2.1399,2.1399,2.1399,2.1399,2.1447,2.1592,2.164,2.1722,2.2067,2.2254,2.2379,2.2595,2.2737,2.2843,2.2925,2.3037,2.3127,2.3149,2.3246,2.3275,2.3171,2.3037,2.2851,2.264,2.2426,2.2091,2.153,2.1361,2.1468,2.1879,2.1274,2.1173,2.1702,2.1039,2.0938,2.1446,2.1815,2.2255,2.2767,2.3271,2.3348,2.3047,2.3047,2.3,2.2878,2.283,2.2739,2.2629,2.2402,2.2328,2.2328,2.2216,2.2197,2.2228,2.2328,2.2389,2.242,2.77,2.765,2.765,2.779,2.7815,2.7815,2.7905,2.7905,2.784,2.7625,2.7549,2.7412,2.7144,2.6989,2.6873,2.6806,2.6925,2.7107,2.7299,2.7372,2.7575,2.7925,2.76,2.7488,2.7615,2.76,2.76,2.7615,2.7088,2.663,2.6249,2.555,2.5039,2.4679,2.4186,2.4171,2.4462,2.351,2.3191,2.331,2.2669,2.2254,2.1996,2.1841,2.1746,2.1688,2.1544,2.1423,2.1302,2.1302,2.1277,2.1229,2.1302,2.1399,2.1496,2.1423,2.1544,2.1688,2.1544,2.152,2.152,2.152,2.1471,2.1423,2.1471,2.1616,2.1769,2.2044,2.2254,2.2463,2.2609,2.2623,2.2684,2.2865,2.2865,2.2888,2.306,2.309,2.3083,2.3105,2.306,2.2947,2.2775,2.2615,2.2347,2.1973,2.1688,2.1629,2.1912,2.1486,2.135,2.1605,2.1422,2.1575,2.2115,2.2393,2.2822,2.3415,2.3542,2.348,2.3271,2.3271,2.3168,2.3017,2.2939,2.2878,2.2787,2.2512,2.2389,2.2389,2.2247,2.2247,2.2328,2.2494,2.2604,2.2696]}]]